[[{"header":{"parameterUnit":"m.s-1","parameterCategory":1,"la1":30.6,"la2":28.766,"lo1":-90.7593,"lo2":-88.6598,"dy":0.0162,"dx":0.0183,"nx":116,"ny":114,"refTime":"2023-07-12T06:00:00:Z","depth":0,"parameterNumber":2,"parameterNumberName":"U-component_of_WINDS"},"data":[0.0,0.0,0.0,0.0,0.0,0.0,0.0,0.0,0.0,0.0,0.0,0.0,0.0,0.0,0.0,0.0,0.0,0.0,0.0,0.0,0.0,0.0,0.0,0.0,0.0,0.0,0.0,0.0,0.0,0.0,0.0,0.0,0.0,0.0,0.0,0.0,0.0,0.0,0.0,0.0,0.0,0.0,0.0,0.0,0.0,0.0,0.0,0.0,0.0,0.0,0.0,0.0,0.0,0.0,0.0,0.0,0.0,0.0,0.0,0.0,0.0,0.0,0.0,0.0,0.0,0.0,0.0,0.0,0.0,0.0,0.0,0.0,0.0,0.0,0.0,0.0,0.0,0.0,0.0,0.0,0.0,0.0,0.0,0.0,0.0,0.0,0.0,0.0,0.0,0.0,0.0,0.0,0.0,0.0,0.0,0.0,0.0,0.0,0.0,0.0,0.0,0.0,0.0,0.0,0.0,0.0,0.0,0.0,0.0,0.0,0.0,0.0,0.0,0.0,0.0,0.0,0.0,0.0,0.0,0.0,0.0,0.0,0.0,0.0,0.0,0.0,0.0,0.0,0.0,0.0,0.0,0.0,0.0,0.0,0.0,0.0,0.0,0.0,0.0,0.0,0.0,0.0,0.0,0.0,0.0,0.0,0.0,0.0,0.0,0.0,0.0,0.0,0.0,0.0,0.0,0.0,0.0,0.0,0.0,0.0,0.0,0.0,0.0,0.0,0.0,0.0,0.0,0.0,0.0,0.0,0.0,0.0,0.0,0.0,0.0,0.0,0.0,0.0,0.0,0.0,0.0,0.0,0.0,0.0,0.0,0.0,0.0,0.0,0.0,0.0,0.0,0.0,0.0,0.0,0.0,0.0,0.0,0.0,0.0,0.0,0.0,0.0,0.0,0.0,0.0,0.0,0.0,0.0,0.0,0.0,0.0,0.0,0.0,0.0,0.0,0.0,0.0,0.0,0.0,0.0,0.0,0.0,0.0,0.0,0.0,0.0,0.0,0.0,0.0,0.0,0.0,0.0,0.0,0.0,0.0,0.0,0.0,0.0,0.0,0.0,0.0,0.0,0.0,0.0,0.0,0.0,0.0,0.0,0.0,0.0,0.0,0.0,0.0,0.0,0.0,0.0,0.0,0.0,0.0,0.0,0.0,0.0,0.0,0.0,0.0,0.0,0.0,0.0,0.0,0.0,0.0,0.0,0.0,0.0,0.0,0.0,0.0,0.0,0.0,0.0,0.0,0.0,0.0,0.0,0.0,0.0,0.0,0.0,0.0,0.0,0.0,0.0,0.0,0.0,0.0,0.0,0.0,0.0,0.0,0.0,0.0,0.0,0.0,0.0,0.0,0.0,0.0,0.0,0.0,0.0,0.0,0.0,0.0,0.0,0.0,0.0,0.0,0.0,0.0,0.0,0.0,0.0,0.0,0.0,0.0,0.0,0.0,0.0,0.0,0.0,0.0,0.0,0.0,0.0,0.0,0.0,0.0,0.0,0.0,0.0,0.0,0.0,0.0,0.0,0.0,0.0,0.0,0.0,0.0,0.0,0.0,0.0,0.0,0.0,0.0,0.0,0.0,0.0,0.0,0.0,0.0,0.0,0.0,0.0,0.0,0.0,0.0,0.0,0.0,0.0,0.0,0.0,0.0,0.0,0.0,0.0,0.0,0.0,0.0,0.0,0.0,0.0,0.0,0.0,0.0,0.0,0.0,0.0,0.0,0.0,0.0,0.0,0.0,0.0,0.0,0.0,0.0,0.0,0.0,0.0,0.0,0.0,0.0,0.0,0.0,0.0,0.0,0.0,0.0,0.0,0.0,0.0,0.0,0.0,0.0,0.0,0.0,0.0,0.0,0.0,0.0,0.0,0.0,0.0,0.0,0.0,0.0,0.0,0.0,0.0,0.0,0.0,0.0,0.0,0.0,0.0,0.0,0.0,0.0,0.0,0.0,0.0,0.0,0.0,0.0,0.0,0.0,0.0,0.0,0.0,0.0,0.0,0.0,0.0,0.0,0.0,0.0,0.0,0.0,0.0,0.0,0.0,0.0,0.0,0.0,0.0,0.0,0.0,0.0,0.0,0.0,0.0,0.0,0.0,0.0,0.0,0.0,0.0,0.0,0.0,0.0,0.0,0.0,0.0,0.0,0.0,0.0,0.0,0.0,0.0,0.0,0.0,0.0,0.0,0.0,0.0,0.0,0.0,0.0,0.0,0.0,0.0,0.0,0.0,0.0,0.0,0.0,0.0,0.0,0.0,0.0,0.0,0.0,0.0,0.0,0.0,0.0,0.0,0.0,0.0,0.0,0.0,0.0,0.0,0.0,0.0,0.0,0.0,0.0,0.0,0.0,0.0,0.0,0.0,0.0,0.0,0.0,0.0,0.0,0.0,0.0,0.0,0.0,0.0,0.0,0.0,0.0,0.0,0.0,0.0,0.0,0.0,0.0,0.0,0.0,0.0,0.0,0.0,0.0,0.0,0.0,0.0,0.0,0.0,0.0,0.0,0.0,0.0,0.0,0.0,0.0,0.0,0.0,0.0,0.0,0.0,0.0,0.0,0.0,0.0,0.0,0.0,0.0,0.0,0.0,0.0,0.0,0.0,0.0,0.0,0.0,0.0,0.0,0.0,0.0,0.0,0.0,0.0,0.0,0.0,0.0,0.0,0.0,0.0,0.0,0.0,0.0,0.0,0.0,0.0,0.0,0.0,0.0,0.0,0.0,0.0,0.0,0.0,0.0,0.0,0.0,0.0,0.0,0.0,0.0,0.0,0.0,0.0,0.0,0.0,0.0,0.0,0.0,0.0,0.0,0.0,0.0,0.0,0.0,0.0,0.0,0.0,0.0,0.0,0.0,0.0,0.0,0.0,0.0,0.0,0.0,0.0,0.0,0.0,0.0,0.0,0.0,0.0,0.0,0.0,0.0,0.0,0.0,0.0,0.0,0.0,0.0,0.0,0.0,0.0,0.0,0.0,0.0,0.0,0.0,0.0,0.0,0.0,0.0,0.0,0.0,0.0,0.0,0.0,0.0,0.0,0.0,0.0,0.0,0.0,0.0,0.0,0.0,0.0,0.0,0.0,0.0,0.0,0.0,0.0,0.0,0.0,0.0,0.0,0.0,0.0,0.0,0.0,0.0,0.0,0.0,0.0,0.0,0.0,0.0,0.0,0.0,0.0,0.0,0.0,0.0,0.0,0.0,0.0,0.0,0.0,0.0,0.0,0.0,0.0,0.0,0.0,0.0,0.0,0.0,0.0,0.0,0.0,0.0,0.0,0.0,0.0,0.0,0.0,0.0,0.0,0.0,0.0,0.0,0.0,0.0,0.0,0.0,0.0,0.0,0.0,0.0,0.0,0.0,0.0,0.0,0.0,0.0,0.0,0.0,0.0,0.0,0.0,0.0,0.0,0.0,0.0,0.0,0.0,0.0,0.0,0.0,0.0,0.0,0.0,0.0,0.0,0.0,0.0,0.0,0.0,0.0,0.0,0.0,0.0,0.0,0.0,0.0,0.0,0.0,0.0,0.0,0.0,0.0,0.0,0.0,0.0,0.0,0.0,0.0,0.0,0.0,0.0,0.0,0.0,0.0,0.0,0.0,0.0,0.0,0.0,0.0,0.0,0.0,0.0,0.0,0.0,0.0,0.0,0.0,0.0,0.0,0.0,0.0,0.0,0.0,0.0,0.0,0.0,0.0,0.0,0.0,0.0,0.0,0.0,0.0,0.0,0.0,0.0,0.0,0.0,0.0,0.0,0.0,0.0,0.0,0.0,0.0,0.0,0.0,0.0,0.0,0.0,0.0,0.0,0.0,0.0,0.0,0.0,0.0,0.0,0.0,0.0,0.0,0.0,0.0,0.0,0.0,0.0,0.0,0.0,0.0,0.0,0.0,0.0,0.0,0.0,0.0,0.0,0.0,0.0,0.0,0.0,0.0,0.0,0.0,0.0,0.0,0.0,0.0,0.0,0.0,0.0,0.0,0.0,0.0,0.0,0.0,0.0,0.0,0.0,0.0,0.0,0.0,0.0,0.0,0.0,0.0,0.0,0.0,0.0,0.0,0.0,0.0,0.0,0.0,0.0,0.0,0.0,0.0,0.0,0.0,0.0,0.0,0.0,0.0,0.0,0.0,0.0,0.0,0.0,0.0,0.0,0.0,0.0,0.0,0.0,0.0,0.0,0.0,0.0,0.0,0.0,0.0,0.0,0.0,0.0,0.0,0.0,0.0,0.0,0.0,0.0,0.0,0.0,0.0,0.0,0.0,0.0,0.0,0.0,0.0,0.0,0.0,0.0,0.0,0.0,0.0,0.0,0.0,0.0,0.0,0.0,0.0,0.0,0.0,0.0,0.0,0.0,0.0,0.0,0.0,0.0,0.0,0.0,0.0,0.0,0.0,0.0,0.0,0.0,0.0,0.0,0.0,0.0,0.0,0.0,0.0,0.0,0.0,0.0,0.0,0.0,0.0,0.0,0.0,0.0,0.0,0.0,0.0,0.0,0.0,0.0,0.0,0.0,0.0,0.0,0.0,0.0,0.0,0.0,0.0,0.0,0.0,0.0,0.0,0.0,0.0,0.0,0.0,0.0,0.0,0.0,0.0,0.0,0.0,0.0,0.0,0.0,0.0,0.0,0.0,0.0,0.0,0.0,0.0,0.0,0.0,0.0,0.0,0.0,0.0,0.0,0.0,0.0,0.0,0.0,0.0,0.0,0.0,0.0,0.0,0.0,0.0,0.0,0.0,0.0,0.0,0.0,0.0,0.0,0.0,0.0,0.0,0.0,0.0,0.0,0.0,0.0,0.0,0.0,0.0,0.0,0.0,0.0,0.0,0.0,0.0,0.0,0.0,0.0,0.0,0.0,0.0,0.0,0.0,0.0,0.0,0.0,0.0,0.0,0.0,0.0,0.0,0.0,0.0,0.0,0.0,0.0,0.0,0.0,0.0,0.0,0.0,0.0,0.0,0.0,0.0,0.0,0.0,0.0,0.0,0.0,0.0,0.0,0.0,0.0,0.0,0.0,0.0,0.0,0.0,0.0,0.0,0.0,0.0,0.0,0.0,0.0,0.0,0.0,0.0,0.0,0.0,0.0,0.0,0.0,0.0,0.0,0.0,0.0,0.0,0.0,0.0,0.0,0.0,0.0,0.0,0.0,0.0,0.0,0.0,0.0,0.0,0.0,0.0,0.0,0.0,0.0,0.0,0.0,0.0,0.0,0.0,0.0,0.0,0.0,0.0,0.0,0.0,0.0,0.0,0.0,0.0,0.0,0.0,0.0,0.0,0.0,0.0,0.0,0.0,0.0,0.0,0.0,0.0,0.0,0.0,0.0,0.0,0.0,0.0,0.0,0.0,0.0,0.0,0.0,0.0,0.0,0.0,0.0,0.0,0.0,0.0,0.0,0.0,0.0,0.0,0.0,0.0,0.0,0.0,0.0,0.0,0.0,0.0,0.0,0.0,0.0,0.0,0.0,0.0,0.0,0.0,0.0,0.0,0.0,0.0,0.0,0.0,0.0,0.0,0.0,0.0,0.0,0.0,0.0,0.0,0.0,0.0,0.0,0.0,0.0,0.0,0.0,0.0,0.0,0.0,0.0,0.0,0.0,0.0,0.0,0.0,0.0,0.0,0.0,0.0,0.0,0.0,0.0,0.0,0.0,0.0,0.0,0.0,0.0,0.0,0.0,0.0,0.0,0.0,0.0,0.0,0.0,0.0,0.0,0.0,0.0,0.0,0.0,0.0,0.0,0.0,0.0,0.0,0.0,0.0,0.0,0.0,0.0,0.0,0.0,0.0,0.0,0.0,0.0,0.0,0.0,0.0,0.0,0.0,0.0,0.0,0.0,0.0,0.0,0.0,0.0,0.0,0.0,0.0,0.0,0.0,0.0,0.0,0.0,0.0,0.0,0.0,0.0,0.0,0.0,0.0,0.0,0.0,0.0,0.0,0.0,0.0,0.0,0.0,0.0,0.0,0.0,0.0,0.0,0.0,0.0,0.0,0.0,0.0,0.0,0.0,0.0,0.0,0.0,0.0,0.0,0.0,0.0,0.0,0.0,0.0,0.0,0.0,0.0,0.0,0.0,0.0,0.0,0.0,0.0,0.0,0.0,-2.0605,0.0,0.0,0.0,0.0,0.0,0.0,0.0,0.0,0.0,0.0,0.0,0.0,0.0,0.0,0.0,0.0,0.0,0.0,0.0,0.0,0.0,0.0,0.0,0.0,0.0,0.0,0.0,0.0,0.0,0.0,0.0,0.0,0.0,0.0,0.0,0.0,0.0,0.0,0.0,0.0,0.0,0.0,0.0,0.0,0.0,0.0,0.0,0.0,0.0,0.0,0.0,0.0,0.0,0.0,0.0,0.0,0.0,0.0,0.0,0.0,0.0,0.0,0.0,0.0,0.0,0.0,0.0,0.0,0.0,0.0,0.0,0.0,0.0,0.0,0.0,0.0,0.0,0.0,0.0,0.0,0.0,0.0,0.0,0.0,0.0,0.0,0.0,0.0,0.0,0.0,0.0,0.0,0.0,0.0,0.0,0.0,0.0,0.0,0.0,0.0,0.0,0.0,0.0,0.0,0.0,0.0,0.0,0.0,0.0,0.0,0.0,0.0,0.0,0.0,0.0,0.0,-2.0605,0.0,0.0,0.0,0.0,0.0,0.0,0.0,0.0,0.0,0.0,0.0,0.0,0.0,0.0,0.0,0.0,0.0,0.0,0.0,0.0,0.0,0.0,0.0,0.0,0.0,0.0,0.0,0.0,0.0,0.0,0.0,0.0,0.0,0.0,0.0,0.0,0.0,0.0,0.0,0.0,0.0,0.0,0.0,0.0,0.0,0.0,0.0,0.0,0.0,0.0,0.0,0.0,0.0,0.0,0.0,0.0,0.0,0.0,0.0,0.0,0.0,0.0,0.0,0.0,0.0,0.0,0.0,0.0,0.0,0.0,0.0,0.0,0.0,0.0,0.0,0.0,0.0,0.0,0.0,0.0,0.0,0.0,0.0,0.0,0.0,0.0,0.0,0.0,0.0,0.0,0.0,0.0,0.0,0.0,0.0,0.0,0.0,0.0,0.0,0.0,0.0,0.0,0.0,0.0,0.0,0.0,0.0,0.0,-2.1307,-2.1533,-2.1885,-2.1885,-2.1885,-2.1846,-2.1153,-2.084,-2.086,0.0,0.0,0.0,0.0,0.0,0.0,0.0,0.0,0.0,0.0,0.0,0.0,0.0,0.0,0.0,0.0,0.0,0.0,0.0,0.0,0.0,0.0,0.0,0.0,0.0,0.0,0.0,0.0,0.0,0.0,0.0,0.0,0.0,0.0,0.0,0.0,0.0,0.0,0.0,-2.4564,-2.2813,-2.2702,-2.3891,-2.377,0.0,0.0,0.0,0.0,0.0,0.0,0.0,0.0,0.0,0.0,0.0,0.0,0.0,0.0,0.0,0.0,0.0,0.0,0.0,0.0,0.0,0.0,0.0,0.0,0.0,0.0,0.0,0.0,0.0,0.0,0.0,0.0,0.0,0.0,0.0,0.0,0.0,0.0,0.0,0.0,0.0,0.0,0.0,-2.1849,-2.105,0.0,0.0,0.0,0.0,0.0,0.0,0.0,0.0,0.0,0.0,0.0,0.0,0.0,0.0,-2.1709,-2.1709,-2.1738,-2.1797,-2.1797,-2.1836,-2.1885,-2.1885,-2.1885,-2.1875,-2.1768,0.0,-2.1719,-2.1777,0.0,0.0,0.0,0.0,0.0,0.0,0.0,0.0,0.0,0.0,0.0,0.0,0.0,0.0,0.0,0.0,0.0,0.0,0.0,0.0,0.0,0.0,0.0,0.0,0.0,0.0,0.0,0.0,0.0,0.0,0.0,0.0,0.0,0.0,0.0,0.0,-2.3708,-2.3441,-2.3294,-2.1849,-2.1451,-2.1897,-2.2403,-2.322,-2.4156,-2.4156,0.0,0.0,0.0,0.0,0.0,0.0,0.0,0.0,0.0,0.0,0.0,0.0,0.0,0.0,0.0,0.0,0.0,0.0,0.0,0.0,0.0,0.0,0.0,0.0,0.0,0.0,0.0,0.0,0.0,0.0,0.0,0.0,0.0,0.0,0.0,0.0,0.0,0.0,0.0,-2.1949,-2.126,-2.1375,-2.0934,-2.0605,0.0,0.0,0.0,0.0,0.0,0.0,0.0,0.0,0.0,-2.1602,-2.2012,-2.2236,-2.2236,-2.248,-2.2715,-2.2959,-2.2959,-2.3076,-2.331,-2.331,-2.331,-2.331,-2.331,-2.331,-2.3252,-2.2529,-2.2236,-2.2266,0.0,0.0,0.0,0.0,-2.2588,-2.2588,0.0,0.0,0.0,0.0,0.0,0.0,0.0,0.0,0.0,0.0,0.0,0.0,0.0,0.0,0.0,-2.3108,0.0,0.0,0.0,0.0,0.0,0.0,0.0,0.0,0.0,0.0,0.0,-2.3891,-2.3635,-2.2999,-2.1989,-2.1049,-2.0605,-2.0644,-2.1336,-2.2178,-2.311,-2.311,-2.311,0.0,0.0,0.0,0.0,0.0,0.0,0.0,0.0,0.0,0.0,0.0,0.0,0.0,0.0,0.0,0.0,0.0,0.0,0.0,0.0,0.0,0.0,0.0,0.0,0.0,0.0,0.0,0.0,0.0,0.0,0.0,0.0,0.0,0.0,0.0,0.0,0.0,0.0,-2.1049,-2.0857,-2.1555,-2.1111,-2.0732,0.0,0.0,0.0,0.0,0.0,0.0,-2.2031,-2.2256,-2.2373,-2.2373,-2.2783,-2.2998,-2.2998,-2.3437,-2.3854,-2.4121,-2.4238,-2.4453,-2.4709,-2.4709,-2.4709,-2.4709,-2.4709,-2.4709,-2.4658,-2.3486,-2.2998,-2.3027,-2.3305,-2.3422,-2.3422,-2.3422,-2.3422,-2.3422,0.0,0.0,0.0,0.0,0.0,0.0,0.0,0.0,0.0,0.0,0.0,0.0,0.0,0.0,-2.3108,-2.3108,-2.3108,-2.3108,0.0,0.0,0.0,0.0,0.0,0.0,0.0,0.0,0.0,-2.4933,-2.3963,-2.2999,-2.1989,-2.1049,-2.0605,-2.0605,-2.0634,-2.1193,-2.2065,-2.2065,-2.2065,-2.2,0.0,0.0,0.0,0.0,0.0,0.0,0.0,0.0,0.0,0.0,0.0,0.0,0.0,0.0,0.0,0.0,0.0,0.0,0.0,0.0,0.0,0.0,0.0,0.0,0.0,0.0,0.0,0.0,0.0,0.0,0.0,0.0,0.0,0.0,0.0,0.0,0.0,0.0,0.0,-2.0673,-2.0977,0.0,0.0,0.0,0.0,-2.1846,-2.2217,-2.2461,-2.248,-2.3252,-2.3691,-2.3691,-2.4102,-2.4316,-2.4316,-2.4756,-2.5028,-2.5057,-2.543,-2.5606,-2.5615,-2.5615,-2.5615,-2.5615,-2.5615,-2.5615,-2.5557,-2.4687,-2.4316,-2.4326,-2.4346,-2.4355,-2.4355,-2.4355,-2.4355,-2.4355,0.0,0.0,0.0,0.0,0.0,0.0,0.0,0.0,0.0,0.0,0.0,0.0,0.0,-2.3108,-2.3108,-2.3108,-2.3108,-2.3108,-2.3108,0.0,0.0,0.0,0.0,0.0,0.0,0.0,-2.6025,-2.5004,-2.4,-2.3331,-2.2936,-2.1612,-2.1332,-2.1939,-2.159,-2.145,-2.146,-2.1208,-2.1116,-2.1078,-2.075,-2.0789,0.0,0.0,0.0,0.0,0.0,0.0,0.0,0.0,0.0,0.0,0.0,0.0,0.0,0.0,0.0,0.0,0.0,0.0,0.0,0.0,0.0,0.0,0.0,0.0,0.0,0.0,0.0,0.0,0.0,0.0,0.0,0.0,0.0,0.0,0.0,0.0,0.0,-2.0996,-2.1387,0.0,0.0,-2.2197,-2.2519,-2.3066,-2.3252,-2.3574,-2.4131,-2.4443,-2.4746,-2.5029,-2.5459,-2.5226,-2.4239,-2.559,-2.585,-2.4909,-2.6004,-2.6562,-2.6562,-2.6562,-2.6562,-2.6452,-2.5556,-2.5658,-2.6433,-2.5177,-2.4722,-2.4805,-2.4531,-2.4414,-2.4414,-2.4414,-2.4414,-2.4414,0.0,0.0,0.0,0.0,0.0,0.0,0.0,0.0,0.0,0.0,0.0,-2.3679,-2.3168,-2.3108,-2.3108,-2.3108,-2.3108,-2.3195,-2.3384,0.0,0.0,0.0,0.0,0.0,0.0,-2.6499,-2.6025,-2.5004,-2.4134,-2.3549,-2.3213,-2.2007,-2.1799,-2.2409,-2.2066,-2.1728,-2.1435,-2.1133,-2.0879,-2.0605,-2.0605,-2.0605,-2.0712,0.0,0.0,0.0,0.0,0.0,0.0,0.0,0.0,0.0,0.0,0.0,0.0,0.0,0.0,0.0,0.0,0.0,0.0,0.0,0.0,0.0,0.0,0.0,0.0,0.0,0.0,0.0,0.0,0.0,0.0,0.0,0.0,0.0,0.0,0.0,-2.1504,-2.1609,-2.2041,-2.2471,-2.29,-2.3203,-2.3613,-2.418,-2.4492,-2.4912,-2.5527,-2.5644,-2.5859,-2.6113,-2.6455,-2.5857,-2.4365,-2.5773,-2.5718,-2.4271,-2.5374,-2.5922,-2.5922,-2.5922,-2.5922,-2.5869,-2.489,-2.4996,-2.5807,-2.4695,-2.4344,-2.452,-2.5054,-2.5293,-2.5293,-2.5293,-2.4938,-2.4438,0.0,0.0,0.0,0.0,0.0,0.0,0.0,0.0,0.0,0.0,-2.3138,-2.3138,-2.3108,-2.3108,-2.3108,-2.3108,-2.3108,-2.3346,-2.3966,-2.4519,0.0,0.0,0.0,0.0,-2.6499,-2.6512,-2.605,-2.5028,-2.45,-2.3717,-2.2762,-2.22,-2.1946,-2.1946,-2.1965,-2.1924,-2.1904,-2.1904,-2.1406,-2.0644,-2.0635,-2.0625,-2.0731,0.0,0.0,0.0,0.0,0.0,0.0,0.0,0.0,0.0,0.0,0.0,0.0,0.0,0.0,0.0,0.0,0.0,0.0,0.0,0.0,0.0,0.0,0.0,0.0,0.0,0.0,0.0,0.0,0.0,0.0,0.0,0.0,0.0,-2.1298,-2.165,-2.208,-2.25,-2.2896,-2.3369,-2.3809,-2.4666,-2.5165,-2.5174,-2.5928,-2.6416,-2.6426,-2.6816,-2.699,-2.6948,-2.6948,-2.6243,-2.4691,-2.5111,-2.4602,-2.3154,-2.3601,-2.3822,-2.3822,-2.3822,-2.3822,-2.3822,-2.3766,-2.3766,-2.3853,-2.3395,-2.3255,-2.3603,-2.5951,-2.6858,-2.6858,-2.6858,-2.5947,-2.4499,0.0,0.0,0.0,0.0,0.0,0.0,0.0,0.0,0.0,0.0,-2.3619,-2.3738,-2.3155,-2.3108,-2.3108,-2.3108,-2.3108,-2.3346,-2.3966,0.0,0.0,0.0,0.0,0.0,-2.6499,-2.6889,-2.6593,-2.5576,-2.504,-2.4637,-2.4337,-2.2971,-2.2703,-2.3412,-2.2988,-2.2627,-2.2344,-2.2344,-2.2021,-2.1494,-2.1182,-2.1055,-2.1016,0.0,0.0,0.0,0.0,0.0,0.0,0.0,0.0,0.0,0.0,0.0,0.0,0.0,0.0,0.0,0.0,0.0,0.0,0.0,0.0,0.0,0.0,0.0,0.0,0.0,0.0,0.0,0.0,0.0,0.0,0.0,0.0,-2.2604,-2.2175,-2.2487,-2.2959,-2.3389,-2.4092,-2.4717,-2.5156,-2.5703,-2.6152,-2.6465,-2.6709,-2.6982,-2.7295,-2.7422,-2.7137,-2.6375,-2.6349,-2.5081,-2.253,-2.3679,-2.3507,-2.2063,-2.3223,-2.3822,-2.3822,-2.3822,-2.3822,-2.371,-2.2645,-2.3431,-2.5371,-2.4157,-2.4902,-2.671,-2.4553,-2.3755,-2.3755,-2.3755,-2.3491,-2.2908,0.0,0.0,0.0,0.0,0.0,0.0,0.0,0.0,0.0,0.0,-2.4002,-2.4002,-2.3198,-2.3108,-2.3108,-2.3108,-2.3333,-2.371,-2.4305,0.0,0.0,0.0,0.0,-2.6499,-2.6499,-2.704,-2.678,-2.5717,-2.5413,-2.503,-2.4534,-2.3343,-2.3064,-2.3618,-2.3278,-2.2955,-2.273,-2.273,-2.2637,-2.2373,-2.1902,-2.1512,-2.1161,-2.0947,-2.0772,-2.0673,-2.1231,-2.1413,-2.1479,-2.1886,0.0,0.0,0.0,0.0,0.0,0.0,0.0,0.0,0.0,0.0,0.0,0.0,0.0,0.0,0.0,0.0,0.0,0.0,0.0,0.0,0.0,0.0,0.0,0.0,-2.3237,-2.3676,-2.3803,-2.3906,-2.4111,-2.4551,-2.5205,-2.5791,-2.623,-2.667,-2.7021,-2.7275,-2.7451,-2.7385,-2.7024,-2.7053,-2.6441,-2.5206,-2.5113,-2.3997,-2.1643,-2.242,-2.242,-2.1586,-2.2484,-2.287,-2.287,-2.287,-2.254,0.0,-2.1038,-2.204,-2.4147,-2.3263,-2.4267,0.0,0.0,0.0,0.0,0.0,-2.2112,-2.1947,0.0,0.0,0.0,0.0,0.0,0.0,0.0,0.0,0.0,0.0,0.0,-2.4118,-2.3305,-2.3258,-2.3198,-2.3108,-2.3665,-2.4255,0.0,0.0,0.0,-2.6499,-2.6499,-2.6499,-2.6499,-2.709,-2.6879,-2.5897,-2.575,-2.5204,-2.4272,-2.3458,-2.3091,-2.3091,-2.3091,-2.3091,-2.3091,-2.3091,-2.3091,-2.3062,-2.2691,-2.21,-2.1327,-2.1229,-2.0986,-2.0674,-2.0625,-2.0605,-2.0712,-2.1555,0.0,0.0,0.0,0.0,0.0,0.0,0.0,0.0,0.0,0.0,0.0,0.0,0.0,0.0,0.0,0.0,0.0,0.0,0.0,0.0,0.0,0.0,0.0,0.0,-2.4027,-2.4826,-2.5703,-2.5586,-2.5488,-2.5791,-2.6269,-2.668,-2.7051,-2.748,-2.7682,-2.7515,-2.7854,-2.7394,-2.5936,0.0,0.0,0.0,0.0,-2.3159,-2.1695,-2.1904,-2.1919,-2.1698,-2.1698,-2.1641,-2.1412,-2.1432,-2.0701,-1.9412,-1.9379,-2.0256,-2.1586,-2.1586,-2.2476,-2.4044,-2.6726,-2.6997,-2.548,-2.2645,-2.1586,-2.1365,0.0,0.0,0.0,0.0,0.0,0.0,0.0,0.0,0.0,-2.5287,-2.5175,-2.4894,-2.4147,-2.406,-2.3796,-2.3168,-2.3665,-2.4406,0.0,0.0,-2.6499,-2.6499,-2.6499,-2.6499,-2.6499,-2.7444,-2.7824,-2.7642,-2.6762,-2.6214,-2.5967,-2.4018,-2.3091,-2.3091,-2.3091,-2.3091,-2.3091,-2.3091,-2.3091,-2.3091,-2.3003,-2.2672,-2.2187,-2.1453,-2.1142,-2.1055,-2.0732,-2.0605,-2.0644,-2.0828,-2.1011,-2.1346,-2.2291,0.0,0.0,0.0,0.0,0.0,0.0,0.0,0.0,0.0,0.0,0.0,0.0,0.0,0.0,0.0,0.0,0.0,0.0,0.0,0.0,-2.5011,-2.5323,-2.5732,-2.665,-2.6992,-2.707,-2.6797,-2.7158,-2.7503,-2.7581,-2.792,-2.7665,-2.6488,-2.6508,-2.5882,-2.4322,-2.422,0.0,-2.2089,-2.3545,-2.3633,-2.2083,-2.3618,-2.3769,-2.2518,0.0,0.0,-2.046,-2.0281,-2.0001,-1.97,-1.9466,-2.0256,-2.1586,-2.1586,-2.2476,-2.3877,-2.4433,-2.4488,-2.4044,-2.2251,-2.1586,-2.1365,0.0,0.0,0.0,0.0,0.0,0.0,0.0,0.0,0.0,0.0,-2.596,-2.5673,-2.4922,-2.4509,-2.4147,-2.375,-2.3867,0.0,0.0,-2.5862,-2.6185,-2.6487,-2.6499,-2.6499,-2.6499,-2.7544,-2.784,-2.731,-2.7321,-2.6748,-2.563,-2.4467,-2.3627,-2.3091,-2.3091,-2.3091,-2.3091,-2.3091,-2.3091,-2.3091,-2.3091,-2.2974,-2.2711,-2.2077,-2.157,-2.1161,-2.0977,-2.0752,-2.0605,-2.0605,-2.0895,-2.1375,-2.1849,-2.2366,-2.2739,0.0,0.0,0.0,0.0,0.0,0.0,0.0,0.0,0.0,0.0,0.0,0.0,0.0,0.0,-2.335,0.0,0.0,-2.5049,-2.5928,-2.624,-2.6602,-2.7246,-2.7529,-2.764,-2.7363,-2.7715,-2.7978,-2.7978,-2.8164,-2.8004,-2.7276,-2.6545,-2.5523,-2.4142,-2.4094,-2.3561,-2.2203,-2.3849,-2.4458,-2.3639,-2.3829,-2.3866,-2.3807,-2.3003,-2.2185,-2.1353,-2.1198,-2.0718,-2.0067,-2.0736,-2.1861,-2.3378,-2.4724,-2.5547,-2.6054,-2.6054,-2.4654,-2.254,-2.1038,-2.0479,-2.0364,0.0,0.0,0.0,0.0,0.0,0.0,0.0,0.0,0.0,0.0,-2.6721,-2.6443,-2.5701,-2.5063,-2.4635,0.0,0.0,0.0,0.0,-2.5598,-2.585,-2.6461,-2.6499,-2.6499,-2.6499,-2.7444,-2.7582,-2.6812,-2.7567,-2.6961,-2.5126,-2.4914,-2.4168,-2.3091,-2.3091,-2.3091,-2.3091,-2.3091,-2.3091,-2.3091,-2.3091,-2.3091,-2.3052,-2.2676,-2.2031,-2.1307,-2.122,-2.0947,-2.0605,-2.0605,-2.1116,-2.1735,-2.1735,-2.2291,-2.2798,-2.2067,-2.1842,0.0,0.0,0.0,0.0,0.0,0.0,0.0,0.0,0.0,-2.2978,-2.3374,-2.3818,-2.4375,-2.5068,-2.5635,-2.6133,-2.6572,-2.6924,-2.7295,-2.7725,-2.7836,-2.7836,-2.7836,-2.8086,-2.8291,-2.8291,-2.8369,-2.8301,-2.8022,-2.6965,-2.5796,-2.4515,-2.4588,-2.4037,-2.2766,-2.4333,-2.5061,-2.4709,-2.3802,-2.3774,-2.4647,-2.3663,-2.3021,-2.2729,-2.2946,-2.2385,-2.131,-2.261,-2.3866,-2.5111,-2.7576,-2.8169,-2.7571,-2.786,-2.556,-2.187,-2.0709,-2.009,-1.9815,0.0,0.0,0.0,0.0,0.0,0.0,0.0,0.0,0.0,0.0,0.0,0.0,0.0,0.0,0.0,0.0,0.0,0.0,-2.5523,-2.5598,-2.585,-2.6461,-2.6499,-2.6499,-2.6499,-2.709,-2.7571,-2.7914,-2.7555,-2.7039,-2.6307,-2.5252,-2.4168,-2.3091,-2.3091,-2.3091,-2.3091,-2.3091,-2.3091,-2.3091,-2.3091,-2.3091,-2.3052,-2.2676,-2.2217,-2.1768,-2.1337,-2.0947,-2.0605,-2.0605,-2.0673,-2.075,-2.075,-2.0828,-2.0975,-2.1234,0.0,-2.136,-2.1672,-2.1777,-2.1826,-2.1875,-2.2441,-2.2998,0.0,0.0,-2.4219,-2.4268,-2.4941,-2.5499,-2.5596,-2.6328,-2.7021,-2.7503,-2.7611,-2.7734,-2.8164,-2.8223,-2.8223,-2.8223,-2.8262,-2.8291,-2.8291,-2.8633,-2.8291,-2.6994,-2.7089,-2.654,-2.5069,-2.5011,-2.4345,-2.2766,-2.4574,-2.4854,-2.3316,-2.4867,-2.5019,-2.3763,-2.5027,-2.4844,-2.3516,-2.4631,-2.5076,-2.4882,-2.4859,-2.4903,-2.5186,-2.6839,-2.6477,-2.5046,-2.6363,-2.5529,-2.3543,-2.3375,-2.2484,-2.1145,0.0,0.0,0.0,0.0,0.0,0.0,0.0,0.0,0.0,0.0,0.0,0.0,0.0,0.0,0.0,0.0,0.0,0.0,-2.4619,-2.4971,-2.5385,-2.5971,-2.6311,-2.6499,-2.6499,-2.704,-2.7394,-2.762,-2.7148,-2.6566,-2.5954,-2.4929,-2.3965,-2.3091,-2.3091,-2.3091,-2.3091,-2.3091,-2.3091,-2.3071,-2.2828,-2.273,-2.2734,-2.2305,-2.1885,-2.1514,-2.1592,-2.1162,0.0,0.0,-2.0781,-2.0644,-2.0869,-2.1361,-2.1784,-2.1637,-2.1988,0.0,-2.2286,-2.2617,0.0,0.0,-2.3437,-2.3842,-2.3887,-2.4365,-2.4863,-2.5127,-2.5684,-2.6269,-2.6768,-2.7148,-2.7529,0.0,-2.8027,-2.8096,-2.8271,-2.8291,-2.8291,-2.8291,-2.8506,-2.8662,-2.8662,-2.8818,-2.8739,-2.8415,-2.7722,-2.6694,-2.5318,-2.5267,-2.4663,-2.3277,-2.4903,-2.552,-2.4801,-2.5598,-2.568,-2.5016,-2.568,-2.5619,-2.5016,-2.5525,-2.6294,-2.719,-2.7092,-2.7427,-2.8097,-2.8756,-2.8398,-2.7453,-2.7049,-2.5913,-2.44,-2.3979,-2.287,-2.1529,0.0,0.0,0.0,0.0,0.0,0.0,0.0,0.0,0.0,0.0,0.0,0.0,0.0,0.0,0.0,0.0,0.0,0.0,0.0,-2.4368,-2.4895,-2.5573,-2.6034,-2.6336,-2.6499,-2.6889,-2.7165,-2.7281,-2.6663,-2.6068,-2.5389,-2.4435,-2.3576,-2.275,-2.275,-2.275,-2.275,-2.275,-2.275,-2.2721,-2.2461,-2.2344,-2.2295,-2.1865,-2.1666,-2.161,-2.1663,-2.1221,0.0,0.0,-2.0918,-2.081,-2.1093,-2.181,-2.241,-2.2162,-2.273,-2.3399,-2.3116,0.0,0.0,-2.3965,-2.4287,-2.4629,-2.4746,-2.5117,-2.5557,-2.5996,-2.6435,-2.6934,-2.7601,-2.7816,0.0,-2.8242,-2.8291,-2.8291,-2.8291,-2.8291,-2.8291,-2.8291,-2.8662,-2.8965,-2.9082,-2.8802,-2.8716,-2.9078,-2.7737,-2.6503,-2.5563,-2.558,-2.4988,-2.3628,-2.5138,-2.5802,-2.5314,-2.5802,-2.5976,-2.5976,-2.6461,-2.6651,-2.6712,-2.7142,-2.8,-2.9098,-2.9098,-2.9587,-3.0391,-3.0391,-2.9899,-2.8984,-2.776,-2.6282,-2.4779,-2.426,-2.2816,-2.1089,0.0,0.0,0.0,0.0,0.0,0.0,0.0,0.0,0.0,0.0,0.0,0.0,0.0,0.0,0.0,0.0,0.0,0.0,0.0,-2.4017,-2.4494,-2.5548,-2.5611,-2.5921,-2.6487,-2.6512,-2.6788,-2.7281,-2.6287,-2.5543,-2.4988,-2.3992,-2.295,-2.1924,-2.1924,-2.1924,-2.1924,-2.1924,-2.1924,-2.1924,-2.1904,-2.1904,-2.1855,-2.1416,-2.1809,-2.2546,-2.159,0.0,0.0,0.0,-2.0869,-2.1181,-2.119,-2.1523,0.0,-2.2363,-2.312,-2.3863,0.0,0.0,-2.4394,-2.4394,-2.4727,-2.5166,-2.5547,-2.6035,-2.6465,-2.6894,-2.7324,-2.7689,-2.7718,-2.7998,-2.8281,-2.8291,-2.8291,-2.8291,-2.8291,-2.8291,-2.8291,-2.8291,-2.8662,-2.9082,0.0,-2.8518,-2.7813,-2.7822,-2.6722,-2.6012,-2.596,-2.596,-2.5245,-2.3628,-2.5138,-2.5253,-2.3698,-2.52,-2.5976,-2.6037,-2.7563,-2.8358,-2.8358,-3.002,-3.0762,-3.083,-3.083,-3.082,-3.0869,-3.0869,-2.9696,-2.7822,-2.7822,-2.6516,-2.4728,-2.4704,-2.2634,-1.9805,0.0,0.0,0.0,0.0,0.0,0.0,0.0,0.0,0.0,0.0,0.0,0.0,0.0,0.0,0.0,0.0,0.0,0.0,0.0,-2.3791,-2.4155,-2.4519,-2.5222,-2.5686,-2.5921,-2.6298,-2.6587,-2.6776,-2.5766,-2.4993,-2.4435,-2.342,-2.2592,-2.1885,-2.1885,-2.1885,-2.1885,-2.1885,-2.1885,-2.1865,-2.1572,-2.1455,-2.1406,-2.0957,-2.1016,-2.127,0.0,0.0,0.0,0.0,-2.1073,-2.1249,-2.1582,-2.1963,-2.2441,-2.3154,-2.3965,-2.4609,0.0,0.0,-2.5225,-2.4922,-2.54,-2.5986,-2.6133,-2.6494,-2.6924,-2.7363,-2.7568,-2.7806,-2.8027,-2.8193,-2.8291,-2.8291,-2.8291,-2.8291,-2.8291,-2.8291,-2.8291,-2.8291,-2.8916,0.0,0.0,0.0,0.0,-2.8201,-2.6824,-2.5976,-2.5976,-2.5976,-2.5733,-2.52,-2.5741,-2.5741,-2.52,-2.6772,-2.7563,-2.7623,-2.9285,-3.0079,-3.0089,-3.0645,-3.0889,-3.0889,-3.0889,-3.0889,-3.0889,-3.0889,-3.05,-2.9753,-2.865,-2.7113,-2.5408,-2.4113,-2.2246,-2.0517,0.0,0.0,0.0,0.0,0.0,0.0,0.0,0.0,0.0,0.0,0.0,0.0,0.0,0.0,0.0,0.0,0.0,0.0,0.0,0.0,-2.3778,-2.3991,-2.4657,-2.5121,-2.531,-2.5862,-2.6185,-2.6185,-2.5379,-2.4811,-2.4454,-2.3091,-2.2267,-2.191,-2.1608,-2.1456,-2.1456,-2.1456,-2.1456,-2.1387,-2.1113,-2.0996,-2.0967,-2.0713,-2.0828,0.0,0.0,0.0,0.0,0.0,-2.1211,-2.1514,-2.1797,-2.2383,-2.3105,-2.3809,-2.4512,-2.5086,-2.4922,-2.5255,-2.5654,-2.5576,-2.5967,-2.6465,-2.6777,-2.7051,-2.7373,-2.7803,-2.7891,-2.7969,-2.8242,-2.8291,-2.8291,-2.8291,-2.8291,-2.8291,-2.8291,-2.8291,-2.8291,-2.8291,-2.9053,0.0,0.0,0.0,0.0,-2.7545,-2.6045,-2.5138,-2.5138,-2.5138,-2.5383,-2.5976,-2.6582,-2.6832,-2.6832,-2.8486,-2.9285,-2.9285,-3.0401,-3.0889,-3.0889,-3.0889,-3.0889,-3.0889,-3.0889,-3.0889,-3.0889,-3.0889,-3.0518,-2.9903,-2.8842,-2.7443,-2.583,-2.4587,-2.3482,-2.2519,0.0,0.0,0.0,0.0,0.0,0.0,0.0,0.0,0.0,0.0,0.0,0.0,0.0,0.0,0.0,0.0,0.0,0.0,0.0,0.0,0.0,-2.3929,-2.3979,-2.4243,-2.4738,-2.5285,-2.5548,-2.5548,-2.5196,-2.5004,-2.4933,-2.2988,-2.2027,-2.1952,-2.1011,-2.0605,-2.0605,-2.0634,-2.0673,-2.0683,-2.0712,-2.0712,-2.0683,-2.0712,0.0,0.0,0.0,0.0,0.0,0.0,0.0,0.0,0.0,-2.2812,-2.3896,-2.4297,-2.4746,-2.5195,-2.5625,-2.5703,-2.582,-2.6289,-2.6426,-2.667,-2.7532,-2.7738,-2.7865,-2.8213,-2.8291,-2.8291,0.0,0.0,-2.8291,-2.8291,-2.8291,-2.8291,-2.8291,-2.8291,-2.8291,0.0,0.0,0.0,0.0,0.0,0.0,-2.6098,0.0,-2.3574,-2.369,-2.369,-2.4479,-2.6219,-2.7751,-2.8536,-2.8536,-3.0089,-3.0889,-3.0889,-3.0889,-3.0889,-3.0889,-3.0889,-3.0889,-3.0889,-3.0889,-3.0889,-3.0889,-3.0889,-2.9962,-2.8536,-2.8536,-2.7563,-2.6098,-2.6098,-2.6037,-2.5453,0.0,0.0,0.0,0.0,0.0,0.0,0.0,0.0,0.0,0.0,0.0,0.0,0.0,0.0,0.0,0.0,0.0,0.0,0.0,0.0,0.0,0.0,0.0,0.0,0.0,0.0,0.0,-2.4988,-2.5303,-2.5088,-2.4399,-2.3528,-2.2739,-2.1952,-2.1011,-2.0605,-2.0644,-2.1336,-2.1621,-2.1697,0.0,-2.2301,-2.1735,0.0,0.0,0.0,0.0,0.0,0.0,0.0,0.0,0.0,0.0,-2.3477,-2.4277,-2.4385,-2.4961,-2.5596,-2.5654,-2.5977,-2.625,-2.6357,-2.6875,-2.7454,-2.7669,-2.791,-2.8164,-2.8271,-2.8291,-2.8291,0.0,0.0,0.0,-2.8291,-2.8291,0.0,-2.8291,-2.8291,0.0,0.0,0.0,-2.9626,-2.9626,-2.9642,0.0,0.0,-2.4039,-2.2827,-2.5261,-2.5383,-2.672,-2.953,-3.003,-3.0265,-3.0265,-3.0704,-3.0889,-3.0889,-3.0889,-3.0889,-3.0889,-3.0889,-3.0889,-3.0889,-3.0889,-3.0889,-3.0889,-3.0889,-3.0645,-3.0265,-3.0265,-2.9226,-2.7811,-2.7811,-2.7013,-2.583,0.0,0.0,0.0,0.0,0.0,0.0,0.0,0.0,0.0,0.0,0.0,0.0,0.0,0.0,0.0,0.0,0.0,0.0,0.0,0.0,0.0,0.0,0.0,0.0,0.0,0.0,0.0,0.0,0.0,0.0,-2.4451,-2.4015,-2.3525,-2.2911,-2.2206,-2.1859,-2.1897,-2.244,0.0,0.0,0.0,0.0,0.0,0.0,0.0,0.0,0.0,0.0,0.0,0.0,0.0,-2.3255,-2.2925,-2.3447,-2.418,-2.4365,0.0,-2.5488,-2.5635,-2.5869,-2.6191,-2.6572,-2.7031,-2.748,-2.7861,-2.8125,-2.8242,-2.8057,-2.8018,0.0,0.0,0.0,0.0,0.0,0.0,0.0,-2.8291,-2.8291,-2.8291,0.0,-2.9053,0.0,-2.9626,-2.9699,-2.9403,0.0,-2.5192,-2.434,-2.6893,-2.6401,-2.7512,-3.0772,-3.0889,-3.0889,-3.0889,-3.0889,-3.0889,-3.0889,-3.0889,-3.0889,-3.0889,-3.0889,-3.0889,-3.0889,0.0,-3.0889,-3.0889,-3.0889,-3.0889,-3.0889,-3.0889,-3.0333,-2.9403,-2.8664,-2.7811,-2.6832,0.0,0.0,0.0,0.0,0.0,0.0,0.0,0.0,0.0,0.0,0.0,0.0,0.0,0.0,0.0,0.0,0.0,0.0,0.0,0.0,0.0,0.0,0.0,0.0,0.0,0.0,0.0,0.0,0.0,0.0,0.0,0.0,0.0,0.0,0.0,0.0,0.0,0.0,0.0,0.0,0.0,0.0,0.0,0.0,0.0,0.0,0.0,0.0,0.0,0.0,-2.23,-2.3214,-2.269,-2.3096,-2.3867,-2.4287,-2.4727,-2.5166,-2.5567,-2.5732,-2.5947,-2.6748,-2.6973,-2.7217,-2.7959,-2.8125,-2.8018,-2.7656,0.0,-2.763,-2.763,0.0,-2.7715,-2.8135,0.0,-2.8232,-2.8281,-2.8291,-2.8291,-2.8291,-2.8994,-2.9502,-2.956,-2.9036,-2.866,-2.8724,-2.7263,-2.6953,-2.8358,-2.7073,-2.7751,-3.082,-3.0889,-3.0889,-3.0889,-3.0889,-3.0889,-3.0889,-3.0889,-3.0889,-3.0889,-3.0889,-3.0889,-3.0889,0.0,0.0,-3.0889,-3.0889,-3.0889,-3.0889,-3.0889,-3.0889,-3.0704,-2.9039,-2.8417,-2.8,0.0,0.0,0.0,0.0,0.0,0.0,0.0,0.0,0.0,0.0,-2.5959,0.0,0.0,0.0,0.0,0.0,0.0,0.0,0.0,0.0,0.0,0.0,0.0,0.0,0.0,0.0,0.0,0.0,0.0,0.0,0.0,0.0,0.0,0.0,0.0,0.0,0.0,0.0,0.0,0.0,0.0,0.0,0.0,0.0,0.0,0.0,0.0,0.0,0.0,0.0,-2.3174,-2.3214,-2.269,-2.3096,-2.3867,-2.4287,-2.4727,-2.5166,-2.5567,-2.5996,-2.6309,-2.6465,-2.6758,-2.7051,-2.7197,-2.7236,0.0,0.0,0.0,-2.7129,-2.7129,-2.7129,0.0,-2.7705,0.0,0.0,0.0,0.0,-2.8291,0.0,0.0,0.0,0.0,0.0,0.0,0.0,0.0,0.0,-2.8358,-2.811,-2.8852,-3.083,-3.0889,-3.0889,-3.0889,-3.0889,-3.0889,-3.0889,-3.0889,-3.0889,-3.0889,-3.0889,-3.0889,-3.0889,0.0,0.0,-3.0889,-3.0889,-3.0889,-3.0889,-3.0889,-3.0889,-3.0704,-2.9039,-2.8417,-2.8119,0.0,0.0,0.0,0.0,0.0,0.0,0.0,0.0,0.0,0.0,-2.4792,-2.4822,0.0,0.0,0.0,0.0,0.0,0.0,0.0,0.0,0.0,0.0,0.0,0.0,0.0,0.0,0.0,0.0,0.0,0.0,0.0,0.0,0.0,0.0,0.0,0.0,0.0,0.0,0.0,0.0,0.0,0.0,0.0,0.0,0.0,0.0,0.0,0.0,0.0,0.0,-2.3167,-2.3681,-2.3094,-2.3013,-2.3252,-2.3906,-2.4394,-2.4824,-2.5273,-2.5713,-2.6103,-2.6328,-2.6543,-2.6748,-2.6963,0.0,0.0,0.0,0.0,-2.6689,-2.6689,0.0,0.0,0.0,0.0,0.0,0.0,0.0,0.0,0.0,0.0,0.0,0.0,0.0,0.0,0.0,0.0,0.0,-2.9717,-2.9717,-3.0089,-3.0889,-3.0889,-3.0889,-3.0889,-3.0889,-3.0889,-3.0889,-3.0889,-3.0889,-3.0889,-3.0889,-3.0889,-3.0889,-3.0889,0.0,-3.0889,-3.0889,-3.0889,-3.0889,-3.0889,-3.0889,-3.0704,-2.9039,-2.7871,-2.6893,0.0,0.0,0.0,0.0,0.0,0.0,0.0,-2.5277,-2.4545,-2.4395,-2.3939,-2.3999,-2.5061,-2.5184,-2.489,0.0,0.0,0.0,0.0,0.0,0.0,0.0,0.0,0.0,0.0,0.0,0.0,0.0,0.0,0.0,0.0,0.0,0.0,0.0,0.0,0.0,0.0,0.0,0.0,0.0,0.0,0.0,0.0,0.0,0.0,0.0,0.0,0.0,0.0,0.0,-2.28,-2.3389,-2.3237,-2.3033,-2.2965,-2.3624,-2.4023,-2.4394,-2.4969,-2.5322,-2.5693,-2.6143,-2.625,-2.6338,-2.667,-2.667,0.0,0.0,-2.6025,-2.5967,-2.5967,0.0,0.0,0.0,0.0,0.0,0.0,0.0,0.0,0.0,0.0,0.0,0.0,0.0,0.0,0.0,0.0,0.0,-3.0889,-3.0889,-3.0889,-3.0889,-3.0889,-3.0889,-3.0889,-3.0889,-3.0889,-3.0889,-3.0889,-3.0889,-3.0889,-3.0889,-3.0889,-3.0889,-3.0889,0.0,0.0,-3.0889,-3.0889,-3.0889,-3.0889,-3.0889,-3.0704,-2.9039,-2.7623,-2.6288,0.0,0.0,0.0,0.0,0.0,0.0,0.0,-2.4679,-2.438,-2.3774,-2.364,-2.3655,-2.3774,-2.3847,-2.3574,0.0,0.0,0.0,0.0,0.0,0.0,0.0,0.0,0.0,0.0,0.0,0.0,0.0,0.0,0.0,0.0,0.0,0.0,0.0,0.0,0.0,0.0,0.0,0.0,0.0,0.0,0.0,0.0,0.0,0.0,0.0,0.0,0.0,0.0,0.0,0.0,-2.1151,-2.2385,-2.3262,-2.3834,-2.3792,0.0,0.0,-2.4891,-2.5145,-2.5234,-2.5684,-2.5742,-2.5762,-2.5801,0.0,0.0,-2.5243,-2.4873,-2.46,-2.46,-2.4922,0.0,0.0,0.0,0.0,0.0,0.0,0.0,0.0,0.0,0.0,0.0,0.0,0.0,0.0,0.0,0.0,0.0,-3.0889,-3.0889,-3.0889,-3.0889,-3.0889,-3.0889,-3.0889,-3.0889,-3.0889,-3.0889,-3.0889,-3.0889,-3.0889,-3.0889,-3.0889,0.0,0.0,0.0,-3.0889,-3.0889,-3.0889,-3.0889,-3.0889,-3.0704,-2.9039,-2.8298,-2.7931,0.0,0.0,0.0,0.0,0.0,0.0,0.0,-2.4261,-2.3909,-2.3625,-2.3595,-2.3595,-2.3595,-2.331,-2.2976,0.0,0.0,0.0,0.0,0.0,0.0,0.0,0.0,0.0,0.0,0.0,0.0,0.0,0.0,0.0,0.0,0.0,0.0,0.0,0.0,0.0,0.0,0.0,0.0,0.0,0.0,0.0,0.0,0.0,0.0,0.0,0.0,0.0,0.0,0.0,0.0,0.0,-2.1924,-2.2459,0.0,0.0,-2.3389,-2.3867,-2.4209,-2.4482,-2.4717,-2.4902,-2.4894,-2.4894,-2.4894,0.0,0.0,-2.4678,-2.4531,-2.4414,-2.4414,-2.4775,-2.5174,0.0,0.0,0.0,0.0,0.0,0.0,0.0,0.0,0.0,0.0,0.0,0.0,0.0,0.0,0.0,0.0,-3.0889,-3.0889,-3.0889,-3.0889,-3.0889,-3.0889,-3.0889,-3.0889,-3.0889,-3.0889,-3.0889,-3.0889,-3.0889,-3.0889,-3.0889,0.0,0.0,0.0,-3.0889,-3.0889,-3.0889,-3.0889,-3.0889,-3.083,-3.0147,-2.9285,-2.8298,0.0,0.0,0.0,0.0,0.0,0.0,-2.4335,-2.3909,-2.3595,-2.3595,-2.3595,-2.3595,-2.3595,-2.3054,-2.2626,-2.2429,0.0,0.0,0.0,0.0,0.0,0.0,0.0,0.0,0.0,0.0,0.0,0.0,0.0,0.0,0.0,0.0,0.0,0.0,0.0,0.0,0.0,0.0,0.0,0.0,0.0,0.0,0.0,0.0,0.0,0.0,0.0,0.0,0.0,0.0,0.0,0.0,0.0,0.0,0.0,0.0,-2.2939,-2.3467,-2.3721,-2.4004,-2.4258,-2.4385,-2.4414,-2.4414,0.0,0.0,0.0,-2.4228,-2.4131,-2.4043,-2.4043,-2.4394,-2.4727,-2.4853,0.0,-2.6728,0.0,0.0,0.0,0.0,0.0,0.0,0.0,0.0,0.0,0.0,0.0,0.0,0.0,-3.0889,-3.0889,-3.0889,-3.0889,-3.0889,-3.0889,-3.0889,-3.0889,-3.0889,-3.0889,-3.0889,-3.0889,-3.0889,-3.0889,-3.0889,0.0,0.0,0.0,-3.0889,-3.0889,-3.0889,-3.0889,-3.0889,-3.0889,-3.0889,-3.0147,-2.9157,0.0,0.0,0.0,0.0,0.0,0.0,0.0,-2.3595,-2.3595,-2.3595,-2.3595,-2.3595,-2.3595,-2.3054,-2.2429,-2.1781,0.0,0.0,0.0,0.0,0.0,0.0,0.0,0.0,0.0,0.0,0.0,-2.3108,-2.3108,0.0,0.0,0.0,0.0,0.0,0.0,0.0,0.0,0.0,0.0,0.0,0.0,0.0,0.0,0.0,0.0,0.0,0.0,0.0,0.0,0.0,0.0,0.0,0.0,0.0,0.0,0.0,-2.2519,-2.2705,-2.3555,-2.3799,-2.3896,-2.4316,-2.4414,-2.4414,0.0,0.0,0.0,-2.3799,-2.3457,-2.311,-2.311,-2.3516,-2.3935,-2.4355,-2.5118,0.0,0.0,0.0,0.0,0.0,0.0,0.0,0.0,0.0,0.0,0.0,0.0,0.0,0.0,-3.0889,-3.0889,-3.0889,-3.0889,-3.0889,-3.0889,-3.0889,-3.0889,-3.0889,-3.0889,-3.0889,-3.0889,-3.0889,-3.0889,0.0,0.0,0.0,0.0,-3.0889,-3.0889,-3.0889,-3.0889,-3.0889,-3.0889,-3.0889,-3.0889,-3.0889,0.0,0.0,0.0,0.0,0.0,0.0,0.0,-2.3595,-2.3595,-2.3595,-2.3595,-2.3595,-2.3595,-2.3054,-2.2429,-2.1758,0.0,0.0,0.0,0.0,0.0,0.0,0.0,0.0,0.0,0.0,-2.2397,-2.2543,-2.292,-2.2823,-2.2292,0.0,0.0,0.0,0.0,0.0,0.0,0.0,0.0,0.0,0.0,0.0,0.0,0.0,0.0,0.0,0.0,0.0,0.0,0.0,0.0,0.0,0.0,0.0,0.0,-2.1434,0.0,0.0,-2.2764,-2.292,-2.3018,-2.3393,-2.35,-2.35,-2.35,0.0,0.0,-2.3305,-2.3188,-2.3091,-2.3091,-2.3496,-2.3926,-2.4346,-2.5109,0.0,0.0,0.0,0.0,0.0,0.0,0.0,0.0,0.0,0.0,0.0,0.0,0.0,0.0,-3.0889,-3.0889,-3.0889,-3.0889,-3.0889,-3.0889,-3.0889,-3.0889,-3.0889,-3.0889,-3.0889,-3.0889,-3.0889,0.0,0.0,0.0,0.0,0.0,-3.0889,-3.0889,-3.0889,-3.0889,-3.0889,-3.0889,-3.0889,-3.0889,-3.0889,0.0,0.0,0.0,0.0,0.0,0.0,0.0,-2.3595,-2.3595,-2.3595,-2.3595,-2.3508,-2.329,-2.2703,-2.2053,-2.1414,0.0,0.0,0.0,0.0,0.0,0.0,0.0,0.0,0.0,-2.1719,-2.2108,-2.2309,-2.2832,-2.2854,-2.2353,-2.2537,-2.2094,0.0,0.0,0.0,0.0,0.0,0.0,0.0,0.0,0.0,-1.8797,0.0,0.0,0.0,0.0,0.0,0.0,0.0,0.0,0.0,0.0,0.0,0.0,0.0,-2.1172,0.0,0.0,-2.2275,-2.2344,-2.2555,-2.274,0.0,0.0,0.0,0.0,-2.3091,-2.3091,-2.3091,-2.3091,-2.3315,-2.374,-2.4316,-2.4883,0.0,0.0,0.0,0.0,0.0,0.0,0.0,0.0,0.0,0.0,0.0,0.0,0.0,0.0,0.0,-3.0889,-3.0889,-3.0889,-3.0889,-3.0889,-3.0889,-3.0889,-3.0889,-3.0889,-3.0889,-3.0889,-3.0889,0.0,0.0,0.0,0.0,0.0,-3.0889,-3.0889,-3.0889,-3.0889,-3.0889,-3.0889,-3.0889,-3.0889,-3.0889,0.0,0.0,0.0,0.0,0.0,0.0,0.0,0.0,0.0,0.0,-2.3595,-2.3377,-2.2777,-2.21,-2.1448,0.0,0.0,0.0,0.0,0.0,0.0,0.0,0.0,0.0,0.0,-2.1207,-2.1744,-2.2246,-2.2747,-2.2975,-2.2914,-2.2156,-2.1753,-2.1585,-2.091,-2.0107,-1.9243,-1.8428,-1.8529,-1.9144,-1.8337,-1.8208,0.0,0.0,0.0,0.0,0.0,0.0,0.0,0.0,0.0,0.0,0.0,0.0,0.0,0.0,0.0,0.0,0.0,0.0,0.0,0.0,0.0,0.0,0.0,0.0,0.0,0.0,0.0,0.0,-2.3091,-2.312,-2.3413,-2.4277,0.0,0.0,0.0,0.0,0.0,0.0,0.0,0.0,0.0,0.0,0.0,0.0,0.0,0.0,0.0,0.0,-3.0859,-3.0889,-3.0889,-3.0889,-3.0889,-3.0889,-3.0889,-3.0889,-3.0889,-3.0889,-3.0889,-3.0889,0.0,0.0,0.0,0.0,0.0,-3.0889,-3.0889,-3.0889,-3.0889,-3.0889,-3.0889,-3.0889,-3.0889,-3.0889,0.0,0.0,0.0,0.0,0.0,0.0,0.0,0.0,0.0,0.0,-2.3595,-2.3377,-2.2777,-2.21,-2.1448,0.0,0.0,0.0,0.0,0.0,0.0,0.0,0.0,0.0,0.0,-2.0978,-2.1556,-2.1681,-2.2012,-2.1834,-2.1195,-2.1005,-2.0204,-1.8977,-2.0107,-2.0107,-1.9299,-1.9077,-1.8721,-1.8303,-1.8076,-1.8066,0.0,0.0,0.0,0.0,-1.964,-1.998,0.0,0.0,0.0,0.0,0.0,0.0,0.0,0.0,-2.0605,-2.0644,-2.086,0.0,-2.1465,-2.1807,-2.1963,0.0,0.0,0.0,0.0,0.0,0.0,0.0,0.0,0.0,0.0,0.0,0.0,0.0,0.0,0.0,0.0,0.0,0.0,0.0,0.0,0.0,0.0,0.0,0.0,0.0,0.0,0.0,-3.0518,-3.0879,-3.0889,-3.0889,-3.0889,-3.0889,-3.0889,-3.0889,-3.0889,-3.0889,-3.0889,-3.0889,0.0,0.0,0.0,0.0,-3.0889,-3.0889,-3.0889,-3.0889,-3.0889,-3.0889,-3.0889,-3.0889,-3.0889,-3.0889,0.0,0.0,0.0,0.0,0.0,0.0,0.0,0.0,0.0,0.0,0.0,0.0,0.0,0.0,0.0,0.0,0.0,0.0,0.0,0.0,0.0,0.0,0.0,0.0,-1.9798,-2.0903,-2.1313,-2.0909,-2.1578,-2.1459,-2.059,-2.0204,-1.9497,-1.862,-1.9166,-1.9144,-1.8687,-1.8687,-1.8428,-1.8008,-1.8008,0.0,0.0,0.0,0.0,0.0,-1.9394,-1.9746,0.0,-2.0458,-2.0605,-2.0605,0.0,0.0,0.0,0.0,-2.0605,-2.0605,-2.0605,-2.0742,-2.0986,-2.1221,-2.1435,-2.165,0.0,0.0,0.0,0.0,0.0,0.0,0.0,0.0,0.0,0.0,0.0,0.0,0.0,0.0,0.0,0.0,0.0,0.0,0.0,0.0,0.0,0.0,0.0,0.0,0.0,0.0,-3.0019,-3.0273,-3.0283,-3.0478,-3.0889,-3.0889,-3.0889,-3.0889,-3.0889,-3.0889,-3.0889,-3.0889,0.0,0.0,0.0,0.0,-3.0889,-3.0889,-3.0889,-3.0889,-3.0889,-3.0762,-3.0576,-3.0576,-3.0449,-3.0283,0.0,0.0,0.0,0.0,0.0,0.0,0.0,0.0,0.0,0.0,0.0,0.0,0.0,0.0,0.0,0.0,0.0,0.0,0.0,0.0,0.0,0.0,0.0,-1.9798,-1.9798,-2.0903,-2.1063,-2.0197,-2.1202,-2.127,-2.0365,-1.9529,-1.911,-1.9077,-1.8337,-1.8008,-1.8008,-1.8008,-1.8008,-1.8008,-1.8008,0.0,0.0,0.0,0.0,0.0,0.0,0.0,0.0,-2.0361,-2.0546,-2.0605,-2.0605,0.0,0.0,0.0,0.0,0.0,-2.0605,-2.0605,-2.0605,-2.0605,-2.085,-2.1112,-2.1181,0.0,0.0,0.0,0.0,0.0,0.0,0.0,0.0,0.0,0.0,0.0,0.0,0.0,0.0,0.0,0.0,0.0,0.0,0.0,0.0,0.0,0.0,0.0,0.0,0.0,0.0,-2.9626,-2.9626,-2.9932,-3.0684,-3.0693,-3.0723,-3.0781,-3.0781,-3.082,-3.0889,-3.0889,-3.0889,0.0,0.0,0.0,-3.0781,-3.0723,-3.0693,-3.0693,-3.0693,-3.0449,-3.0098,-3.0098,-2.9873,-2.9616,0.0,0.0,0.0,0.0,0.0,0.0,0.0,0.0,0.0,0.0,0.0,0.0,0.0,0.0,0.0,0.0,0.0,0.0,0.0,0.0,0.0,0.0,-1.9798,-1.9798,-1.9798,-2.0903,-2.1063,-2.0197,-2.0595,-2.0365,-1.9464,-1.863,-1.8202,-1.8202,-1.8076,-1.8008,-1.8008,-1.8008,-1.8008,-1.8008,-1.8008,0.0,0.0,0.0,0.0,0.0,0.0,0.0,0.0,-1.9873,-2.0254,-2.0605,-2.0605,0.0,0.0,0.0,0.0,0.0,-2.0605,-2.0605,-2.0605,-2.0605,-2.0654,-2.0762,-2.1103,0.0,0.0,0.0,0.0,0.0,0.0,0.0,0.0,0.0,0.0,0.0,0.0,0.0,0.0,0.0,0.0,0.0,0.0,0.0,0.0,0.0,0.0,0.0,0.0,0.0,0.0,-2.9616,-2.9626,-2.9629,-2.9832,-2.9832,-2.9951,-3.0303,-3.0303,-3.0508,-3.0889,-3.0889,-3.0889,0.0,0.0,-3.0303,-3.0273,-2.9922,-2.9832,-2.9832,-2.9832,-2.9792,-2.9668,-2.9668,-2.9629,-2.9512,0.0,0.0,0.0,0.0,0.0,0.0,0.0,0.0,0.0,0.0,0.0,0.0,0.0,0.0,0.0,0.0,0.0,0.0,0.0,0.0,0.0,-1.9798,-1.9654,-1.9814,-2.0275,-2.0628,-2.0526,-1.9998,-1.9916,-1.9464,-1.8596,-1.8202,-1.8008,-1.8008,-1.8008,-1.8008,-1.8008,-1.8008,-1.8008,-1.8008,0.0,0.0,0.0,0.0,0.0,0.0,0.0,0.0,0.0,0.0,-2.0205,-2.0605,-2.0605,0.0,0.0,0.0,0.0,0.0,-2.0605,-2.0605,-2.0605,-2.0605,-2.0752,-2.0986,-2.1151,0.0,0.0,0.0,0.0,0.0,0.0,0.0,0.0,0.0,0.0,0.0,0.0,0.0,0.0,0.0,0.0,0.0,0.0,0.0,0.0,0.0,0.0,0.0,0.0,0.0,0.0,0.0,-2.8877,-2.8877,-2.8877,-2.8877,-2.9209,-2.9863,-2.9863,-2.9971,-3.0176,-3.0176,-3.0176,-3.0166,0.0,-2.9863,-2.9844,-2.9704,-2.9626,-2.9626,-2.9626,-2.9434,-2.9189,-2.8965,-2.8877,-2.8848,0.0,0.0,0.0,0.0,0.0,0.0,0.0,0.0,0.0,0.0,0.0,0.0,0.0,0.0,0.0,0.0,0.0,0.0,0.0,0.0,-1.9771,-1.9713,-1.9516,-1.9705,-2.037,-2.0199,-1.9881,-1.9489,-1.9361,-1.8854,-1.8008,-1.8008,-1.8008,-1.8008,-1.8008,-1.8008,-1.8008,-1.8008,-1.8008,-1.8008,0.0,0.0,0.0,0.0,0.0,0.0,0.0,0.0,0.0,0.0,0.0,0.0,0.0,0.0,0.0,-2.0605,-2.0605,-2.0605,-2.0605,-2.0605,-2.0605,-2.0605,0.0,-2.119,-2.119,0.0,0.0,0.0,0.0,0.0,0.0,0.0,0.0,0.0,0.0,0.0,0.0,0.0,0.0,0.0,0.0,0.0,0.0,0.0,0.0,0.0,0.0,0.0,0.0,0.0,0.0,0.0,-2.8291,-2.8291,-2.8291,-2.8291,-2.8672,-2.9414,-2.9414,-2.9473,-2.9626,-2.9626,-2.9626,-2.956,-2.9463,-2.9414,-2.9414,-2.9316,-2.9323,-2.9323,-2.9323,-2.9072,-2.873,-2.8408,-2.8291,-2.8291,0.0,0.0,0.0,0.0,0.0,0.0,0.0,0.0,0.0,0.0,0.0,0.0,0.0,0.0,0.0,0.0,0.0,0.0,0.0,0.0,-1.9684,-1.9428,-1.9404,-1.9428,-1.9483,-1.965,-1.9361,-1.8585,-1.9078,-1.8854,-1.8008,-1.8008,-1.8008,-1.8008,-1.8008,-1.8008,-1.8008,-1.8008,-1.8008,-1.8008,-1.8008,0.0,0.0,0.0,0.0,0.0,0.0,0.0,0.0,0.0,0.0,0.0,0.0,0.0,-2.0605,-2.0605,-2.0605,-2.0605,-2.0605,-2.0605,-2.0605,-2.0605,-2.0898,0.0,-2.119,-2.1853,0.0,-2.251,0.0,0.0,0.0,0.0,0.0,0.0,0.0,0.0,0.0,0.0,0.0,0.0,0.0,0.0,0.0,0.0,0.0,0.0,0.0,0.0,0.0,0.0,0.0,0.0,0.0,-2.8291,-2.8291,-2.8291,-2.8525,-2.8965,-2.8965,-2.918,-2.9626,-2.9626,-2.9626,-2.9607,-2.9141,-2.8965,-2.8935,-2.8545,-2.8389,-2.8389,-2.8389,-2.8369,-2.833,-2.8301,-2.8291,-2.8291,0.0,0.0,0.0,0.0,0.0,0.0,0.0,0.0,0.0,0.0,0.0,0.0,0.0,0.0,0.0,0.0,0.0,0.0,0.0,0.0,-1.9206,-1.9404,-1.8751,-1.852,-1.8827,-1.8919,-1.8967,-1.9014,-1.8673,-1.8337,-1.8008,-1.8008,-1.8008,-1.8008,-1.8008,-1.8008,-1.8008,-1.8008,-1.8008,-1.8008,-1.8008,-1.8008,0.0,0.0,0.0,0.0,0.0,0.0,0.0,0.0,-1.957,-1.999,0.0,-2.0605,-2.0605,-2.0605,-2.0605,-2.0605,-2.0605,-2.0605,-2.0674,-2.0908,-2.1318,0.0,0.0,-2.2295,-2.2978,0.0,0.0,0.0,0.0,0.0,0.0,0.0,0.0,0.0,0.0,0.0,0.0,0.0,0.0,0.0,0.0,0.0,0.0,0.0,0.0,0.0,0.0,0.0,0.0,0.0,0.0,-2.8291,-2.8291,-2.8291,-2.8369,-2.8535,-2.8535,-2.8613,-2.8779,-2.8779,-2.8779,-2.8769,-2.8603,-2.8535,-2.8516,-2.8359,-2.8291,-2.8291,-2.8291,-2.8291,-2.8291,-2.8291,-2.8291,-2.8291,0.0,0.0,0.0,0.0,0.0,0.0,0.0,0.0,0.0,0.0,0.0,0.0,0.0,0.0,0.0,0.0,0.0,0.0,-1.9475,-1.9122,-1.8916,-1.8902,-1.8328,-1.8112,-1.8351,-1.8328,-1.8504,-1.8877,-1.8303,-1.8008,-1.8008,-1.8008,-1.8008,-1.8008,-1.8008,-1.8008,-1.8008,-1.8008,-1.8008,-1.8008,-1.8008,-1.8008,0.0,0.0,0.0,0.0,0.0,0.0,0.0,0.0,-1.9482,0.0,0.0,0.0,0.0,-2.0605,-2.0605,-2.0605,-2.0605,-2.0605,-2.0713,-2.1083,0.0,0.0,-2.2051,-2.2627,-2.3218,0.0,0.0,0.0,0.0,0.0,0.0,0.0,0.0,0.0,0.0,0.0,0.0,0.0,0.0,0.0,0.0,0.0,0.0,0.0,0.0,0.0,0.0,0.0,0.0,0.0,0.0,-2.8291,-2.8291,-2.8291,-2.8291,-2.8291,-2.8291,-2.8291,-2.8291,-2.8291,-2.8291,-2.8291,-2.8291,-2.8291,-2.8291,-2.8291,-2.8291,-2.8291,-2.8291,-2.8291,-2.8291,-2.8291,-2.8291,-2.8291,0.0,0.0,0.0,0.0,0.0,0.0,0.0,0.0,0.0,0.0,0.0,0.0,0.0,0.0,0.0,0.0,0.0,0.0,-1.8753,-1.9132,-1.8914,-1.7842,-1.8249,-1.8328,-1.7998,-1.8008,-1.8008,-1.8008,-1.8008,-1.8008,-1.8008,-1.8008,-1.8008,-1.8008,-1.8008,-1.8008,-1.8008,-1.8008,-1.8008,-1.8008,-1.8008,-1.8008,-1.8008,0.0,0.0,0.0,0.0,0.0,0.0,0.0,-1.9287,-1.9434,0.0,0.0,0.0,-2.0605,-2.0605,-2.0605,-2.0605,-2.0605,-2.0713,0.0,0.0,0.0,0.0,-2.2799,-2.3227,0.0,0.0,0.0,0.0,0.0,0.0,0.0,0.0,0.0,0.0,0.0,0.0,0.0,0.0,0.0,0.0,0.0,0.0,0.0,0.0,0.0,0.0,0.0,0.0,0.0,0.0,0.0,-2.8291,-2.8291,-2.8291,-2.8291,-2.8291,-2.8291,-2.8291,-2.8291,-2.8291,-2.8291,-2.8291,-2.8291,-2.8291,-2.8291,-2.8291,-2.8291,-2.8291,-2.8291,-2.8291,-2.8291,-2.8291,-2.8291,0.0,0.0,0.0,0.0,0.0,0.0,0.0,0.0,0.0,0.0,0.0,0.0,0.0,0.0,0.0,0.0,0.0,0.0,-1.9219,-1.8608,-1.828,-1.8291,-1.7924,-1.78,-1.7998,-1.8008,-1.8008,-1.8008,-1.8008,-1.8008,-1.8008,-1.8008,-1.8008,-1.8008,-1.8008,-1.8008,-1.8008,-1.8008,-1.8008,-1.8008,-1.8008,-1.8008,-1.8008,0.0,0.0,0.0,0.0,0.0,0.0,0.0,0.0,0.0,0.0,0.0,0.0,-2.0605,-2.0605,-2.0605,-2.0605,-2.0605,0.0,0.0,0.0,0.0,0.0,0.0,0.0,0.0,0.0,0.0,0.0,0.0,0.0,0.0,0.0,0.0,0.0,0.0,0.0,0.0,0.0,0.0,0.0,0.0,0.0,0.0,0.0,0.0,0.0,0.0,0.0,0.0,0.0,0.0,-2.8291,-2.8291,-2.8291,-2.8291,-2.8291,-2.8291,-2.8291,-2.8291,-2.8291,-2.8291,-2.8291,-2.8291,-2.8291,-2.8291,-2.8291,-2.8291,-2.8291,-2.8291,-2.8291,-2.8291,-2.8291,-2.8291,0.0,0.0,0.0,0.0,0.0,0.0,0.0,0.0,0.0,0.0,0.0,0.0,0.0,0.0,0.0,0.0,0.0,0.0,0.0,-1.8321,-1.8071,-1.8049,-1.7794,-1.7754,-1.8008,-1.8008,-1.8008,-1.8008,-1.8008,-1.8008,-1.8008,-1.8008,-1.8008,-1.8008,-1.8008,-1.8008,-1.7974,-1.7613,-1.7647,-1.7974,-1.7569,-1.7681,-1.8008,0.0,0.0,0.0,0.0,0.0,0.0,0.0,0.0,0.0,0.0,0.0,0.0,-2.0605,-2.0605,-2.0605,-2.0605,0.0,0.0,0.0,0.0,0.0,0.0,0.0,0.0,0.0,0.0,0.0,0.0,0.0,0.0,0.0,0.0,0.0,0.0,0.0,0.0,0.0,0.0,0.0,0.0,0.0,0.0,0.0,0.0,0.0,0.0,0.0,0.0,0.0,0.0,0.0,-2.8291,-2.8291,-2.8291,-2.8291,-2.8291,-2.8291,-2.8291,-2.8291,-2.8291,-2.8291,-2.8291,-2.8291,-2.8291,-2.8291,-2.8291,-2.8291,-2.8291,-2.8291,-2.8291,-2.8291,-2.8291,-2.8291,0.0,0.0,0.0,0.0,0.0,0.0,0.0,0.0,0.0,0.0,0.0,0.0,0.0,0.0,0.0,0.0,0.0,0.0,0.0,0.0,-1.8153,-1.7474,-1.7803,-1.8008,-1.8008,-1.8008,-1.8008,-1.8008,-1.8008,-1.8008,-1.8008,-1.8008,-1.8008,-1.8008,-1.8008,-1.8008,-1.794,-1.7001,-1.7139,-1.7906,-1.7001,-1.7173,-1.8008,-1.8008,0.0,0.0,0.0,0.0,0.0,0.0,0.0,0.0,-2.0468,-2.0605,-2.0605,-2.0605,-2.0605,-2.0605,0.0,0.0,0.0,0.0,0.0,0.0,0.0,0.0,0.0,0.0,0.0,0.0,0.0,0.0,0.0,0.0,0.0,0.0,0.0,0.0,0.0,0.0,0.0,0.0,0.0,0.0,0.0,0.0,0.0,0.0,0.0,0.0,0.0,0.0,0.0,0.0,-2.8291,-2.8291,-2.8291,0.0,-2.8291,-2.8291,-2.8291,-2.8291,-2.8291,-2.8291,-2.8291,-2.8291,-2.8291,-2.8291,-2.8291,-2.8291,-2.8291,-2.8291,-2.8291,-2.8291,-2.8291,-2.8291,0.0,0.0,0.0,0.0,0.0,0.0,0.0,0.0,0.0,0.0,0.0,0.0,0.0,0.0,0.0,0.0,0.0,0.0,0.0,0.0,-1.803,-1.7881,-1.7959,-1.8008,-1.8008,-1.8008,-1.8008,-1.8008,-1.8008,-1.8008,-1.8008,-1.8008,-1.8008,-1.8008,-1.8008,-1.8008,-1.794,-1.7001,-1.7139,-1.7906,-1.7001,-1.7173,-1.8008,-1.8008,-1.8213,0.0,0.0,0.0,0.0,0.0,0.0,0.0,-2.0468,-2.0605,-2.0605,-2.0605,-2.0605,-2.0605,0.0,0.0,0.0,0.0,0.0,0.0,0.0,0.0,0.0,0.0,0.0,0.0,0.0,0.0,0.0,0.0,0.0,0.0,0.0,0.0,0.0,0.0,0.0,0.0,0.0,0.0,0.0,0.0,0.0,0.0,0.0,0.0,0.0,0.0,0.0,-2.8291,-2.8291,-2.8291,-2.8291,0.0,-2.8291,-2.8291,-2.8291,-2.8291,-2.8291,-2.8291,-2.8291,-2.8291,-2.8291,-2.8291,-2.8291,-2.8291,-2.8291,-2.8291,-2.8291,-2.8291,-2.8291,-2.8291,0.0,0.0,0.0,0.0,0.0,0.0,0.0,0.0,0.0,0.0,0.0,0.0,0.0,0.0,0.0,0.0,0.0,0.0,0.0,0.0,0.0,-1.8008,-1.8008,-1.8008,-1.8008,-1.8008,-1.8008,-1.8008,-1.8008,-1.8008,-1.8008,-1.8008,-1.8008,-1.8008,-1.8008,-1.7759,-1.7285,-1.6819,-1.6888,-1.7304,-1.7003,-1.7437,-1.8295,-1.8545,-1.876,-1.8955,-1.8955,0.0,0.0,0.0,0.0,0.0,0.0,0.0,-2.0605,-2.0605,-2.0605,-2.0605,0.0,0.0,0.0,0.0,0.0,0.0,0.0,0.0,0.0,0.0,0.0,0.0,0.0,0.0,0.0,0.0,0.0,0.0,0.0,0.0,0.0,0.0,0.0,0.0,0.0,0.0,0.0,0.0,0.0,0.0,0.0,0.0,0.0,0.0,-2.8291,-2.8291,-2.8291,-2.8291,-2.8291,-2.8291,-2.8291,-2.8291,-2.8291,-2.8291,-2.8291,-2.8291,-2.8291,-2.8291,-2.8291,-2.8291,-2.8291,-2.8291,-2.8291,-2.8291,-2.8291,-2.8291,-2.8291,-2.8291,0.0,0.0,0.0,0.0,0.0,0.0,0.0,0.0,0.0,0.0,0.0,0.0,0.0,0.0,0.0,0.0,0.0,0.0,0.0,0.0,0.0,-1.8008,-1.8008,-1.8008,-1.8008,-1.8008,-1.8008,-1.8008,-1.8008,0.0,0.0,0.0,-1.8008,-1.7974,-1.7828,-1.7432,-1.6819,-1.6498,-1.6603,-1.6947,-1.7116,-1.781,-1.8754,-1.915,-1.9336,-1.9394,-1.9394,-1.9668,-2.0029,-2.0029,0.0,0.0,0.0,0.0,-2.0605,-2.0605,-2.0605,-2.0605,0.0,0.0,0.0,0.0,0.0,0.0,0.0,0.0,0.0,0.0,0.0,0.0,0.0,0.0,0.0,0.0,0.0,0.0,0.0,0.0,0.0,0.0,0.0,0.0,0.0,0.0,0.0,0.0,0.0,0.0,0.0,0.0,-2.8291,-2.8291,-2.8291,-2.8291,-2.8291,-2.8291,-2.8291,-2.8291,-2.8291,-2.8291,-2.8291,-2.8291,-2.8291,-2.8291,-2.8291,-2.8291,-2.8291,-2.8291,-2.8291,-2.8291,-2.8291,-2.8291,-2.8291,-2.8291,-2.8291,-2.8291,0.0,0.0,0.0,0.0,0.0,0.0,0.0,0.0,0.0,0.0,0.0,0.0,0.0,0.0,0.0,0.0,0.0,0.0,-1.8008,0.0,0.0,-1.8008,-1.8008,-1.8008,-1.8008,-1.8008,-1.8008,-1.8008,-1.8008,0.0,0.0,0.0,0.0,-1.7974,0.0,-1.7182,-1.7725,-1.6088,-1.6528,-1.8264,-1.7521,-1.8013,-1.9209,-1.9268,-1.9512,-1.9824,-1.9824,-2.0107,-2.0517,-2.0517,-2.0556,0.0,0.0,0.0,0.0,-2.0605,-2.0605,-2.0605,0.0,0.0,0.0,0.0,0.0,0.0,0.0,0.0,0.0,0.0,0.0,0.0,0.0,0.0,0.0,0.0,0.0,0.0,0.0,0.0,0.0,0.0,0.0,0.0,0.0,0.0,0.0,0.0,0.0,0.0,0.0,-2.8291,-2.8291,-2.8291,-2.8291,-2.8291,-2.8291,-2.8291,-2.8291,-2.8291,-2.8291,-2.8291,-2.8291,-2.8291,-2.8291,-2.8291,-2.8291,-2.8291,-2.8291,-2.8291,-2.8291,-2.8291,-2.8291,-2.8291,-2.8291,-2.8291,-2.8291,-2.8291,0.0,0.0,0.0,0.0,0.0,0.0,0.0,0.0,0.0,0.0,0.0,0.0,0.0,0.0,0.0,-1.8576,-1.8202,-1.8008,-1.8008,-1.8008,-1.8008,-1.8008,-1.8008,-1.8008,-1.8008,-1.8008,-1.8008,-1.8008,0.0,0.0,0.0,-1.7467,-1.7501,0.0,0.0,0.0,0.0,-1.7237,-1.7538,-1.8245,-1.858,-1.9084,-1.9668,-1.9912,-2.0155,-2.0283,-2.0283,-2.0439,-2.0605,-2.0605,-2.0605,-2.0605,-2.0605,0.0,0.0,0.0,0.0,0.0,0.0,0.0,0.0,0.0,0.0,0.0,0.0,0.0,0.0,0.0,0.0,0.0,0.0,0.0,0.0,0.0,0.0,0.0,0.0,0.0,0.0,0.0,0.0,0.0,0.0,0.0,0.0,0.0,0.0,0.0,-2.8291,-2.8291,-2.8291,-2.8291,-2.8291,-2.8291,-2.8291,-2.8291,-2.8291,-2.8291,-2.8291,-2.8291,-2.8291,-2.8291,-2.8291,-2.8291,-2.8291,-2.8291,-2.8291,-2.8291,-2.8291,-2.8291,-2.8291,-2.8291,-2.8291,-2.8291,-2.8291,-2.8291,0.0,0.0,0.0,0.0,0.0,0.0,0.0,0.0,0.0,0.0,0.0,0.0,0.0,0.0,0.0,0.0,-1.8008,-1.8008,-1.8008,-1.8008,-1.8008,-1.8008,-1.8008,-1.8008,-1.8008,-1.8008,-1.7862,0.0,0.0,0.0,-1.7647,-1.6932,-1.7169,0.0,-1.7879,-1.7703,0.0,0.0,0.0,-1.849,-1.9513,-1.998,-2.0117,-2.0478,-2.0605,-2.0605,-2.0605,-2.0605,-2.0605,-2.0605,-2.0605,-2.0605,-2.0605,-2.0605,0.0,0.0,0.0,0.0,0.0,0.0,0.0,0.0,0.0,0.0,0.0,0.0,0.0,0.0,0.0,0.0,0.0,0.0,0.0,0.0,0.0,0.0,0.0,0.0,0.0,0.0,0.0,0.0,0.0,0.0,0.0,0.0,0.0,0.0,-2.8291,-2.8291,-2.8291,-2.8291,-2.8291,-2.8291,-2.8291,-2.8291,-2.8291,-2.8291,-2.8291,-2.8291,-2.8291,-2.8291,-2.8291,-2.8291,-2.8291,-2.8291,-2.8291,-2.8291,-2.8291,-2.8291,-2.8291,-2.8291,-2.8291,-2.8291,-2.8291,-2.8291,0.0,0.0,0.0,0.0,0.0,0.0,0.0,0.0,0.0,0.0,0.0,0.0,-1.9267,-1.8543,-1.8042,-1.8008,-1.8008,-1.8008,-1.8008,-1.8008,-1.8008,-1.8008,-1.8008,0.0,-1.8008,-1.8008,-1.7579,0.0,0.0,0.0,-1.6671,-1.6629,-1.7292,-1.8533,-1.7628,-1.7709,-1.8485,0.0,0.0,0.0,0.0,0.0,0.0,-2.0595,-2.0605,0.0,0.0,0.0,-2.0605,-2.0605,-2.0605,-2.0605,-2.0605,-2.0605,-2.0605,0.0,0.0,0.0,0.0,0.0,0.0,0.0,0.0,0.0,0.0,0.0,0.0,0.0,0.0,0.0,0.0,0.0,0.0,0.0,0.0,0.0,0.0,0.0,0.0,0.0,0.0,0.0,0.0,0.0,0.0,0.0,0.0,0.0,-2.8291,-2.8291,-2.8291,-2.8291,-2.8291,-2.8291,-2.8291,-2.8291,-2.8291,-2.8291,-2.8291,-2.8291,-2.8291,-2.8291,-2.8291,-2.8291,-2.8291,-2.8291,-2.8291,-2.8291,-2.8291,-2.8291,-2.8291,-2.8291,-2.8291,-2.8291,-2.8291,-2.8291,0.0,0.0,0.0,0.0,0.0,0.0,0.0,0.0,0.0,0.0,0.0,0.0,0.0,-1.8202,-1.8008,-1.8008,-1.8008,-1.8008,-1.8008,-1.8008,-1.8008,-1.8008,-1.8008,-1.8008,-1.8008,-1.8008,-1.7828,0.0,0.0,-1.7251,-1.751,-1.7138,-1.7552,-1.8562,-1.762,-1.8016,-1.9426,-1.9238,0.0,0.0,0.0,0.0,0.0,0.0,0.0,0.0,0.0,0.0,0.0,-2.0605,-2.0605,-2.0605,-2.0605,-2.0605,-2.0605,0.0,0.0,0.0,0.0,0.0,0.0,0.0,0.0,0.0,0.0,0.0,0.0,0.0,0.0,0.0,0.0,0.0,0.0,0.0,0.0,0.0,0.0,0.0,0.0,0.0,0.0,0.0,0.0,0.0,0.0,0.0,0.0,0.0,-2.7891,-2.8144,-2.8291,-2.8291,-2.8291,-2.8291,-2.8291,-2.8291,-2.8291,-2.8291,-2.8291,-2.8291,-2.8291,-2.8291,-2.8291,-2.8291,-2.8291,-2.8291,-2.8291,-2.8291,-2.8291,-2.8291,-2.8291,-2.8291,-2.8291,-2.8291,-2.8291,-2.8291,0.0,0.0,0.0,0.0,0.0,0.0,0.0,0.0,0.0,0.0,0.0,0.0,0.0,0.0,-1.8008,-1.8008,-1.8008,-1.8008,-1.8008,-1.8008,-1.8008,-1.8008,-1.8008,-1.8008,-1.8008,-1.8008,-1.7905,0.0,0.0,0.0,0.0,-1.7586,-1.8006,-1.899,-1.8063,-1.8471,0.0,0.0,0.0,-2.0605,0.0,0.0,-2.0605,0.0,0.0,0.0,0.0,0.0,0.0,0.0,0.0,0.0,0.0,0.0,0.0,0.0,0.0,0.0,0.0,0.0,0.0,0.0,0.0,0.0,0.0,0.0,0.0,0.0,0.0,0.0,0.0,0.0,0.0,0.0,0.0,0.0,0.0,0.0,0.0,0.0,0.0,0.0,0.0,0.0,0.0,0.0,0.0,0.0,-2.7451,-2.7851,-2.8144,-2.8291,-2.8291,-2.8291,-2.8291,-2.8291,-2.8291,-2.8291,-2.8291,-2.8291,-2.8291,-2.8291,-2.8291,-2.8291,-2.8291,-2.8291,-2.8291,-2.8291,-2.8291,-2.8291,-2.8291,-2.8291,-2.8291,-2.8291,-2.8291,-2.8291,0.0,0.0,0.0,0.0,0.0,0.0,0.0,0.0,0.0,-1.8008,0.0,0.0,0.0,0.0,0.0,-1.8008,-1.8008,-1.8018,-1.8027,-1.8027,-1.8037,-1.8047,-1.8047,-1.8047,-1.8047,-1.8047,-1.7783,0.0,0.0,0.0,0.0,0.0,-1.8648,-1.9874,-1.8955,-1.9079,-1.9961,0.0,-2.0605,-2.0605,0.0,-2.0605,-2.0605,0.0,0.0,0.0,-2.0605,-2.0605,0.0,0.0,0.0,0.0,0.0,0.0,0.0,0.0,0.0,0.0,0.0,0.0,0.0,0.0,0.0,0.0,0.0,0.0,0.0,0.0,0.0,0.0,0.0,0.0,0.0,0.0,0.0,0.0,0.0,0.0,0.0,0.0,0.0,0.0,0.0,0.0,0.0,0.0,0.0,-2.6992,-2.6992,-2.7412,-2.7842,-2.8262,-2.8271,-2.8281,-2.8291,-2.8291,-2.8291,-2.8291,-2.8291,-2.8291,-2.8291,-2.8291,-2.8291,-2.8291,-2.8291,-2.8291,-2.8291,-2.8291,-2.8291,-2.8291,-2.8291,-2.8291,-2.8291,-2.8291,-2.8291,-2.8291,0.0,0.0,0.0,0.0,0.0,0.0,0.0,0.0,-1.8008,0.0,0.0,0.0,-1.8008,-1.8008,-1.8008,-1.8008,-1.8008,-1.81,-1.8403,-1.8432,-1.8603,-1.8926,-1.8936,-1.8936,-1.8936,-1.8936,-1.8877,-1.873,0.0,0.0,0.0,0.0,0.0,0.0,-1.9966,-2.0149,-2.0391,-2.0546,0.0,0.0,-2.0605,-2.0605,0.0,0.0,0.0,0.0,0.0,-2.0605,0.0,0.0,-2.0605,-2.0605,0.0,0.0,0.0,0.0,0.0,0.0,-2.0605,0.0,0.0,0.0,0.0,0.0,0.0,0.0,0.0,0.0,0.0,0.0,0.0,0.0,0.0,0.0,0.0,0.0,0.0,0.0,0.0,0.0,0.0,0.0,0.0,0.0,0.0,0.0,-2.6377,-2.6562,-2.6562,-2.6963,-2.7393,-2.7822,-2.7894,-2.7988,-2.8291,-2.8291,-2.8291,-2.8291,-2.8291,-2.8291,-2.8291,-2.8291,-2.8291,-2.8291,-2.8291,-2.8291,-2.8291,-2.8291,-2.8291,-2.8291,-2.8291,-2.8291,-2.8291,-2.8291,-2.8291,-2.8291,0.0,0.0,0.0,0.0,0.0,0.0,0.0,0.0,-1.8008,0.0,0.0,0.0,-1.8008,-1.8164,-1.8237,-1.8237,-1.8437,-1.8643,-1.8896,-1.887,-1.9023,-1.9277,-1.9287,-1.9287,-1.9287,-1.9287,-1.9375,-1.9551,0.0,0.0,0.0,0.0,0.0,0.0,0.0,0.0,0.0,0.0,0.0,0.0,-2.0605,0.0,0.0,-2.0605,-2.0605,0.0,0.0,0.0,-2.0605,-2.0605,-2.0605,0.0,0.0,0.0,0.0,0.0,0.0,0.0,0.0,0.0,0.0,0.0,0.0,0.0,0.0,-2.207,0.0,0.0,0.0,0.0,0.0,0.0,0.0,0.0,0.0,0.0,0.0,0.0,0.0,0.0,0.0,0.0,0.0,0.0,0.0,0.0,-2.5977,-2.6201,-2.6377,-2.6621,-2.6953,-2.7383,-2.762,-2.7783,-2.8027,-2.8203,-2.8291,-2.8291,-2.8291,-2.8291,-2.8291,-2.8291,-2.8291,-2.8291,-2.8291,-2.8291,-2.8291,-2.8291,-2.8291,-2.8291,-2.8291,-2.8291,-2.8291,-2.8291,-2.8291,-2.8291,0.0,0.0,0.0,0.0,0.0,0.0,0.0,0.0,0.0,0.0,-1.8047,-1.8096,-1.8144,-1.8451,-1.8676,-1.8676,-1.9062,-1.9307,-1.9355,-1.9355,-1.9375,-1.9424,-1.9424,-1.9424,-1.9424,-1.9424,-1.9619,-1.999,0.0,0.0,0.0,0.0,0.0,0.0,0.0,0.0,0.0,0.0,0.0,-2.0605,-2.0605,-2.0605,0.0,0.0,-2.0605,0.0,-2.0605,-2.0605,-2.0605,-2.0605,-2.0605,0.0,0.0,0.0,0.0,0.0,-2.0605,0.0,0.0,0.0,0.0,0.0,0.0,0.0,-2.1621,-2.1816,-2.2051,0.0,0.0,0.0,0.0,0.0,0.0,0.0,0.0,0.0,0.0,0.0,0.0,0.0,0.0,0.0,0.0,0.0,-2.5693,-2.5693,-2.5693,-2.5859,-2.6299,-2.6318,-2.6514,-2.6934,-2.7324,-2.7601,-2.7598,-2.8018,-2.8223,-2.8223,-2.8271,-2.8291,-2.8291,-2.8291,-2.8291,-2.8291,-2.8291,-2.8291,-2.8291,-2.8291,-2.8291,-2.8291,-2.8291,-2.8291,-2.8291,-2.8291,-2.8291,-2.8291,-2.3108,0.0,0.0,0.0,0.0,0.0,0.0,0.0,-1.8008,-1.8008,-1.8266,-1.8617,-1.9004,-1.9111,-1.916,-1.916,-1.9238,-1.9434,-1.9775,-1.9795,-1.9951,-2.0341,-2.0351,-2.0351,-2.0351,-2.0351,-2.039,-2.0478,0.0,0.0,0.0,0.0,0.0,0.0,0.0,0.0,0.0,0.0,0.0,-2.0605,-2.0605,0.0,-2.0605,-2.0605,-2.0605,-2.0605,-2.0605,-2.0605,-2.0605,0.0,-2.0605,-2.0605,0.0,0.0,0.0,0.0,0.0,0.0,0.0,0.0,0.0,0.0,0.0,0.0,-2.124,-2.1317,-2.1561,0.0,0.0,0.0,0.0,0.0,0.0,0.0,0.0,0.0,0.0,0.0,0.0,0.0,0.0,0.0,0.0,0.0,-2.5693,-2.5693,-2.5693,-2.5723,-2.581,-2.5859,-2.6064,-2.6494,-2.6592,-2.6797,-2.7139,-2.7578,-2.7836,-2.7845,-2.8135,-2.8291,-2.8291,-2.8291,-2.8291,-2.8291,-2.8291,-2.8291,-2.8291,-2.8291,-2.8291,-2.8291,-2.8291,-2.8291,-2.8291,-2.8291,-2.8291,-2.8291,-2.3108,0.0,0.0,0.0,0.0,0.0,0.0,0.0,-1.8783,-1.8355,-1.8691,-1.9043,-1.9268,-1.9473,-1.96,-1.96,-1.9795,-2.001,-2.0225,-2.0244,-2.0332,-2.0595,-2.0605,-2.0605,-2.0605,-2.0605,-2.0605,-2.0605,0.0,0.0,0.0,0.0,0.0,0.0,0.0,0.0,0.0,0.0,-2.0605,-2.0605,-2.0605,0.0,-2.0605,-2.0605,-2.0605,-2.0605,-2.0605,-2.0605,-2.0605,-2.0605,-2.0605,0.0,0.0,-2.0605,-2.0605,0.0,-2.0605,-2.0605,0.0,0.0,0.0,-2.0605,0.0,0.0,0.0,-2.119,-2.1375,0.0,0.0,0.0,0.0,0.0,0.0,0.0,0.0,0.0,0.0,0.0,0.0,0.0,0.0,0.0,0.0,0.0,-2.5498,-2.5674,-2.5693,-2.5693,-2.5693,-2.5693,-2.5791,-2.6055,-2.6279,-2.6494,-2.6699,-2.7129,-2.7451,-2.7718,-2.7881,-2.8086,-2.8291,-2.8291,-2.8291,-2.8291,-2.8291,-2.8291,-2.8291,-2.8291,-2.8291,-2.8291,-2.8291,-2.8291,-2.8291,-2.8291,-2.8291,-2.8291,-2.3296,0.0,0.0,0.0,0.0,0.0,0.0,0.0,-1.9768,-1.8974,-1.9189,-1.9443,-1.9521,-1.9834,-2.0039,-2.0039,-2.0361,-2.0605,0.0,0.0,0.0,-2.0605,-2.0605,-2.0605,-2.0605,-2.0605,-2.0605,-2.0605,0.0,0.0,0.0,0.0,0.0,0.0,0.0,0.0,0.0,0.0,0.0,-2.0605,0.0,-2.0605,-2.0605,-2.0605,-2.0605,-2.0605,-2.0605,-2.0605,-2.0615,-2.0703,0.0,-2.0732,-2.0732,-2.0732,0.0,0.0,0.0,0.0,0.0,0.0,0.0,0.0,0.0,-2.0703,0.0,0.0,0.0,-2.167,0.0,0.0,0.0,0.0,0.0,0.0,0.0,0.0,0.0,0.0,0.0,0.0,0.0,0.0,0.0,0.0,-2.5127,-2.5528,-2.5557,-2.5596,-2.5684,-2.5693,-2.5693,-2.5693,-2.6084,-2.6269,-2.6269,-2.668,-2.7109,-2.7591,-2.7679,-2.7891,-2.8291,-2.8291,-2.8291,-2.8291,-2.8291,-2.8291,-2.8291,-2.8291,-2.8291,-2.8291,-2.8291,-2.8291,-2.8291,-2.8291,-2.8291,-2.8291,-2.3991,-2.3271,0.0,0.0,0.0,0.0,0.0,0.0,-2.0472,-1.9828,-1.9814,-1.999,0.0,0.0,0.0,0.0,0.0,0.0,-2.0605,0.0,0.0,-2.0605,-2.0605,-2.0605,-2.0605,-2.0605,-2.0605,-2.0605,0.0,0.0,0.0,0.0,0.0,0.0,-2.0605,0.0,0.0,0.0,-2.0605,0.0,-2.0605,-2.0605,0.0,-2.0605,-2.0605,-2.0605,-2.0605,-2.0605,-2.0664,0.0,-2.1112,-2.1112,0.0,-2.1112,0.0,0.0,0.0,0.0,0.0,0.0,0.0,0.0,-2.0605,0.0,0.0,0.0,-2.0762,-2.1221,0.0,0.0,0.0,0.0,0.0,0.0,0.0,0.0,0.0,0.0,0.0,0.0,0.0,0.0,0.0,0.0,0.0,-2.5107,-2.5194,-2.5322,-2.5664,-2.5693,-2.5693,-2.5693,-2.5732,-2.5762,-2.5762,-2.624,-2.667,-2.709,-2.748,-2.7891,-2.8291,-2.8291,-2.8291,-2.8291,-2.8291,-2.8291,-2.8291,-2.8291,-2.8291,-2.8291,-2.8291,-2.8291,-2.8291,-2.8291,-2.8291,-2.8291,-2.4519,-2.4169,0.0,0.0,0.0,0.0,0.0,0.0,0.0,-2.0377,-2.0759,0.0,0.0,0.0,0.0,0.0,0.0,-2.0605,0.0,0.0,-2.0605,0.0,0.0,0.0,0.0,-2.0605,-2.0605,-2.0605,-2.0605,0.0,0.0,0.0,0.0,0.0,-2.0605,0.0,-2.0605,0.0,0.0,0.0,0.0,0.0,0.0,-2.0605,-2.0723,-2.0957,-2.0957,-2.1113,-2.1357,0.0,-2.1611,0.0,0.0,0.0,0.0,0.0,0.0,0.0,0.0,0.0,0.0,0.0,0.0,0.0,0.0,0.0,-2.0664,0.0,0.0,0.0,0.0,0.0,0.0,0.0,0.0,0.0,0.0,0.0,0.0,0.0,0.0,0.0,0.0,0.0,0.0,0.0,0.0,-2.5146,-2.5342,-2.5547,-2.5693,-2.5693,-2.5693,-2.5693,-2.5693,-2.5918,-2.623,-2.666,-2.709,-2.751,-2.7939,-2.8174,-2.8291,-2.8291,-2.8291,-2.8291,-2.8291,-2.8291,-2.8291,-2.8291,-2.8291,-2.8291,-2.8291,-2.8291,-2.8291,-2.8291,-2.5272,0.0,0.0,0.0,0.0,0.0,0.0,0.0,0.0,0.0,0.0,0.0,-2.0673,-2.0605,0.0,0.0,0.0,-2.0605,0.0,0.0,-2.0605,0.0,-2.0605,0.0,0.0,0.0,-2.0605,-2.0605,-2.0605,0.0,0.0,0.0,0.0,0.0,0.0,-2.0605,-2.0605,0.0,0.0,-2.0605,-2.0605,-2.0674,-2.0752,-2.0752,-2.0947,-2.121,-2.1327,-2.1621,-2.1904,-2.2021,-2.206,0.0,-2.206,0.0,0.0,0.0,0.0,0.0,-2.1375,0.0,0.0,0.0,0.0,0.0,0.0,0.0,0.0,0.0,0.0,0.0,0.0,0.0,0.0,0.0,0.0,0.0,0.0,0.0,0.0,0.0,0.0,0.0,0.0,0.0,0.0,0.0,-2.4541,-2.4861,-2.5106,-2.5371,-2.5605,-2.5684,-2.5693,-2.5693,-2.5693,-2.5693,-2.5957,-2.6396,-2.6699,-2.7129,-2.7728,-2.7978,-2.8184,-2.8291,-2.8291,-2.8291,-2.8291,-2.8291,-2.8291,-2.8291,-2.8291,-2.8291,-2.8291,-2.8291,-2.8291,-2.8291,-2.6449,-2.5996,0.0,0.0,0.0,0.0,0.0,0.0,0.0,0.0,0.0,0.0,0.0,0.0,0.0,0.0,0.0,-2.0605,-2.0605,0.0,-2.0605,0.0,0.0,-2.0605,0.0,0.0,0.0,-2.0605,-2.0605,-2.0605,0.0,0.0,0.0,0.0,0.0,-2.0605,-2.0605,-2.0605,-2.0605,-2.0605,-2.0605,-2.083,-2.1171,0.0,-2.1181,-2.1249,-2.1709,0.0,0.0,-2.2353,-2.249,0.0,0.0,0.0,0.0,0.0,0.0,0.0,0.0,0.0,0.0,-2.1846,0.0,0.0,0.0,0.0,-2.1171,0.0,0.0,0.0,0.0,0.0,0.0,-2.1239,0.0,0.0,0.0,0.0,0.0,0.0,0.0,0.0,0.0,0.0,0.0,-2.3779,-2.3828,-2.4189,-2.5067,-2.5125,-2.5293,-2.5674,-2.5693,-2.5693,-2.5693,-2.5693,-2.5957,-2.6387,-2.6396,-2.6855,-2.7718,-2.7728,-2.791,-2.8291,-2.8291,-2.8291,-2.8291,-2.8291,-2.8291,-2.8291,-2.8291,-2.8291,-2.8291,-2.8291,-2.8291,-2.8291,0.0,0.0,0.0,0.0,0.0,0.0,0.0,-2.4492,0.0,0.0,0.0,0.0,0.0,0.0,-2.126,0.0,0.0,-2.0605,-2.0605,-2.0605,0.0,0.0,0.0,-2.0605,0.0,0.0,0.0,-2.0605,-2.0605,-2.0605,0.0,0.0,0.0,0.0,0.0,-2.0605,0.0,0.0,0.0,0.0,0.0,-2.1064,-2.119,0.0,0.0,-2.21,-2.2246,-2.248,0.0,-2.2838,-2.2886,-2.2886,-2.2886,-2.2886,-2.2857,-2.2711,-2.2519,0.0,0.0,0.0,-2.1885,-2.1885,0.0,0.0,0.0,0.0,0.0,0.0,0.0,0.0,0.0,0.0,-2.1572,-2.1239,-2.1602,0.0,0.0,0.0,0.0,0.0,0.0,0.0,0.0,0.0,0.0,-2.3305,-2.3623,-2.3916,0.0,-2.4812,-2.5184,-2.5293,-2.5586,-2.5693,-2.5693,-2.5693,-2.5762,-2.5967,-2.625,-2.6689,-2.7246,-2.7539,-2.7891,-2.8291,-2.8291,-2.8291,-2.8291,-2.8291,-2.8291,-2.8291,-2.8291,-2.8291,-2.8291,-2.8291,-2.8291,-2.8291,-2.6499,0.0,0.0,0.0,0.0,0.0,0.0,0.0,0.0,0.0,-2.4233,0.0,-2.295,0.0,-2.2877,0.0,-2.2242,-2.2048,-2.1667,-2.1628,0.0,-2.085,-2.0801,0.0,0.0,0.0,0.0,0.0,-2.0605,-2.0605,0.0,0.0,0.0,0.0,0.0,0.0,0.0,0.0,-2.0605,0.0,0.0,-2.1375,0.0,0.0,-2.2031,-2.2529,0.0,-2.2867,-2.3091,-2.3091,-2.3091,-2.3091,-2.3091,-2.3091,-2.3091,-2.3091,-2.2906,-2.2691,-2.2691,-2.2539,0.0,-2.2334,-2.2334,0.0,-2.2334,0.0,0.0,0.0,0.0,0.0,0.0,0.0,0.0,-2.1268,-2.1434,-2.165,0.0,-2.165,0.0,0.0,0.0,0.0,0.0,0.0,-2.3091,-2.3091,-2.3398,-2.3623,0.0,0.0,-2.4912,-2.5106,-2.5508,-2.5693,-2.5693,-2.5693,-2.5693,-2.5693,-2.6025,-2.6455,-2.7021,-2.7305,-2.7744,-2.8291,-2.8291,-2.8291,-2.8291,-2.8291,-2.8291,-2.8291,-2.8291,-2.8291,-2.8291,-2.8291,-2.8291,-2.8291,0.0,0.0,0.0,0.0,-2.6499,0.0,0.0,0.0,-2.4778,0.0,-2.4171,-2.4476,-2.4438,-2.4916,-2.5249,-2.521,-2.521,0.0,-2.3652,-2.3532,0.0,0.0,-2.126,-2.1055,-2.0644,0.0,0.0,0.0,0.0,0.0,-2.0605,0.0,0.0,0.0,-2.0605,0.0,-2.0605,-2.0605,-2.0615,-2.0674,-2.1103,-2.1746,-2.251,-2.2539,-2.2539,-2.2598,-2.2955,-2.3091,-2.3091,-2.3091,-2.3091,-2.3091,-2.3091,-2.3091,-2.3091,-2.3091,-2.3091,-2.3091,-2.3091,-2.3091,-2.3091,-2.3091,0.0,0.0,0.0,0.0,-2.2539,0.0,0.0,0.0,0.0,0.0,0.0,-2.1298,-2.121,-2.119,-2.1161,0.0,0.0,0.0,0.0,0.0,0.0,-2.3062,-2.3071,-2.3091,-2.3091,0.0,0.0,0.0,-2.458,-2.5067,-2.5469,-2.5664,-2.5693,-2.5693,-2.5693,-2.5693,-2.5693,-2.6172,-2.6982,-2.7002,-2.7471,-2.8262,-2.8281,-2.8291,-2.8291,-2.8291,-2.8291,-2.8291,-2.8291,-2.8291,-2.8291,-2.8291,-2.8291,-2.8291,-2.6499,-2.6499,-2.6499,0.0,-2.6499,-2.6418,0.0,0.0,0.0,0.0,-2.6785,-2.6844,-2.6087,-2.6141,-2.5957,-2.5249,-2.521,0.0,0.0,0.0,0.0,-2.2946,-2.2139,-2.1514,-2.1074,-2.1064,0.0,-2.0605,0.0,0.0,-2.0605,0.0,0.0,0.0,0.0,0.0,-2.0605,-2.0605,-2.0762,-2.1093,-2.1885,-2.2314,0.0,0.0,-2.2935,-2.2945,-2.3052,-2.3091,-2.3091,-2.3091,-2.3091,-2.3091,-2.3091,-2.3091,-2.3091,-2.3091,-2.3091,-2.3091,-2.3091,-2.3091,-2.3091,-2.3091,-2.3091,-2.3091,0.0,0.0,0.0,0.0,0.0,0.0,0.0,0.0,0.0,0.0,-2.1445,0.0,0.0,0.0,0.0,0.0,0.0,0.0,0.0,0.0,-2.276,-2.3071,-2.3091,0.0,0.0,0.0,0.0,-2.457,-2.501,-2.54,-2.5684,-2.5693,-2.5693,-2.5693,-2.5693,-2.6025,-2.6562,-2.6875,-2.7314,-2.7894,-2.8154,-2.8291,-2.8291,-2.8291,-2.8291,-2.8291,-2.8291,-2.8291,-2.8291,-2.8291,-2.8291,-2.8291,-2.6499,0.0,0.0,-2.6851,0.0,0.0,-2.6889,0.0,0.0,-2.7645,-2.8122,0.0,-2.7665,-2.7835,-2.7791,-2.7252,-2.7225,0.0,0.0,0.0,0.0,-2.4523,-2.3941,-2.3174,-2.2211,-2.2201,0.0,-2.0859,0.0,0.0,-2.0605,0.0,0.0,0.0,0.0,-2.0605,0.0,-2.0781,-2.1221,-2.1795,-2.2324,0.0,0.0,-2.3003,-2.3091,-2.3091,-2.3091,-2.3091,-2.3091,-2.3091,-2.3091,-2.3091,-2.3091,-2.3091,-2.3091,-2.3091,-2.3091,-2.3091,-2.3091,-2.3091,-2.3091,-2.3091,-2.3091,-2.3091,-2.3091,-2.3091,-2.3091,0.0,0.0,0.0,0.0,0.0,0.0,0.0,0.0,0.0,0.0,0.0,0.0,0.0,0.0,0.0,0.0,0.0,0.0,0.0,0.0,0.0,0.0,0.0,0.0,-2.4404,-2.4844,-2.5283,-2.5684,-2.5693,-2.5693,-2.5693,-2.5693,-2.5967,-2.6406,-2.6826,-2.7256,-2.7738,-2.8115,-2.8291,-2.8291,-2.8291,-2.8291,-2.8291,-2.8291,-2.8291,-2.8291,-2.8291,-2.8291,-2.8291,0.0,0.0,0.0,0.0,0.0,0.0,0.0,-2.7908,0.0,-2.821,0.0,-2.9001,-2.9001,-2.9553,-2.9892,-2.9892,0.0,-2.9551,-2.8495,-2.8283,-2.7594,-2.6166,-2.5954,-2.5238,-2.3828,-2.3788,0.0,0.0,0.0,0.0,0.0,0.0,0.0,0.0,0.0,0.0,0.0,-2.1191,-2.1795,0.0,-2.2578,-2.2769,-2.3091,-2.3091,-2.3091,-2.3091,-2.3091,-2.3091,-2.3091,-2.3091,-2.3091,-2.3091,-2.3091,-2.3091,-2.3091,-2.3091,-2.3091,-2.3091,-2.3091,-2.3091,-2.3091,-2.3091,-2.3091,-2.3091,-2.3091,-2.3091,-2.3091,-2.3091,-2.3091,-2.3091,0.0,0.0,0.0,0.0,0.0,0.0,0.0,0.0,0.0,0.0,0.0,0.0,0.0,0.0,0.0,0.0,0.0,0.0,0.0,0.0,0.0,-2.4316,-2.4756,0.0,-2.5596,0.0,-2.5693,-2.5693,-2.5693,-2.5888,-2.6318,-2.6797,-2.7217,-2.7607,-2.8086,-2.8291,-2.8291,-2.8291,-2.8291,-2.8291,-2.8291,-2.8291,-2.8291,-2.8291,-2.8291,-2.8291,0.0,0.0,0.0,0.0,0.0,-2.8712,-2.8612,-2.8687,-2.875,-2.875,-2.9289,0.0,-2.9641,-3.0131,-3.047,-3.047,-3.0859,0.0,0.0,0.0,0.0,-2.7738,-2.6868,-2.6073,-2.5409,-2.5398,-2.4647,0.0,0.0,0.0,0.0,0.0,0.0,0.0,0.0,0.0,-2.1132,-2.1953,0.0,-2.2539,-2.2847,-2.3033,-2.3091,-2.3091,-2.3091,-2.3091,-2.3091,-2.3091,-2.3091,-2.3091,-2.3091,-2.3091,-2.3091,-2.3091,-2.3091,-2.3091,-2.3091,-2.3091,-2.3091,-2.3091,-2.3091,-2.3091,-2.3091,-2.3091,-2.3091,-2.3091,-2.3091,-2.3091,-2.3091,-2.3091,-2.3091,0.0,0.0,0.0,0.0,0.0,0.0,0.0,0.0,0.0,0.0,0.0,0.0,0.0,0.0,0.0,0.0,0.0,0.0,0.0,0.0,0.0,-2.4316,0.0,0.0,0.0,-2.5693,-2.5693,-2.5693,-2.5732,-2.583,-2.666,-2.7051,-2.7178,-2.7959,-2.8291,-2.8291,-2.8291,-2.8291,-2.8291,-2.8291,-2.8291,-2.8291,-2.8291,-2.8291,-2.8291,0.0,0.0,0.0,0.0,0.0,0.0,0.0,-2.9765,0.0,-2.9765,-3.0043,-3.0319,-3.0595,-3.0859,-3.1022,-3.1022,-3.1248,-3.1286,-3.1035,-3.0486,-2.9943,-2.9417,-2.8911,0.0,-2.7012,-2.6989,-2.5976,-2.3861,0.0,0.0,-2.1562,0.0,0.0,0.0,0.0,-2.1279,0.0,0.0,0.0,-2.2808,-2.3013,-2.3091,-2.3091,-2.3091,-2.3091,-2.3091,-2.3091,-2.3091,-2.3091,-2.3091,-2.3091,-2.3091,-2.3091,-2.3091,-2.3091,-2.3091,-2.3091,-2.3091,-2.3091,-2.3091,-2.3091,-2.3091,-2.3091,-2.3091,-2.3091,-2.3091,-2.3091,-2.3091,-2.3091,-2.3091,-2.3091,-2.3091,0.0,0.0,0.0,0.0,0.0,0.0,0.0,0.0,0.0,0.0,0.0,0.0,0.0,0.0,0.0,0.0,0.0,0.0,0.0,0.0,0.0,0.0,0.0,0.0,0.0,-2.5693,-2.5693,-2.5693,-2.5713,-2.6621,-2.7012,-2.706,-2.792,-2.8291,-2.8291,-2.8291,-2.8291,-2.8291,-2.8291,-2.8291,-2.8291,-2.8291,-2.8291,-2.8291,0.0,-2.8812,0.0,0.0,-2.9666,0.0,-3.0696,-3.0783,-3.0783,-3.0783,-3.0783,-3.0934,-3.1348,-3.1499,-3.1562,-3.1562,-3.1675,-3.17,-3.1574,-3.1562,-3.1336,-3.0809,-3.067,-2.9973,-2.8646,-2.8526,-2.7324,0.0,0.0,0.0,0.0,0.0,0.0,0.0,0.0,0.0,0.0,0.0,-2.3156,-2.343,-2.3222,-2.3091,-2.3091,-2.3091,-2.3091,-2.3091,-2.3091,-2.3091,-2.3091,-2.3091,-2.3091,-2.3091,-2.3091,-2.3091,-2.3091,-2.3091,-2.3091,-2.3091,-2.3091,-2.3091,-2.3091,-2.3091,-2.3091,-2.3091,-2.3091,-2.3091,-2.3091,-2.3091,-2.3091,-2.3091,-2.3091,-2.3091,0.0,0.0,0.0,0.0,0.0,0.0,0.0,0.0,0.0,0.0,0.0,0.0,0.0,0.0,0.0,0.0,0.0,0.0,0.0,0.0,0.0,-2.458,-2.4969,0.0,-2.5693,0.0,-2.5693,-2.5693,-2.5713,-2.6533,-2.6934,-2.7051,-2.7822,-2.8213,-2.8291,-2.8291,-2.8291,-2.8291,-2.8291,-2.8291,-2.8291,-2.8291,-2.8291,-2.8291,0.0,0.0,0.0,0.0,0.0,0.0,0.0,-3.1323,-3.1323,-3.1323,-3.1323,-3.1336,-3.1386,-3.1838,-3.2139,-3.2139,-3.2616,-3.2692,-3.2177,-3.2139,-3.1888,-3.1336,-3.0871,-3.0543,-3.0361,-2.9874,-2.9003,0.0,0.0,0.0,0.0,0.0,0.0,0.0,0.0,0.0,0.0,-2.4839,-2.4628,-2.4542,-2.3507,-2.3091,-2.3091,-2.3091,-2.3091,-2.3091,-2.3091,-2.3091,-2.3091,-2.3091,-2.3091,-2.3091,-2.3091,-2.3091,-2.3091,-2.3091,-2.3091,-2.3091,-2.3091,-2.3091,-2.3091,-2.3091,-2.3091,-2.3091,-2.3091,-2.3091,-2.3091,-2.3091,-2.3091,-2.3091,-2.3091,-2.3091,-2.3091,0.0,0.0,0.0,0.0,0.0,0.0,0.0,0.0,0.0,0.0,0.0,0.0,0.0,0.0,0.0,0.0,0.0,0.0,-2.3149,0.0,-2.4434,-2.4473,-2.5265,0.0,-2.5693,-2.5693,-2.5693,-2.5703,-2.623,-2.666,-2.7041,-2.7519,-2.7939,-2.8291,-2.8291,-2.8291,-2.8291,-2.8291,-2.8291,-2.8291,-2.8291,-2.8291,-2.8291,0.0,0.0,0.0,0.0,0.0,0.0,0.0,-3.1888,-3.2001,-3.2353,-3.2102,-3.2014,-3.2365,-3.2604,-3.2729,-3.2729,-3.2943,-3.298,-3.2754,-3.2729,-3.2478,-3.1913,-3.1687,-3.1273,-3.0593,-3.0407,-2.9557,0.0,0.0,0.0,0.0,0.0,0.0,0.0,0.0,-2.4552,-2.5151,-2.4182,-2.38,-2.3757,-2.3256,-2.3091,-2.3091,-2.3091,-2.3091,-2.3091,-2.3091,-2.3091,-2.3091,-2.3091,-2.3091,-2.3091,-2.3091,-2.3091,-2.3091,-2.3091,-2.3091,-2.3091,-2.3091,-2.3091,-2.3091,-2.3091,-2.3091,-2.3091,-2.3091,-2.3091,-2.3091,-2.3091,-2.3091,-2.3091,-2.3091,-2.3091,-2.3091,0.0,0.0,0.0,0.0,0.0,0.0,0.0,0.0,0.0,0.0,0.0,0.0,0.0,0.0,0.0,0.0,0.0,0.0,-2.3091,0.0,-2.4414,-2.4414,-2.5245,-2.5693,-2.5693,-2.5693,-2.5693,-2.5703,-2.6191,-2.6758,-2.7432,-2.7851,-2.8135,-2.8291,-2.8291,-2.8291,-2.8291,-2.8291,-2.8291,-2.8291,-2.8291,-2.8291,-2.8291,-3.0846,0.0,-3.1436,0.0,-3.1637,-3.1813,-3.2378,-3.2466,-3.2616,-3.3018,-3.2717,-3.2616,-3.3031,-3.3124,-3.3124,-3.3124,-3.3124,-3.3124,-3.3124,-3.3124,-3.2893,-3.2478,-3.2303,0.0,-3.111,-3.0771,-3.0025,-2.8839,-2.8339,0.0,0.0,0.0,0.0,0.0,-2.5691,-2.5675,-2.616,-2.4723,-2.4102,-2.4059,-2.3387,-2.3091,-2.3091,-2.3091,-2.3091,-2.3091,-2.3091,-2.3091,-2.3091,-2.3091,-2.3091,-2.3091,-2.3091,-2.3091,-2.3091,-2.3091,-2.3091,-2.3091,-2.3091,-2.3091,-2.3091,-2.3091,-2.3091,-2.3091,-2.3091,-2.3091,-2.3091,-2.3091,-2.3091,-2.3091,-2.3091,-2.3091,-2.3091,-2.3091,0.0,0.0,0.0,0.0,0.0,0.0,0.0,-2.2847,-2.2672,0.0,0.0,0.0,0.0,0.0,0.0,0.0,0.0,0.0,0.0,0.0,0.0,-2.5313,-2.5693,-2.5693,-2.5693,-2.5693,-2.5703,-2.6318,-2.6904,-2.75,-2.8057,-2.8291,-2.8291,-2.8291,-2.8291,-2.8291,-2.8291,-2.8291,-2.8291,-2.8291,-2.8291,-2.8291,-3.1386,-3.1386,-3.1562,-3.2102,-3.2202,-3.239,-3.298,-3.3111,-3.3111,-3.3124,-3.3111,-3.3111,-3.3124,-3.3124,-3.3124,-3.3124,-3.3124,-3.3124,-3.3124,-3.3124,-3.3124,0.0,0.0,-3.2202,-3.219,-3.116,-3.0568,-3.0568,0.0,0.0,-2.7424,0.0,-2.6622,-2.8084,-2.8044,-2.8676,-2.9585,-2.7383,-2.6483,-2.6265,-2.4016,-2.3091,-2.3091,-2.3091,-2.3091,-2.3091,-2.3091,-2.3091,-2.3091,-2.3091,-2.3091,-2.3091,-2.3091,-2.3091,-2.3091,-2.3091,-2.3091,-2.3091,-2.3091,-2.3091,-2.3091,-2.3091,-2.3091,-2.3091,-2.3091,-2.3091,-2.3091,-2.3091,-2.3091,-2.3091,-2.3091,-2.3091,-2.3091,-2.3091,0.0,0.0,0.0,0.0,0.0,0.0,-2.273,-2.2643,-2.3052,0.0,0.0,0.0,0.0,0.0,0.0,0.0,0.0,-2.3769,-2.4199,0.0,-2.5106,-2.5508,-2.5693,-2.5693,-2.5693,-2.5693,-2.5713,-2.6621,-2.7012,-2.707,-2.792,-2.8291,-2.8291,-2.8291,-2.8291,-2.8291,-2.8291,-2.8291,-2.8291,-2.8291,-2.8291,-2.8291,-3.1951,-3.2265,-3.2591,-3.2767,-3.2805,-3.2867,-3.3056,-3.3124,-3.3124,-3.3124,-3.3124,-3.3124,-3.3124,-3.3124,-3.3124,0.0,-3.3124,-3.3124,0.0,-3.3124,-3.3124,-3.3124,-3.2905,-3.2616,-3.2227,-3.1876,-3.1348,-3.062,0.0,0.0,0.0,-2.7897,-2.8032,-2.9236,-2.8438,-2.8307,-2.8518,-2.6284,-2.5336,-2.521,-2.3714,-2.3091,-2.3091,-2.3091,-2.3091,-2.3091,-2.3091,-2.3091,-2.314,-2.3486,-2.3584,-2.3633,-2.3916,-2.3569,-2.3091,-2.3091,-2.3091,-2.3091,-2.3091,-2.3091,-2.3091,-2.3091,-2.3091,-2.3091,-2.3091,-2.3091,-2.3091,-2.3091,-2.3091,-2.3091,-2.3091,-2.3091,-2.3091,-2.3091,-2.3091,0.0,0.0,0.0,0.0,0.0,0.0,-2.2945,0.0,-2.2974,0.0,0.0,0.0,0.0,0.0,0.0,0.0,0.0,-2.4199,0.0,-2.5106,-2.5518,-2.5693,-2.5693,-2.5693,-2.5889,-2.6201,-2.6758,-2.7178,-2.749,-2.8047,-2.8291,-2.8291,-2.8291,-2.8291,-2.8291,-2.8291,-2.8291,-2.8291,-2.8291,-2.8291,-2.8291,-3.2541,-3.283,-3.3124,-3.3124,-3.3124,-3.3124,-3.3124,-3.3124,-3.3124,-3.3124,-3.3124,-3.3124,-3.3124,-3.3124,0.0,-3.3124,-3.3124,-3.3124,-3.3124,-3.3124,-3.3124,-3.3124,-3.3124,-3.2905,-3.2541,0.0,0.0,-3.121,-3.0809,-3.0331,-2.9792,-2.9067,-2.9106,-2.9753,-2.9067,-2.8727,-2.8609,-2.6819,-2.5828,-2.5336,-2.4221,-2.3464,-2.3091,-2.3091,-2.3198,-2.3379,-2.3379,-2.3442,-2.3617,-2.3935,-2.4023,-2.4072,-2.4336,-2.4053,-2.3539,-2.3428,-2.3379,-2.3305,-2.314,-2.3091,-2.3091,-2.3091,-2.3091,-2.3091,-2.3091,-2.3091,-2.3091,-2.3091,-2.3091,-2.3091,-2.3091,-2.3091,-2.3091,-2.3091,-2.3091,-2.3091,-2.3091,0.0,0.0,0.0,0.0,0.0,0.0,-2.3091,0.0,0.0,0.0,0.0,0.0,0.0,0.0,-2.4004,-2.4277,0.0,-2.5312,-2.5547,-2.5693,-2.5693,-2.5693,-2.5967,-2.6406,-2.6826,-2.7256,-2.7738,-2.8115,-2.8291,-2.8291,-2.8291,-2.8291,-2.8291,-2.8291,-2.8291,-2.8291,-2.8291,-2.8291,-2.8291,-3.3124,-3.3124,0.0,0.0,-3.3124,0.0,-3.3124,-3.3124,-3.3124,-3.3124,-3.3124,-3.3124,-3.3124,-3.3124,-3.3124,-3.3124,0.0,0.0,0.0,-3.3124,-3.3124,-3.3124,-3.3124,-3.3124,-3.3124,-3.2554,-3.2252,-3.2215,-3.1173,-3.0382,-2.9854,-2.9854,-2.9829,-2.9792,-2.9792,-2.9792,-2.9714,-2.8597,-2.7522,-2.6513,-2.5326,-2.4219,-2.3271,-2.3213,-2.3477,-2.3838,-2.3838,-2.4082,-2.4424,-2.4453,-2.4463,-2.4473,-2.4492,-2.4512,-2.4414,-2.3965,-2.3838,-2.375,-2.3296,-2.3169,-2.314,-2.314,-2.312,-2.3091,-2.3091,-2.3091,-2.3091,-2.3091,-2.3091,-2.3091,-2.3091,-2.3091,-2.3091,-2.3091,-2.3091,-2.3091,-2.3091,0.0,0.0,0.0,0.0,0.0,0.0,-2.3091,-2.3091,0.0,0.0,0.0,0.0,0.0,-2.352,-2.4394,-2.4443,-2.4873,-2.5684,-2.5693,-2.5693,-2.5693,-2.5693,-2.5977,-2.6445,-2.6836,-2.7266,-2.7777,-2.8125,-2.8291,-2.8291,-2.8291,-2.8291,-2.8291,-2.8291,-2.8291,-2.8291,-2.8291,-2.8291,-2.8291,0.0,0.0,-3.3124,-3.3124,-3.3124,-3.3124,-3.3124,-3.3124,-3.3124,-3.3124,-3.3124,-3.3124,-3.3124,-3.3124,-3.3124,-3.3124,-3.3124,-3.3124,-3.3124,-3.3124,-3.3124,-3.3124,-3.3124,-3.3124,-3.3124,-3.2943,-3.2654,-3.2215,-3.1537,-3.0934,-3.0419,-3.0419,-3.0193,-2.9792,-2.9792,-2.9792,-2.9714,-2.8597,-2.7964,-2.7597,-2.5936,-2.5082,-2.4818,-2.4291,-2.418,-2.4268,-2.4268,-2.4336,-2.4473,-2.4805,-2.4912,-2.4971,-2.5312,-2.5382,-2.5226,-2.4492,-2.4268,-2.4248,-2.4095,-2.3877,-2.3633,-2.3633,-2.3344,-2.3091,-2.3091,-2.3091,-2.3091,-2.3091,-2.3091,-2.3091,-2.3091,-2.3091,-2.3091,-2.3091,-2.3091,-2.3091,-2.3091,-2.3091,0.0,0.0,-2.3091,-2.3091,-2.3091,-2.3091,-2.3091,0.0,0.0,0.0,0.0,-2.3633,-2.3877,-2.4394,-2.4746,-2.5176,-2.5684,-2.5693,-2.5693,-2.5693,-2.5693,-2.6133,-2.6875,-2.6973,-2.7432,-2.8144,-2.8252,-2.8291,-2.8291,-2.8291,-2.8291,-2.8291,-2.8291,-2.8291,-2.8291,-2.8291,-2.8291,-2.8291,-3.3124,-3.3124,-3.3124,-3.3124,-3.3124,-3.3124,-3.3124,-3.3124,-3.3124,-3.3124,-3.3124,-3.3124,-3.3124,-3.3124,-3.3124,-3.3124,-3.3124,-3.3124,-3.3124,-3.3124,-3.3124,-3.3124,-3.3124,-3.3124,-3.3124,-3.3124,-3.2792,-3.2215,-3.1913,-3.1486,-3.0972,-3.0972,-3.0809,-3.052,-3.052,-3.052,-3.048,-2.9871,-2.9322,-2.8804,-2.7807,-2.7105,-2.653,-2.5605,-2.5376,-2.5476,-2.494,-2.4844,-2.5011,-2.5293,-2.5371,-2.541,-2.5615,-2.5693,-2.5596,-2.5118,-2.4873,-2.4668,-2.4473,-2.4248,-2.4033,-2.3838,-2.3613,-2.3379,-2.314,-2.3091,-2.3091,-2.3091,-2.3091,-2.3091,-2.3091,-2.3091,-2.3091,-2.3091,-2.3091,-2.3091,-2.3091,-2.3091,0.0,-2.3091,-2.3091,-2.3091,-2.3091,-2.3091,-2.3091,-2.3091,0.0,0.0,-2.3779,-2.416,-2.4482,-2.4707,-2.4988,-2.5283,-2.5684,-2.5693,-2.5693,-2.5693,-2.5937,-2.6377,-2.7021,-2.7217,-2.7666,-2.8291,-2.8291,-2.8291,-2.8291,-2.8291,-2.8291,-2.8291,-2.8291,-2.8291,-2.8291,-2.8291,-2.8291,-2.8291,-3.3124,-3.3124,-3.3124,-3.3124,-3.3124,-3.3124,-3.3124,-3.3124,-3.3124,-3.3124,-3.3124,-3.3124,-3.3124,-3.3124,-3.3124,-3.3124,-3.3124,-3.3124,-3.3124,-3.3124,-3.3124,-3.3124,-3.3124,-3.3124,-3.3124,-3.3124,-3.283,-3.234,-3.234,-3.2064,-3.1512,-3.1512,-3.1474,-3.1386,-3.1386,-3.1386,-3.1386,-3.1386,-3.0869,-3.0037,-2.9941,-2.9316,-2.8313,-2.7202,-2.6998,-2.7119,-2.6117,-2.5869,-2.5965,-2.5965,-2.5878,-2.5693,-2.5693,-2.5693,-2.5693,-2.5693,-2.5469,-2.5088,-2.4717,-2.457,-2.4414,-2.3984,-2.3838,-2.3691,-2.3276,-2.314,-2.3091,-2.3091,-2.3091,-2.3091,-2.3091,-2.3091,-2.3091,-2.3091,-2.3091,-2.3091,-2.3091,0.0,-2.3091,-2.3091,-2.3091,-2.3091,-2.3091,-2.3091,-2.312,-2.3188,-2.3584,-2.3848,0.0,-2.4724,-2.5145,-2.5166,-2.5166,-2.5352,-2.5684,-2.5693,-2.5693,-2.5693,-2.6182,-2.6611,-2.7031,-2.7471,-2.7891,-2.8291,-2.8291,-2.8291,-2.8291,-2.8291,-2.8291,-2.8291,-2.8291,-2.8291,-2.8291,-2.8291,-2.8291,-2.8291,-3.3124,-3.3124,-3.3124,-3.3124,-3.3124,-3.3124,-3.3124,-3.3124,-3.3124,-3.3124,-3.3124,-3.3124,-3.3124,-3.3124,-3.3124,-3.3124,-3.3124,-3.3124,-3.3124,-3.3124,-3.3124,-3.3124,-3.3124,-3.3124,-3.3124,-3.3124,-3.3031,-3.2943,-3.2943,-3.2654,-3.2089,-3.2089,-3.1838,-3.1386,-3.1386,-3.1386,-3.1386,-3.1386,-3.1304,-3.1083,-3.0537,-3.019,-2.9965,-2.9195,-2.8954,-2.8975,-2.8791,-2.8115,-2.7315,-2.7315,-2.6572,-2.5693,-2.5693,-2.5693,-2.5693,-2.5693,-2.5635,-2.5567,-2.5499,-2.5254,-2.4863,-2.4424,-2.4053,-2.3769,-2.3711,-2.3364,-2.3091,-2.3091,-2.3091,-2.3091,-2.3091,-2.3091,-2.3091,-2.3091,-2.3091,-2.3091,-2.3091,0.0,-2.3091,-2.3091,-2.3091,-2.3091,-2.3091,-2.3091,-2.3247,-2.3662,-2.375,-2.4102,-2.4881,-2.5047,-2.5244,-2.5625,-2.5635,-2.5615,-2.5693,-2.5693,-2.5693,-2.5693,-2.6182,-2.6611,-2.7031,-2.7471,-2.7891,-2.8291,-2.8291,-2.8291,-2.8291,-2.8291,-2.8291,-2.8291,-2.8291,-2.8291,-2.8291,-2.8291,-2.8291,-2.8291,-3.3124,-3.3124,-3.3124,-3.3124,-3.3124,-3.3124,-3.3124,-3.3124,-3.3124,-3.3124,-3.3124,-3.3124,-3.3124,-3.3124,-3.3124,-3.3124,-3.3124,-3.3124,-3.3124,-3.3124,-3.3124,-3.3124,-3.3124,-3.3124,-3.3124,-3.3124,-3.3124,-3.3124,-3.3124,-3.2943,-3.2679,-3.2679,-3.2541,-3.2303,-3.2303,-3.2303,-3.2303,-3.2303,-3.2303,-3.2273,-3.1988,-3.1871,-3.1766,-3.0772,-3.0361,-3.0259,-2.9636,-2.9039,-2.8588,-2.8588,-2.8179,-2.7579,-2.6935,-2.6706,-2.6572,-2.5917,-2.5693,-2.5693,-2.5693,-2.5538,-2.5322,-2.4883,-2.4619,-2.4355,-2.3896,-2.3633,-2.3428,-2.314,-2.3091,-2.3091,-2.3091,-2.3091,-2.3091,-2.3091,-2.3091,0.0,0.0,-2.3091,-2.3091,-2.3091,-2.3091,-2.3091,-2.3091,-2.3305,-2.3574,-2.3769,-2.4219,-2.4695,-2.5096,-2.5293,-2.5527,-2.5684,-2.5693,-2.5693,-2.5693,-2.5693,-2.581,-2.6094,-2.6523,-2.6953,-2.7383,-2.7812,-2.8105,-2.8291,-2.8291,-2.8291,-2.8291,-2.8291,-2.8291,-2.8291,-2.8291,-2.8291,-2.8291,-2.8291,-2.8291,-2.8291,-3.3519,-3.3357,-3.3269,-3.3269,-3.3156,-3.3124,-3.3124,-3.3124,-3.3124,-3.3124,-3.3124,-3.3124,-3.3124,-3.3124,-3.3124,-3.3124,-3.3124,-3.3124,-3.3124,-3.3124,-3.3124,-3.3124,-3.3124,-3.3124,-3.3124,-3.3124,-3.3124,-3.3124,-3.3124,-3.3124,-3.3124,-3.3124,-3.3124,-3.3124,-3.3124,-3.3124,-3.3124,-3.3124,-3.3124,-3.3124,-3.3124,-3.3124,-3.2982,-3.2008,-3.1633,-3.15,-3.0598,-3.009,-2.9818,-2.9818,-2.9636,-2.9177,-2.8002,-2.7589,-2.7363,-2.6062,-2.5693,-2.5693,-2.5693,-2.5693,-2.5606,-2.5312,-2.5194,-2.494,-2.4238,-2.3935,-2.3691,-2.3359,-2.3169,-2.3091,-2.3091,-2.3091,-2.3091,-2.3091,0.0,0.0,0.0,-2.3091,-2.3091,-2.3091,-2.3188,-2.3247,-2.3247,-2.3682,-2.3975,-2.4082,-2.4744,-2.5165,-2.5215,-2.5547,-2.5693,-2.5693,-2.5693,-2.5693,-2.5693,-2.5693,-2.5957,-2.6396,-2.6816,-2.7246,-2.7738,-2.8096,-2.8291,-2.8291,-2.8291,-2.8291,-2.8291,-2.8291,-2.8291,-2.8291,-2.8291,-2.8291,-2.8291,-2.8291,-2.8291,-2.8291,-3.4666,-3.4186,-3.3847,-3.3847,-3.342,-3.3124,-3.3124,-3.3124,-3.3124,-3.3124,-3.3124,-3.3124,-3.3124,-3.3124,-3.3124,-3.3124,-3.3124,-3.3124,-3.3124,-3.3124,-3.3124,-3.3124,-3.3124,-3.3124,-3.3124,-3.3124,-3.3124,-3.3124,-3.3124,-3.3124,-3.3124,-3.3124,-3.3124,-3.3124,-3.3124,-3.3124,-3.3124,-3.3124,-3.3124,-3.3124,-3.3124,-3.3124,-3.3081,-3.2982,-3.2939,-3.2939,-3.284,-3.2052,-3.1089,-3.1089,-3.0305,-2.9177,-2.8002,-2.7589,-2.7363,-2.6062,-2.5693,-2.5693,-2.5693,-2.5693,-2.5684,-2.5645,-2.5371,-2.5096,-2.5037,-2.4355,-2.3779,-2.375,-2.3418,-2.3091,-2.3091,-2.3091,-2.3091,-2.3091,0.0,0.0,-2.3091,-2.3091,-2.3091,-2.3091,-2.3496,-2.374,-2.374,-2.4121,-2.4541,-2.4988,-2.5077,-2.5254,-2.5615,-2.5674,-2.5693,-2.5693,-2.5693,-2.5693,-2.5693,-2.5693,-2.5957,-2.6396,-2.6816,-2.7246,-2.7738,-2.8096,-2.8291,-2.8291,-2.8291,-2.8291,-2.8291,-2.8291,-2.8291,-2.8291,-2.8291,-2.8291,-2.8291,-2.8291,-2.8291,-2.8291,-3.5843,-3.5048,-3.4299,-3.396,-3.3721,-3.347,-3.3174,-3.3124,-3.3124,-3.3124,-3.3124,-3.3124,-3.3124,-3.3124,-3.3124,-3.3124,-3.3124,-3.3124,-3.3124,-3.3124,-3.3124,-3.3124,-3.3124,-3.3124,-3.3124,-3.3124,-3.3124,-3.3124,-3.3124,-3.3124,-3.3124,-3.3124,-3.3124,-3.3124,-3.3124,-3.3124,-3.3124,-3.3124,-3.3124,-3.3124,-3.3124,-3.3124,-3.3124,-3.3124,-3.3124,-3.3124,-3.3124,-3.2797,-3.2382,-3.2382,-3.2052,-3.1468,-3.0226,-2.9315,-2.8308,-2.6294,-2.5693,-2.5693,-2.5693,-2.5693,-2.5693,-2.5693,-2.5605,-2.541,-2.5174,-2.4814,-2.4502,-2.4238,-2.3838,-2.3545,-2.3545,-2.3276,-2.3091,-2.3091,0.0,-2.3091,-2.3091,-2.3369,-2.3545,-2.3545,-2.3916,-2.418,-2.418,-2.457,-2.4893,-2.5106,-2.5322,-2.5557,-2.5674,-2.5693,-2.5693,-2.5693,-2.5693,-2.5693,-2.5693,-2.6006,-2.6357,-2.6787,-2.7217,-2.7646,-2.8057,-2.8223,-2.8291,-2.8291,-2.8291,-2.8291,-2.8291,-2.8291,-2.8291,-2.8291,-2.8291,-2.8291,-2.8291,-2.8291,-2.8291,-2.8291,-3.7025,-3.5756,-3.46,-3.4223,-3.3872,-3.3508,-3.3174,-3.3124,-3.3124,-3.3124,-3.3124,-3.3124,-3.3124,-3.3124,-3.3124,-3.3124,-3.3124,-3.3124,-3.3124,-3.3124,-3.3124,-3.3124,-3.3124,-3.3124,-3.3124,-3.3124,-3.3124,-3.3124,-3.3124,-3.3124,-3.3124,-3.3124,-3.3124,-3.3124,-3.3124,-3.3124,-3.3124,-3.3124,-3.3124,-3.3124,-3.3124,-3.3124,-3.3124,-3.3124,-3.3124,-3.3124,-3.3124,-3.3124,-3.3124,-3.3124,-3.3124,-3.2884,-3.1589,-3.0135,-2.8588,-2.7258,-2.661,-2.638,-2.6754,-2.661,-2.6197,-2.5781,-2.5693,-2.5615,-2.5352,-2.5166,-2.5028,-2.4687,-2.4287,-2.3984,-2.3984,-2.374,-2.35,-2.35,-2.35,-2.35,-2.35,-2.3799,-2.3984,-2.3984,-2.4365,-2.4619,-2.4619,-2.5019,-2.5283,-2.5283,-2.5566,-2.5693,-2.5693,-2.5693,-2.5693,-2.5693,-2.5693,-2.5752,-2.5937,-2.624,-2.6602,-2.7021,-2.7461,-2.7891,-2.8291,-2.8291,-2.8291,-2.8291,-2.8291,-2.8291,-2.8291,-2.8291,-2.8291,-2.8291,-2.8291,-2.8291,-2.8291,-2.8291,-2.8291,-2.8291,-3.8214,-3.6296,-3.468,-3.468,-3.3822,-3.3081,-3.3124,-3.3124,-3.3124,-3.3124,-3.3124,-3.3124,-3.3124,-3.3124,-3.3124,-3.3124,-3.3124,-3.3124,-3.3124,-3.3124,-3.3124,-3.3124,-3.3124,-3.3124,-3.3124,-3.3124,-3.3124,-3.3124,-3.3124,-3.3124,-3.3124,-3.3124,-3.3124,-3.3124,-3.3124,-3.3124,-3.3124,-3.3124,-3.3124,-3.3124,-3.3124,-3.3124,-3.3124,-3.3124,-3.3124,-3.3124,-3.3124,-3.3124,-3.3124,-3.3124,-3.3124,-3.2884,-3.1589,-2.9544,-2.7861,-2.9039,-2.8541,-2.7861,-2.9085,-2.8541,-2.7315,-2.6014,-2.5684,-2.5693,-2.5693,-2.5391,-2.5116,-2.5116,-2.4727,-2.4424,-2.4424,-2.4414,-2.4414,-2.4414,-2.4414,-2.4414,-2.4414,-2.4414,-2.4424,-2.4424,-2.4805,-2.5116,-2.5116,-2.5478,-2.5693,-2.5693,-2.5693,-2.5693,-2.5693,-2.5693,-2.5693,-2.5693,-2.5693,-2.5947,-2.6387,-2.6396,-2.6602,-2.7021,-2.7461,-2.7891,-2.8291,-2.8291,-2.8291,-2.8291,-2.8291,-2.8291,-2.8291,-2.8291,-2.8291,-2.8291,-2.8291,-2.8291,-2.8291,-2.8291,-2.8291,-2.8291,-3.9376,-3.7136,-3.5132,-3.4788,-3.4123,-3.352,-3.3174,-3.3124,-3.3124,-3.3124,-3.3124,-3.3124,-3.3124,-3.3124,-3.3124,-3.3124,-3.3124,-3.3124,-3.3124,-3.3124,-3.3124,-3.3124,-3.3124,-3.3124,-3.3124,-3.3124,-3.3124,-3.3124,-3.3124,-3.3124,-3.3124,-3.3124,-3.3124,-3.3124,-3.3124,-3.3124,-3.3124,-3.3124,-3.3124,-3.3124,-3.3124,-3.3124,-3.3124,-3.3124,-3.3124,-3.3124,-3.3124,-3.3124,-3.3124,-3.3124,-3.3124,-3.2884,-3.1589,-3.0721,-3.0033,-2.9544,-2.9131,-2.8947,-2.9315,-2.9131,-2.8588,-2.7352,-2.6342,-2.5693,-2.5693,-2.5635,-2.5537,-2.5537,-2.5185,-2.4873,-2.4873,-2.4619,-2.4414,-2.4414,-2.4414,-2.4414,-2.4414,-2.4678,-2.4873,-2.4873,-2.5264,-2.5537,-2.5537,-2.5615,-2.5693,-2.5693,-2.5693,-2.5693,-2.5693,-2.5693,-2.5693,-2.5693,-2.5693,-2.5947,-2.6387,-2.668,-2.7041,-2.748,-2.79,-2.8174,-2.8291,-2.8291,-2.8291,-2.8291,-2.8291,-2.8291,-2.8291,-2.8291,-2.8291,-2.8291,-2.8291,-2.8291,-2.8291,-2.8291,-2.8291,-2.8291,-3.9697,-3.7568,-3.559,-3.4577,-3.3935,-3.3458,-3.3174,-3.3124,-3.3124,-3.3124,-3.3124,-3.3124,-3.3124,-3.3124,-3.3124,-3.3124,-3.3124,-3.3124,-3.3124,-3.3124,-3.3124,-3.3124,-3.3124,-3.3124,-3.3124,-3.3124,-3.3124,-3.3124,-3.3124,-3.3124,-3.3124,-3.3124,-3.3124,-3.3124,-3.3124,-3.3124,-3.3124,-3.3124,-3.3124,-3.3124,-3.3124,-3.3124,-3.3124,-3.3124,-3.3124,-3.3124,-3.3124,-3.3124,-3.3124,-3.3124,-3.3124,-3.2982,-3.2196,-3.1589,-3.1178,-3.0911,-3.0508,-3.0226,-3.0732,-3.0496,-2.9954,-2.9223,-2.8085,-2.7163,-2.7163,-2.6802,-2.6428,-2.6428,-2.5844,-2.5332,-2.5332,-2.5117,-2.4894,-2.4894,-2.4894,-2.4894,-2.4894,-2.5166,-2.5332,-2.5332,-2.5566,-2.5693,-2.5693,-2.5693,-2.5693,-2.5693,-2.5693,-2.5693,-2.5693,-2.5693,-2.5693,-2.5693,-2.5693,-2.6025,-2.6631,-2.6894,-2.7236,-2.7718,-2.8096,-2.8291,-2.8291,-2.8291,-2.8291,-2.8291,-2.8291,-2.8291,-2.8291,-2.8291,-2.8291,-2.8291,-2.8291,-2.8291,-2.8291,-2.8291,-2.8291,-2.8291,-3.9438,-3.7758,-3.6025,-3.4355,-3.3606,-3.3197,-3.3124,-3.3124,-3.3124,-3.3124,-3.3124,-3.3124,-3.3124,-3.3124,-3.3124,-3.3124,-3.3124,-3.3124,-3.3124,-3.3124,-3.3124,-3.3124,-3.3124,-3.3124,-3.3124,-3.3124,-3.3124,-3.3124,-3.3124,-3.3124,-3.3124,-3.3124,-3.3124,-3.3124,-3.3124,-3.3124,-3.3124,-3.3124,-3.3124,-3.3124,-3.3124,-3.3124,-3.3124,-3.3124,-3.3124,-3.3124,-3.3124,-3.3124,-3.3124,-3.3124,-3.3124,-3.3124,-3.3124,-3.2283,-3.1589,-3.2754,-3.2283,-3.1633,-3.2797,-3.2239,-3.1356,-3.1356,-3.0541,-2.9681,-2.9453,-2.8541,-2.7767,-2.7767,-2.6849,-2.6014,-2.5878,-2.5878,-2.583,-2.5742,-2.5693,-2.5693,-2.5693,-2.5693,-2.5693,-2.5693,-2.5693,-2.5693,-2.5693,-2.5693,-2.5693,-2.5693,-2.5693,-2.5693,-2.5693,-2.5693,-2.5693,-2.5693,-2.5693,-2.6103,-2.7012,-2.7012,-2.7246,-2.7777,-2.8105,-2.8291,-2.8291,-2.8291,-2.8291,-2.8291,-2.8291,-2.8291,-2.8291,-2.8291,-2.8291,-2.8291,-2.8291,-2.8291,-2.8291,-2.8291,-2.8291,-2.8291,-4.0339,-3.8503,-3.6577,-3.5391,-3.4724,-3.4079,-3.324,-3.3124,-3.3124,-3.3124,-3.3124,-3.3124,-3.3124,-3.3124,-3.3124,-3.3124,-3.3124,-3.3124,-3.3124,-3.3124,-3.3124,-3.3124,-3.3124,-3.3124,-3.3124,-3.3124,-3.3124,-3.3124,-3.3124,-3.3124,-3.3124,-3.3124,-3.3124,-3.3124,-3.3124,-3.3124,-3.3124,-3.3124,-3.3124,-3.3124,-3.3124,-3.3124,-3.3124,-3.3124,-3.3124,-3.3124,-3.3124,-3.3124,-3.3124,-3.3124,-3.3124,-3.3124,-3.3124,-3.2896,-3.2742,-3.3025,-3.2884,-3.2754,-3.3025,-3.2896,-3.2698,-3.2698,-3.2469,-3.1789,-2.9818,-2.9177,-2.8993,-2.8993,-2.8808,-2.8308,-2.7352,-2.7173,-2.6849,-2.5878,-2.5693,-2.5693,-2.5693,-2.5693,-2.5693,-2.5693,-2.5693,-2.5693,-2.5693,-2.5693,-2.5693,-2.5693,-2.5693,-2.5693,-2.5693,-2.5693,-2.5693,-2.5693,-2.5693,-2.6103,-2.7012,-2.7012,-2.7402,-2.8154,-2.8252,-2.8291,-2.8291,-2.8291,-2.8291,-2.8291,-2.8291,-2.8291,-2.8291,-2.8291,-2.8291,-2.8291,-2.8291,-2.8291,-2.8291,-2.8291,-2.8291,-2.8291,-3.9895,-3.8763,-3.7456,-3.6062,-3.5602,-3.5047,-3.4024,-3.3869,-3.367,-3.3154,-3.3124,-3.3124,-3.3124,-3.3124,-3.3124,-3.3124,-3.3124,-3.3124,-3.3124,-3.3124,-3.3124,-3.3124,-3.3124,-3.3124,-3.3124,-3.3124,-3.3124,-3.3124,-3.3124,-3.3124,-3.3124,-3.3124,-3.3124,-3.3124,-3.3124,-3.3124,-3.3124,-3.3124,-3.3124,-3.3124,-3.3124,-3.3124,-3.3124,-3.3124,-3.3124,-3.3124,-3.3124,-3.3124,-3.3124,-3.3124,-3.3124,-3.3124,-3.3124,-3.3124,-3.3124,-3.3124,-3.3124,-3.3124,-3.3124,-3.3124,-3.3124,-3.3124,-3.3124,-3.2754,-3.1468,-3.0676,-3.0271,-3.0271,-2.9361,-2.8541,-2.8448,-2.7494,-2.6849,-2.7389,-2.6982,-2.6802,-2.7389,-2.7484,-2.7258,-2.6658,-2.662,-2.639,-2.5781,-2.5693,-2.5693,-2.5693,-2.5693,-2.5693,-2.5693,-2.5693,-2.5693,-2.5693,-2.5937,-2.6357,-2.7012,-2.7217,-2.7656,-2.8291,-2.8291,-2.8291,-2.8291,-2.8291,-2.8291,-2.8291,-2.8291,-2.8291,-2.8291,-2.8291,-2.8291,-2.8291,-2.8291,-2.8291,-2.8291,-2.8291,-2.8291,-2.8291,-3.9372,-3.8962,-3.8395,-3.678,-3.6487,-3.6053,-3.4856,-3.4705,-3.4317,-3.324,-3.3124,-3.3124,-3.3124,-3.3124,-3.3124,-3.3124,-3.3124,-3.3124,-3.3124,-3.3124,-3.3124,-3.3124,-3.3124,-3.3124,-3.3124,-3.3124,-3.3124,-3.3124,-3.3124,-3.3124,-3.3124,-3.3124,-3.3124,-3.3124,-3.3124,-3.3124,-3.3124,-3.3124,-3.3124,-3.3124,-3.3124,-3.3124,-3.3124,-3.3124,-3.3124,-3.3124,-3.3124,-3.3124,-3.3124,-3.3124,-3.3124,-3.3124,-3.3124,-3.3124,-3.3124,-3.3124,-3.3124,-3.3124,-3.3124,-3.3124,-3.3124,-3.3124,-3.3124,-3.3124,-3.3124,-3.2283,-3.1545,-3.1545,-2.9909,-2.8773,-2.9544,-2.8028,-2.7258,-2.9085,-2.8541,-2.8272,-2.9269,-2.9407,-2.9039,-2.8049,-2.7908,-2.7494,-2.6428,-2.6332,-2.6332,-2.6332,-2.6332,-2.6245,-2.6062,-2.6014,-2.5927,-2.5693,-2.6162,-2.6592,-2.7012,-2.7451,-2.7881,-2.8291,-2.8291,-2.8291,-2.8291,-2.8291,-2.8291,-2.8291,-2.8291,-2.8291,-2.8291,-2.8291,-2.8291,-2.8291,-2.8291,-2.8291,-2.8291,-2.8291,-2.8291,-2.8291,-4.0211,-3.9698,-3.8959,-3.7805,-3.7587,-3.6919,-3.4979,-3.4705,-3.4317,-3.324,-3.3124,-3.3124,-3.3124,-3.3124,-3.3124,-3.3124,-3.3124,-3.3124,-3.3124,-3.3124,-3.3124,-3.3124,-3.3124,-3.3124,-3.3124,-3.3124,-3.3124,-3.3124,-3.3124,-3.3124,-3.3124,-3.3124,-3.3124,-3.3124,-3.3124,-3.3124,-3.3124,-3.3124,-3.3124,-3.3124,-3.3124,-3.3124,-3.3124,-3.3124,-3.3124,-3.3124,-3.3124,-3.3124,-3.3124,-3.3124,-3.3124,-3.3124,-3.3124,-3.3124,-3.3124,-3.3124,-3.3124,-3.3124,-3.3124,-3.3124,-3.3124,-3.3124,-3.3124,-3.3124,-3.3124,-3.2982,-3.284,-3.284,-3.2568,-3.2064,-3.1134,-3.0676,-3.0214,-2.9498,-2.9269,-2.9223,-2.9361,-2.9407,-2.9361,-2.9177,-2.9177,-2.9085,-2.8901,-2.8901,-2.8901,-2.8901,-2.8901,-2.8448,-2.741,-2.7363,-2.6849,-2.5732,-2.6162,-2.6592,-2.7012,-2.7451,-2.7881,-2.8291,-2.8291,-2.8291,-2.8291,-2.8291,-2.8291,-2.8291,-2.8291,-2.8291,-2.8291,-2.8291,-2.8291,-2.8291,-2.8291,-2.8291,-2.8291,-2.8291,-2.8291,-2.8291,-3.9843,-3.9619,-3.9265,-3.8782,-3.8708,-3.7979,-3.5868,-3.5547,-3.4966,-3.3313,-3.3124,-3.3124,-3.3124,-3.3124,-3.3124,-3.3124,-3.3124,-3.3124,-3.3124,-3.3124,-3.3124,-3.3124,-3.3124,-3.3124,-3.3124,-3.3124,-3.3124,-3.3124,-3.3124,-3.3124,-3.3124,-3.3124,-3.3124,-3.3124,-3.3124,-3.3124,-3.3124,-3.3124,-3.3124,-3.3124,-3.3124,-3.3124,-3.3124,-3.3124,-3.3124,-3.3124,-3.3124,-3.3124,-3.3124,-3.3124,-3.3124,-3.3124,-3.3124,-3.3124,-3.3124,-3.3124,-3.3124,-3.3124,-3.3124,-3.3124,-3.3124,-3.3124,-3.3124,-3.3124,-3.3124,-3.3124,-3.3124,-3.3124,-3.2513,-3.2096,-3.2239,-3.1134,-3.0451,-3.1323,-3.0866,-3.0631,-3.138,-3.1468,-3.119,-3.0496,-2.9806,-2.9407,-2.9407,-2.9407,-2.9407,-2.9407,-2.9407,-2.9177,-2.8634,-2.8588,-2.8038,-2.6802,-2.7376,-2.7492,-2.7012,-2.7685,-2.8105,-2.8291,-2.8291,-2.8291,-2.8291,-2.8291,-2.8291,-2.8291,-2.8291,-2.8291,-2.8291,-2.8291,-2.8291,-2.8291,-2.8291,-2.8291,-2.8291,-2.8291,-2.8291,-2.8291]},{"header":{"parameterUnit":"m.s-1","parameterCategory":1,"la1":30.6,"la2":28.766,"lo1":-90.7593,"lo2":-88.6598,"dy":0.0162,"dx":0.0183,"nx":116,"ny":114,"refTime":"2023-07-12T06:00:00:Z","depth":0,"parameterNumber":3,"parameterNumberName":"V-component_of_WINDS"},"data":[0.0,0.0,0.0,0.0,0.0,0.0,0.0,0.0,0.0,0.0,0.0,0.0,0.0,0.0,0.0,0.0,0.0,0.0,0.0,0.0,0.0,0.0,0.0,0.0,0.0,0.0,0.0,0.0,0.0,0.0,0.0,0.0,0.0,0.0,0.0,0.0,0.0,0.0,0.0,0.0,0.0,0.0,0.0,0.0,0.0,0.0,0.0,0.0,0.0,0.0,0.0,0.0,0.0,0.0,0.0,0.0,0.0,0.0,0.0,0.0,0.0,0.0,0.0,0.0,0.0,0.0,0.0,0.0,0.0,0.0,0.0,0.0,0.0,0.0,0.0,0.0,0.0,0.0,0.0,0.0,0.0,0.0,0.0,0.0,0.0,0.0,0.0,0.0,0.0,0.0,0.0,0.0,0.0,0.0,0.0,0.0,0.0,0.0,0.0,0.0,0.0,0.0,0.0,0.0,0.0,0.0,0.0,0.0,0.0,0.0,0.0,0.0,0.0,0.0,0.0,0.0,0.0,0.0,0.0,0.0,0.0,0.0,0.0,0.0,0.0,0.0,0.0,0.0,0.0,0.0,0.0,0.0,0.0,0.0,0.0,0.0,0.0,0.0,0.0,0.0,0.0,0.0,0.0,0.0,0.0,0.0,0.0,0.0,0.0,0.0,0.0,0.0,0.0,0.0,0.0,0.0,0.0,0.0,0.0,0.0,0.0,0.0,0.0,0.0,0.0,0.0,0.0,0.0,0.0,0.0,0.0,0.0,0.0,0.0,0.0,0.0,0.0,0.0,0.0,0.0,0.0,0.0,0.0,0.0,0.0,0.0,0.0,0.0,0.0,0.0,0.0,0.0,0.0,0.0,0.0,0.0,0.0,0.0,0.0,0.0,0.0,0.0,0.0,0.0,0.0,0.0,0.0,0.0,0.0,0.0,0.0,0.0,0.0,0.0,0.0,0.0,0.0,0.0,0.0,0.0,0.0,0.0,0.0,0.0,0.0,0.0,0.0,0.0,0.0,0.0,0.0,0.0,0.0,0.0,0.0,0.0,0.0,0.0,0.0,0.0,0.0,0.0,0.0,0.0,0.0,0.0,0.0,0.0,0.0,0.0,0.0,0.0,0.0,0.0,0.0,0.0,0.0,0.0,0.0,0.0,0.0,0.0,0.0,0.0,0.0,0.0,0.0,0.0,0.0,0.0,0.0,0.0,0.0,0.0,0.0,0.0,0.0,0.0,0.0,0.0,0.0,0.0,0.0,0.0,0.0,0.0,0.0,0.0,0.0,0.0,0.0,0.0,0.0,0.0,0.0,0.0,0.0,0.0,0.0,0.0,0.0,0.0,0.0,0.0,0.0,0.0,0.0,0.0,0.0,0.0,0.0,0.0,0.0,0.0,0.0,0.0,0.0,0.0,0.0,0.0,0.0,0.0,0.0,0.0,0.0,0.0,0.0,0.0,0.0,0.0,0.0,0.0,0.0,0.0,0.0,0.0,0.0,0.0,0.0,0.0,0.0,0.0,0.0,0.0,0.0,0.0,0.0,0.0,0.0,0.0,0.0,0.0,0.0,0.0,0.0,0.0,0.0,0.0,0.0,0.0,0.0,0.0,0.0,0.0,0.0,0.0,0.0,0.0,0.0,0.0,0.0,0.0,0.0,0.0,0.0,0.0,0.0,0.0,0.0,0.0,0.0,0.0,0.0,0.0,0.0,0.0,0.0,0.0,0.0,0.0,0.0,0.0,0.0,0.0,0.0,0.0,0.0,0.0,0.0,0.0,0.0,0.0,0.0,0.0,0.0,0.0,0.0,0.0,0.0,0.0,0.0,0.0,0.0,0.0,0.0,0.0,0.0,0.0,0.0,0.0,0.0,0.0,0.0,0.0,0.0,0.0,0.0,0.0,0.0,0.0,0.0,0.0,0.0,0.0,0.0,0.0,0.0,0.0,0.0,0.0,0.0,0.0,0.0,0.0,0.0,0.0,0.0,0.0,0.0,0.0,0.0,0.0,0.0,0.0,0.0,0.0,0.0,0.0,0.0,0.0,0.0,0.0,0.0,0.0,0.0,0.0,0.0,0.0,0.0,0.0,0.0,0.0,0.0,0.0,0.0,0.0,0.0,0.0,0.0,0.0,0.0,0.0,0.0,0.0,0.0,0.0,0.0,0.0,0.0,0.0,0.0,0.0,0.0,0.0,0.0,0.0,0.0,0.0,0.0,0.0,0.0,0.0,0.0,0.0,0.0,0.0,0.0,0.0,0.0,0.0,0.0,0.0,0.0,0.0,0.0,0.0,0.0,0.0,0.0,0.0,0.0,0.0,0.0,0.0,0.0,0.0,0.0,0.0,0.0,0.0,0.0,0.0,0.0,0.0,0.0,0.0,0.0,0.0,0.0,0.0,0.0,0.0,0.0,0.0,0.0,0.0,0.0,0.0,0.0,0.0,0.0,0.0,0.0,0.0,0.0,0.0,0.0,0.0,0.0,0.0,0.0,0.0,0.0,0.0,0.0,0.0,0.0,0.0,0.0,0.0,0.0,0.0,0.0,0.0,0.0,0.0,0.0,0.0,0.0,0.0,0.0,0.0,0.0,0.0,0.0,0.0,0.0,0.0,0.0,0.0,0.0,0.0,0.0,0.0,0.0,0.0,0.0,0.0,0.0,0.0,0.0,0.0,0.0,0.0,0.0,0.0,0.0,0.0,0.0,0.0,0.0,0.0,0.0,0.0,0.0,0.0,0.0,0.0,0.0,0.0,0.0,0.0,0.0,0.0,0.0,0.0,0.0,0.0,0.0,0.0,0.0,0.0,0.0,0.0,0.0,0.0,0.0,0.0,0.0,0.0,0.0,0.0,0.0,0.0,0.0,0.0,0.0,0.0,0.0,0.0,0.0,0.0,0.0,0.0,0.0,0.0,0.0,0.0,0.0,0.0,0.0,0.0,0.0,0.0,0.0,0.0,0.0,0.0,0.0,0.0,0.0,0.0,0.0,0.0,0.0,0.0,0.0,0.0,0.0,0.0,0.0,0.0,0.0,0.0,0.0,0.0,0.0,0.0,0.0,0.0,0.0,0.0,0.0,0.0,0.0,0.0,0.0,0.0,0.0,0.0,0.0,0.0,0.0,0.0,0.0,0.0,0.0,0.0,0.0,0.0,0.0,0.0,0.0,0.0,0.0,0.0,0.0,0.0,0.0,0.0,0.0,0.0,0.0,0.0,0.0,0.0,0.0,0.0,0.0,0.0,0.0,0.0,0.0,0.0,0.0,0.0,0.0,0.0,0.0,0.0,0.0,0.0,0.0,0.0,0.0,0.0,0.0,0.0,0.0,0.0,0.0,0.0,0.0,0.0,0.0,0.0,0.0,0.0,0.0,0.0,0.0,0.0,0.0,0.0,0.0,0.0,0.0,0.0,0.0,0.0,0.0,0.0,0.0,0.0,0.0,0.0,0.0,0.0,0.0,0.0,0.0,0.0,0.0,0.0,0.0,0.0,0.0,0.0,0.0,0.0,0.0,0.0,0.0,0.0,0.0,0.0,0.0,0.0,0.0,0.0,0.0,0.0,0.0,0.0,0.0,0.0,0.0,0.0,0.0,0.0,0.0,0.0,0.0,0.0,0.0,0.0,0.0,0.0,0.0,0.0,0.0,0.0,0.0,0.0,0.0,0.0,0.0,0.0,0.0,0.0,0.0,0.0,0.0,0.0,0.0,0.0,0.0,0.0,0.0,0.0,0.0,0.0,0.0,0.0,0.0,0.0,0.0,0.0,0.0,0.0,0.0,0.0,0.0,0.0,0.0,0.0,0.0,0.0,0.0,0.0,0.0,0.0,0.0,0.0,0.0,0.0,0.0,0.0,0.0,0.0,0.0,0.0,0.0,0.0,0.0,0.0,0.0,0.0,0.0,0.0,0.0,0.0,0.0,0.0,0.0,0.0,0.0,0.0,0.0,0.0,0.0,0.0,0.0,0.0,0.0,0.0,0.0,0.0,0.0,0.0,0.0,0.0,0.0,0.0,0.0,0.0,0.0,0.0,0.0,0.0,0.0,0.0,0.0,0.0,0.0,0.0,0.0,0.0,0.0,0.0,0.0,0.0,0.0,0.0,0.0,0.0,0.0,0.0,0.0,0.0,0.0,0.0,0.0,0.0,0.0,0.0,0.0,0.0,0.0,0.0,0.0,0.0,0.0,0.0,0.0,0.0,0.0,0.0,0.0,0.0,0.0,0.0,0.0,0.0,0.0,0.0,0.0,0.0,0.0,0.0,0.0,0.0,0.0,0.0,0.0,0.0,0.0,0.0,0.0,0.0,0.0,0.0,0.0,0.0,0.0,0.0,0.0,0.0,0.0,0.0,0.0,0.0,0.0,0.0,0.0,0.0,0.0,0.0,0.0,0.0,0.0,0.0,0.0,0.0,0.0,0.0,0.0,0.0,0.0,0.0,0.0,0.0,0.0,0.0,0.0,0.0,0.0,0.0,0.0,0.0,0.0,0.0,0.0,0.0,0.0,0.0,0.0,0.0,0.0,0.0,0.0,0.0,0.0,0.0,0.0,0.0,0.0,0.0,0.0,0.0,0.0,0.0,0.0,0.0,0.0,0.0,0.0,0.0,0.0,0.0,0.0,0.0,0.0,0.0,0.0,0.0,0.0,0.0,0.0,0.0,0.0,0.0,0.0,0.0,0.0,0.0,0.0,0.0,0.0,0.0,0.0,0.0,0.0,0.0,0.0,0.0,0.0,0.0,0.0,0.0,0.0,0.0,0.0,0.0,0.0,0.0,0.0,0.0,0.0,0.0,0.0,0.0,0.0,0.0,0.0,0.0,0.0,0.0,0.0,0.0,0.0,0.0,0.0,0.0,0.0,0.0,0.0,0.0,0.0,0.0,0.0,0.0,0.0,0.0,0.0,0.0,0.0,0.0,0.0,0.0,0.0,0.0,0.0,0.0,0.0,0.0,0.0,0.0,0.0,0.0,0.0,0.0,0.0,0.0,0.0,0.0,0.0,0.0,0.0,0.0,0.0,0.0,0.0,0.0,0.0,0.0,0.0,0.0,0.0,0.0,0.0,0.0,0.0,0.0,0.0,0.0,0.0,0.0,0.0,0.0,0.0,0.0,0.0,0.0,0.0,0.0,0.0,0.0,0.0,0.0,0.0,0.0,0.0,0.0,0.0,0.0,0.0,0.0,0.0,0.0,0.0,0.0,0.0,0.0,0.0,0.0,0.0,0.0,0.0,0.0,0.0,0.0,0.0,0.0,0.0,0.0,0.0,0.0,0.0,0.0,0.0,0.0,0.0,0.0,0.0,0.0,0.0,0.0,0.0,0.0,0.0,0.0,0.0,0.0,0.0,0.0,0.0,0.0,0.0,0.0,0.0,0.0,0.0,0.0,0.0,0.0,0.0,0.0,0.0,0.0,0.0,0.0,0.0,0.0,0.0,0.0,0.0,0.0,0.0,0.0,0.0,0.0,0.0,0.0,0.0,0.0,0.0,0.0,0.0,0.0,0.0,0.0,0.0,0.0,0.0,0.0,0.0,0.0,0.0,0.0,0.0,0.0,0.0,0.0,0.0,0.0,0.0,0.0,0.0,0.0,0.0,0.0,0.0,0.0,0.0,0.0,0.0,0.0,0.0,0.0,0.0,0.0,0.0,0.0,0.0,0.0,0.0,0.0,0.0,0.0,0.0,0.0,0.0,0.0,0.0,0.0,0.0,0.0,0.0,0.0,0.0,0.0,0.0,0.0,0.0,0.0,0.0,0.0,0.0,0.0,0.0,0.0,0.0,0.0,0.0,0.0,0.0,0.0,0.0,0.0,0.0,0.0,0.0,0.0,0.0,0.0,0.0,0.0,0.0,0.0,0.0,0.0,0.0,0.0,0.0,0.0,0.0,0.0,0.0,0.0,0.0,0.0,0.0,0.0,0.0,0.0,0.0,0.0,0.0,0.0,0.0,0.0,0.0,0.0,0.0,0.0,0.0,0.0,0.0,0.0,0.0,0.0,0.0,0.0,0.0,0.0,0.0,0.0,0.0,0.0,0.0,0.0,0.0,0.0,0.0,0.0,0.0,0.0,0.0,0.0,0.0,0.0,0.0,0.0,0.0,0.0,0.0,0.0,0.0,0.0,-3.56,0.0,0.0,0.0,0.0,0.0,0.0,0.0,0.0,0.0,0.0,0.0,0.0,0.0,0.0,0.0,0.0,0.0,0.0,0.0,0.0,0.0,0.0,0.0,0.0,0.0,0.0,0.0,0.0,0.0,0.0,0.0,0.0,0.0,0.0,0.0,0.0,0.0,0.0,0.0,0.0,0.0,0.0,0.0,0.0,0.0,0.0,0.0,0.0,0.0,0.0,0.0,0.0,0.0,0.0,0.0,0.0,0.0,0.0,0.0,0.0,0.0,0.0,0.0,0.0,0.0,0.0,0.0,0.0,0.0,0.0,0.0,0.0,0.0,0.0,0.0,0.0,0.0,0.0,0.0,0.0,0.0,0.0,0.0,0.0,0.0,0.0,0.0,0.0,0.0,0.0,0.0,0.0,0.0,0.0,0.0,0.0,0.0,0.0,0.0,0.0,0.0,0.0,0.0,0.0,0.0,0.0,0.0,0.0,0.0,0.0,0.0,0.0,0.0,0.0,0.0,0.0,-3.56,0.0,0.0,0.0,0.0,0.0,0.0,0.0,0.0,0.0,0.0,0.0,0.0,0.0,0.0,0.0,0.0,0.0,0.0,0.0,0.0,0.0,0.0,0.0,0.0,0.0,0.0,0.0,0.0,0.0,0.0,0.0,0.0,0.0,0.0,0.0,0.0,0.0,0.0,0.0,0.0,0.0,0.0,0.0,0.0,0.0,0.0,0.0,0.0,0.0,0.0,0.0,0.0,0.0,0.0,0.0,0.0,0.0,0.0,0.0,0.0,0.0,0.0,0.0,0.0,0.0,0.0,0.0,0.0,0.0,0.0,0.0,0.0,0.0,0.0,0.0,0.0,0.0,0.0,0.0,0.0,0.0,0.0,0.0,0.0,0.0,0.0,0.0,0.0,0.0,0.0,0.0,0.0,0.0,0.0,0.0,0.0,0.0,0.0,0.0,0.0,0.0,0.0,0.0,0.0,0.0,0.0,0.0,0.0,-3.6998,-3.7297,-3.7905,-3.7905,-3.7905,-3.7838,-3.6546,-3.6005,-3.6039,0.0,0.0,0.0,0.0,0.0,0.0,0.0,0.0,0.0,0.0,0.0,0.0,0.0,0.0,0.0,0.0,0.0,0.0,0.0,0.0,0.0,0.0,0.0,0.0,0.0,0.0,0.0,0.0,0.0,0.0,0.0,0.0,0.0,0.0,0.0,0.0,0.0,0.0,0.0,-3.2895,-3.4062,-3.4137,-3.3339,-3.3401,0.0,0.0,0.0,0.0,0.0,0.0,0.0,0.0,0.0,0.0,0.0,0.0,0.0,0.0,0.0,0.0,0.0,0.0,0.0,0.0,0.0,0.0,0.0,0.0,0.0,0.0,0.0,0.0,0.0,0.0,0.0,0.0,0.0,0.0,0.0,0.0,0.0,0.0,0.0,0.0,0.0,0.0,0.0,-3.4296,-3.486,0.0,0.0,0.0,0.0,0.0,0.0,0.0,0.0,0.0,0.0,0.0,0.0,0.0,0.0,-3.7601,-3.7601,-3.7652,-3.7753,-3.7753,-3.7821,-3.7905,-3.7905,-3.7905,-3.7889,-3.7702,0.0,-3.7618,-3.7719,0.0,0.0,0.0,0.0,0.0,0.0,0.0,0.0,0.0,0.0,0.0,0.0,0.0,0.0,0.0,0.0,0.0,0.0,0.0,0.0,0.0,0.0,0.0,0.0,0.0,0.0,0.0,0.0,0.0,0.0,0.0,0.0,0.0,0.0,0.0,0.0,-3.3469,-3.3633,-3.3735,-3.4712,-3.5005,-3.4704,-3.4333,-3.3786,-3.3172,-3.3172,0.0,0.0,0.0,0.0,0.0,0.0,0.0,0.0,0.0,0.0,0.0,0.0,0.0,0.0,0.0,0.0,0.0,0.0,0.0,0.0,0.0,0.0,0.0,0.0,0.0,0.0,0.0,0.0,0.0,0.0,0.0,0.0,0.0,0.0,0.0,0.0,0.0,0.0,0.0,-3.4371,-3.5121,-3.5052,-3.5362,-3.56,0.0,0.0,0.0,0.0,0.0,0.0,0.0,0.0,0.0,-3.7415,-3.8125,-3.8514,-3.8514,-3.8937,-3.9343,-3.9766,-3.9766,-3.9969,-4.0375,-4.0375,-4.0375,-4.0375,-4.0375,-4.0375,-4.0273,-3.9022,-3.8514,-3.8565,0.0,0.0,0.0,0.0,-3.9123,-3.9123,0.0,0.0,0.0,0.0,0.0,0.0,0.0,0.0,0.0,0.0,0.0,0.0,0.0,0.0,0.0,-2.76,0.0,0.0,0.0,0.0,0.0,0.0,0.0,0.0,0.0,0.0,0.0,-3.3339,-3.3521,-3.3937,-3.46,-3.5293,-3.56,-3.5577,-3.5075,-3.4479,-3.3862,-3.3862,-3.3862,0.0,0.0,0.0,0.0,0.0,0.0,0.0,0.0,0.0,0.0,0.0,0.0,0.0,0.0,0.0,0.0,0.0,0.0,0.0,0.0,0.0,0.0,0.0,0.0,0.0,0.0,0.0,0.0,0.0,0.0,0.0,0.0,0.0,0.0,0.0,0.0,0.0,0.0,-3.5293,-3.5407,-3.4918,-3.5484,-3.591,0.0,0.0,0.0,0.0,0.0,0.0,-3.8159,-3.8548,-3.8751,-3.8751,-3.9462,-3.9834,-3.9834,-4.0595,-4.1212,-4.1779,-4.1982,-4.2354,-4.2905,-4.2905,-4.2905,-4.2905,-4.2905,-4.2905,-4.2709,-4.0679,-3.9834,-3.9884,-4.0468,-4.0671,-4.0671,-4.0671,-4.0671,-4.0671,0.0,0.0,0.0,0.0,0.0,0.0,0.0,0.0,0.0,0.0,0.0,0.0,0.0,0.0,-2.76,-2.76,-2.76,-2.76,0.0,0.0,0.0,0.0,0.0,0.0,0.0,0.0,0.0,-3.2641,-3.3287,-3.3937,-3.46,-3.5293,-3.56,-3.56,-3.556,-3.5184,-3.4552,-3.4552,-3.4552,-3.4616,0.0,0.0,0.0,0.0,0.0,0.0,0.0,0.0,0.0,0.0,0.0,0.0,0.0,0.0,0.0,0.0,0.0,0.0,0.0,0.0,0.0,0.0,0.0,0.0,0.0,0.0,0.0,0.0,0.0,0.0,0.0,0.0,0.0,0.0,0.0,0.0,0.0,0.0,0.0,-3.5538,-3.6242,0.0,0.0,0.0,0.0,-3.7838,-3.8481,-3.8903,-3.8937,-4.0273,-4.1035,-4.1035,-4.1745,-4.2117,-4.2117,-4.2878,-4.324,-4.3291,-4.4045,-4.4462,-4.4479,-4.4479,-4.4479,-4.4479,-4.4479,-4.4479,-4.4378,-4.276,-4.2117,-4.2134,-4.2168,-4.2185,-4.2185,-4.2185,-4.2185,-4.2185,0.0,0.0,0.0,0.0,0.0,0.0,0.0,0.0,0.0,0.0,0.0,0.0,0.0,-2.76,-2.76,-2.76,-2.76,-2.76,-2.76,0.0,0.0,0.0,0.0,0.0,0.0,0.0,-3.1853,-3.2586,-3.3261,-3.371,-3.4003,-3.5616,-3.6125,-3.5714,-3.6653,-3.669,-3.5981,-3.5471,-3.523,-3.5253,-3.5492,-3.547,0.0,0.0,0.0,0.0,0.0,0.0,0.0,0.0,0.0,0.0,0.0,0.0,0.0,0.0,0.0,0.0,0.0,0.0,0.0,0.0,0.0,0.0,0.0,0.0,0.0,0.0,0.0,0.0,0.0,0.0,0.0,0.0,0.0,0.0,0.0,0.0,0.0,-3.6366,-3.7043,0.0,0.0,-3.8447,-3.9005,-3.9952,-4.0273,-4.0832,-4.1796,-4.2337,-4.2861,-4.3352,-4.4096,-4.4701,-4.5111,-4.5461,-4.5807,-4.6237,-4.6079,-4.6007,-4.6007,-4.6007,-4.6007,-4.6048,-4.6463,-4.6407,-4.6015,-4.5891,-4.4714,-4.2963,-4.2489,-4.2286,-4.2286,-4.2286,-4.2286,-4.2286,0.0,0.0,0.0,0.0,0.0,0.0,0.0,0.0,0.0,0.0,0.0,-2.706,-2.7549,-2.76,-2.76,-2.76,-2.76,-2.7705,-2.7929,0.0,0.0,0.0,0.0,0.0,0.0,-3.1511,-3.1853,-3.2586,-3.3525,-3.4105,-3.4334,-3.6267,-3.6915,-3.6479,-3.7461,-3.7635,-3.7127,-3.6603,-3.6073,-3.56,-3.56,-3.56,-3.5515,0.0,0.0,0.0,0.0,0.0,0.0,0.0,0.0,0.0,0.0,0.0,0.0,0.0,0.0,0.0,0.0,0.0,0.0,0.0,0.0,0.0,0.0,0.0,0.0,0.0,0.0,0.0,0.0,0.0,0.0,0.0,0.0,0.0,0.0,0.0,-3.7246,-3.7523,-3.8176,-3.892,-3.9665,-4.0189,-4.0899,-4.188,-4.2422,-4.3149,-4.4102,-4.4418,-4.479,-4.5343,-4.5821,-4.6408,-4.7054,-4.7346,-4.7864,-4.8548,-4.8356,-4.8242,-4.8242,-4.8242,-4.8242,-4.8271,-4.8717,-4.8663,-4.8282,-4.8466,-4.7394,-4.5515,-4.4283,-4.3809,-4.3809,-4.3809,-4.3966,-4.4202,0.0,0.0,0.0,0.0,0.0,0.0,0.0,0.0,0.0,0.0,-2.7575,-2.7575,-2.76,-2.76,-2.76,-2.76,-2.76,-2.7884,-2.8562,-2.922,0.0,0.0,0.0,0.0,-3.1511,-3.1525,-3.1883,-3.2617,-3.4032,-3.5079,-3.5729,-3.7222,-3.7915,-3.7915,-3.7949,-3.7973,-3.7939,-3.7939,-3.7077,-3.5667,-3.565,-3.5633,-3.5549,0.0,0.0,0.0,0.0,0.0,0.0,0.0,0.0,0.0,0.0,0.0,0.0,0.0,0.0,0.0,0.0,0.0,0.0,0.0,0.0,0.0,0.0,0.0,0.0,0.0,0.0,0.0,0.0,0.0,0.0,0.0,0.0,0.0,-3.6981,-3.7499,-3.8244,-3.8971,-3.9757,-4.0476,-4.1238,-4.2615,-4.3477,-4.3494,-4.4908,-4.5754,-4.5771,-4.6447,-4.6866,-4.6912,-4.6912,-4.7221,-4.7941,-4.8625,-4.9344,-5.0082,-5.0758,-5.1086,-5.1086,-5.1086,-5.1086,-5.1086,-5.1112,-5.1112,-5.1007,-5.0315,-5.0014,-4.9764,-4.7671,-4.6874,-4.6874,-4.6874,-4.7295,-4.7952,0.0,0.0,0.0,0.0,0.0,0.0,0.0,0.0,0.0,0.0,-2.7111,-2.7008,-2.7534,-2.76,-2.76,-2.76,-2.76,-2.7884,-2.8562,0.0,0.0,0.0,0.0,0.0,-3.1511,-3.1974,-3.2549,-3.3256,-3.4702,-3.5514,-3.5743,-3.7761,-3.8446,-3.8018,-3.9026,-3.9191,-3.87,-3.87,-3.8142,-3.7229,-3.6688,-3.6468,-3.64,0.0,0.0,0.0,0.0,0.0,0.0,0.0,0.0,0.0,0.0,0.0,0.0,0.0,0.0,0.0,0.0,0.0,0.0,0.0,0.0,0.0,0.0,0.0,0.0,0.0,0.0,0.0,0.0,0.0,0.0,0.0,0.0,-3.9249,-3.8505,-3.9046,-3.9766,-4.051,-4.1728,-4.2811,-4.3572,-4.4519,-4.5297,-4.5838,-4.6261,-4.6735,-4.7276,-4.7496,-4.8086,-4.9085,-4.9166,-4.9759,-5.0901,-5.0635,-5.0844,-5.1509,-5.1254,-5.1086,-5.1086,-5.1086,-5.1086,-5.1138,-5.1618,-5.1266,-5.0335,-5.0647,-5.022,-4.9193,-4.8581,-4.8303,-4.8303,-4.8303,-4.8432,-4.871,0.0,0.0,0.0,0.0,0.0,0.0,0.0,0.0,0.0,0.0,-2.6774,-2.6774,-2.7524,-2.76,-2.76,-2.76,-2.7869,-2.8319,-2.8966,0.0,0.0,0.0,0.0,-3.1511,-3.1511,-3.2153,-3.285,-3.3591,-3.53,-3.6334,-3.6718,-3.8563,-3.9253,-3.8922,-3.9716,-3.9859,-3.9469,-3.9469,-3.9208,-3.8751,-3.8031,-3.7354,-3.6745,-3.6282,-3.5887,-3.5538,-3.5161,-3.5028,-3.4965,-3.4688,0.0,0.0,0.0,0.0,0.0,0.0,0.0,0.0,0.0,0.0,0.0,0.0,0.0,0.0,0.0,0.0,0.0,0.0,0.0,0.0,0.0,0.0,0.0,0.0,-4.035,-4.1111,-4.1331,-4.1407,-4.1762,-4.2523,-4.3656,-4.4671,-4.5432,-4.6194,-4.6802,-4.7242,-4.7547,-4.8035,-4.8753,-4.8804,-4.9338,-5.0417,-5.0507,-5.1025,-5.2089,-5.1716,-5.1716,-5.2112,-5.171,-5.1519,-5.1519,-5.1519,-5.1685,0.0,-5.2399,-5.1922,-5.0911,-5.1343,-5.0876,0.0,0.0,0.0,0.0,0.0,-5.0253,-5.0325,0.0,0.0,0.0,0.0,0.0,0.0,0.0,0.0,0.0,0.0,0.0,-2.6669,-2.7408,-2.7473,-2.7524,-2.76,-2.8203,-2.8906,0.0,0.0,0.0,-3.1511,-3.1511,-3.1511,-3.1511,-3.2213,-3.2971,-3.3674,-3.5851,-3.7279,-3.8008,-3.9429,-4.0096,-4.0096,-4.0096,-4.0096,-4.0096,-4.0096,-4.0096,-4.0045,-3.9402,-3.8278,-3.7032,-3.6863,-3.6349,-3.5718,-3.5633,-3.56,-3.5515,-3.4918,0.0,0.0,0.0,0.0,0.0,0.0,0.0,0.0,0.0,0.0,0.0,0.0,0.0,0.0,0.0,0.0,0.0,0.0,0.0,0.0,0.0,0.0,0.0,0.0,-4.1721,-4.3108,-4.4632,-4.4316,-4.4147,-4.4784,-4.55,-4.621,-4.6853,-4.7597,-4.8067,-4.8141,-4.8734,-4.9419,-5.009,0.0,0.0,0.0,0.0,-5.1561,-5.2215,-5.2234,-5.227,-5.2383,-5.2383,-5.2407,-5.2501,-5.2387,-5.2722,-5.3335,-5.3243,-5.2769,-5.2112,-5.2112,-5.1692,-5.0981,-4.9739,-4.9593,-5.0279,-5.1618,-5.2112,-5.2224,0.0,0.0,0.0,0.0,0.0,0.0,0.0,0.0,0.0,-2.5508,-2.5618,-2.5892,-2.6642,-2.6721,-2.6956,-2.7549,-2.8203,-2.9086,0.0,0.0,-3.1511,-3.1511,-3.1511,-3.1511,-3.1511,-3.2706,-3.3381,-3.3532,-3.625,-3.77,-3.787,-3.9387,-4.0096,-4.0096,-4.0096,-4.0096,-4.0096,-4.0096,-4.0096,-4.0096,-3.9943,-3.9368,-3.843,-3.7252,-3.6711,-3.6468,-3.5819,-3.56,-3.5577,-3.5447,-3.5316,-3.5091,-3.4406,0.0,0.0,0.0,0.0,0.0,0.0,0.0,0.0,0.0,0.0,0.0,0.0,0.0,0.0,0.0,0.0,0.0,0.0,0.0,0.0,-4.343,-4.3972,-4.4682,-4.616,-4.6752,-4.6887,-4.6413,-4.7039,-4.7517,-4.7652,-4.8359,-4.9022,-4.9556,-4.9723,-5.0118,-5.085,-5.092,0.0,-5.188,-5.1965,-5.2311,-5.2985,-5.3046,-5.3385,-5.403,0.0,0.0,-5.4905,-5.4243,-5.4034,-5.4124,-5.3482,-5.2769,-5.2112,-5.2112,-5.1692,-5.106,-5.0796,-5.077,-5.0981,-5.179,-5.2112,-5.2224,0.0,0.0,0.0,0.0,0.0,0.0,0.0,0.0,0.0,0.0,-2.4851,-2.5119,-2.5864,-2.6283,-2.6642,-2.7023,-2.8007,0.0,0.0,-3.0821,-3.1137,-3.1496,-3.1511,-3.1511,-3.1511,-3.2826,-3.3698,-3.4104,-3.6174,-3.7587,-3.8358,-3.9156,-3.9714,-4.0096,-4.0096,-4.0096,-4.0096,-4.0096,-4.0096,-4.0096,-4.0096,-3.9893,-3.9436,-3.8335,-3.7455,-3.6745,-3.6332,-3.5943,-3.56,-3.56,-3.5385,-3.5052,-3.4712,-3.4358,-3.4112,0.0,0.0,0.0,0.0,0.0,0.0,0.0,0.0,0.0,0.0,0.0,0.0,0.0,0.0,-4.0443,0.0,0.0,-4.3386,-4.4908,-4.5449,-4.6075,-4.7192,-4.7682,-4.7753,-4.7394,-4.8003,-4.846,-4.846,-4.8781,-4.9121,-4.9462,-4.9792,-5.0499,-5.1626,-5.167,-5.2151,-5.3273,-5.2943,-5.2901,-5.325,-5.3679,-5.3919,-5.3945,-5.4356,-5.4738,-5.5088,-5.4687,-5.4683,-5.4946,-5.4196,-5.3435,-5.2661,-5.1545,-5.0683,-5.005,-5.005,-5.0689,-5.1685,-5.2399,-5.2662,-5.2707,0.0,0.0,0.0,0.0,0.0,0.0,0.0,0.0,0.0,0.0,-2.406,-2.4337,-2.5091,-2.5728,-2.6245,0.0,0.0,0.0,0.0,-3.0507,-3.0806,-3.1466,-3.1511,-3.1511,-3.1511,-3.2706,-3.3683,-3.4472,-3.5765,-3.7194,-3.869,-3.8827,-3.9342,-4.0096,-4.0096,-4.0096,-4.0096,-4.0096,-4.0096,-4.0096,-4.0096,-4.0096,-4.0028,-3.9276,-3.8159,-3.6998,-3.6846,-3.6282,-3.56,-3.56,-3.523,-3.4783,-3.4783,-3.4406,-3.4119,-3.4805,-3.5039,0.0,0.0,0.0,0.0,0.0,0.0,0.0,0.0,0.0,-3.98,-4.0383,-4.1255,-4.2219,-4.342,-4.4401,-4.5263,-4.6024,-4.6633,-4.7276,-4.802,-4.8091,-4.8091,-4.8091,-4.8646,-4.9001,-4.9001,-4.9137,-4.9266,-4.9403,-5.0054,-5.1039,-5.2422,-5.2431,-5.3051,-5.4456,-5.386,-5.359,-5.3753,-5.4416,-5.4514,-5.4082,-5.4584,-5.49,-5.5042,-5.472,-5.4888,-5.5335,-5.4585,-5.3919,-5.3243,-5.1322,-5.0172,-4.9611,-4.9494,-5.0436,-5.1994,-5.2572,-5.2853,-5.2999,0.0,0.0,0.0,0.0,0.0,0.0,0.0,0.0,0.0,0.0,0.0,0.0,0.0,0.0,0.0,0.0,0.0,0.0,-3.0417,-3.0507,-3.0806,-3.1466,-3.1511,-3.1511,-3.1511,-3.2213,-3.2931,-3.3637,-3.5032,-3.6458,-3.7921,-3.8608,-3.9342,-4.0096,-4.0096,-4.0096,-4.0096,-4.0096,-4.0096,-4.0096,-4.0096,-4.0096,-4.0028,-3.9276,-3.8481,-3.7702,-3.7049,-3.6282,-3.56,-3.56,-3.5538,-3.5492,-3.5492,-3.5447,-3.5519,-3.6319,0.0,-3.6719,-3.7442,-3.7719,-3.7804,-3.7889,-3.887,-3.9834,0.0,0.0,-4.1948,-4.2033,-4.32,-4.4276,-4.4445,-4.5602,-4.6802,-4.7517,-4.7703,-4.8037,-4.8781,-4.8883,-4.8883,-4.8883,-4.8951,-4.9001,-4.9001,-4.9593,-5.026,-5.0902,-5.1625,-5.237,-5.3154,-5.3182,-5.3576,-5.4456,-5.4394,-5.4696,-5.5433,-5.5526,-5.5864,-5.6495,-5.5882,-5.5964,-5.6598,-5.516,-5.4551,-5.4598,-5.377,-5.3405,-5.325,-5.2392,-5.1964,-5.178,-5.1188,-5.1064,-5.1215,-5.1292,-5.171,-5.2335,0.0,0.0,0.0,0.0,0.0,0.0,0.0,0.0,0.0,0.0,0.0,0.0,0.0,0.0,0.0,0.0,0.0,0.0,-2.934,-2.9759,-3.0253,-3.0883,-3.1286,-3.1511,-3.1511,-3.2153,-3.2647,-3.2916,-3.4283,-3.5739,-3.7238,-3.7932,-3.8916,-4.0096,-4.0096,-4.0096,-4.0096,-4.0096,-4.0096,-4.0062,-3.9639,-3.9469,-3.9377,-3.8633,-3.7905,-3.7263,-3.7398,-3.6654,0.0,0.0,-3.5994,-3.5667,-3.6146,-3.5994,-3.59,-3.7101,-3.7143,0.0,-3.8215,-3.9174,0.0,0.0,-4.0595,-4.1399,-4.1373,-4.2202,-4.3064,-4.3521,-4.4485,-4.55,-4.6363,-4.7022,-4.7682,0.0,-4.8545,-4.8663,-4.8968,-4.9001,-4.9001,-4.9001,-4.9373,-4.9644,-4.9644,-4.9915,-5.0411,-5.1131,-5.1864,-5.2817,-5.3987,-5.4032,-5.459,-5.5851,-5.5445,-5.5358,-5.5705,-5.5687,-5.5865,-5.6186,-5.5865,-5.5893,-5.6186,-5.5527,-5.4973,-5.4535,-5.4191,-5.354,-5.2705,-5.2415,-5.2032,-5.1632,-5.1822,-5.2116,-5.2325,-5.1422,-5.1519,-5.2136,0.0,0.0,0.0,0.0,0.0,0.0,0.0,0.0,0.0,0.0,0.0,0.0,0.0,0.0,0.0,0.0,0.0,0.0,0.0,-2.9041,-2.9669,-3.0477,-3.0957,-3.1316,-3.1511,-3.1974,-3.2303,-3.2512,-3.3671,-3.4989,-3.6513,-3.7181,-3.8192,-3.9503,-3.9503,-3.9503,-3.9503,-3.9503,-3.9503,-3.9453,-3.8903,-3.87,-3.8616,-3.7872,-3.7152,-3.6596,-3.7334,-3.6755,0.0,0.0,-3.6231,-3.6045,-3.6626,-3.6568,-3.657,-3.7812,-3.8111,-3.8278,-3.9539,0.0,0.0,-4.1508,-4.2066,-4.2658,-4.2861,-4.3504,-4.4265,-4.5026,-4.5788,-4.665,-4.7686,-4.8058,0.0,-4.8917,-4.9001,-4.9001,-4.9001,-4.9001,-4.9001,-4.9001,-4.9644,-5.0168,-5.0371,-5.0779,-5.1276,-5.179,-5.2719,-5.3742,-5.4821,-5.4856,-5.5471,-5.6869,-5.6132,-5.5808,-5.6031,-5.5808,-5.5706,-5.5706,-5.5477,-5.5408,-5.5379,-5.5191,-5.4805,-5.4296,-5.4296,-5.3652,-5.2638,-5.2638,-5.2312,-5.1887,-5.2486,-5.3002,-5.329,-5.2174,-5.2162,-5.2694,0.0,0.0,0.0,0.0,0.0,0.0,0.0,0.0,0.0,0.0,0.0,0.0,0.0,0.0,0.0,0.0,0.0,0.0,0.0,-2.8622,-2.919,-3.0447,-3.0522,-3.0823,-3.1496,-3.1525,-3.1854,-3.2512,-3.3196,-3.4285,-3.5769,-3.6421,-3.7178,-3.7973,-3.7973,-3.7973,-3.7973,-3.7973,-3.7973,-3.7973,-3.7939,-3.7939,-3.7855,-3.7094,-3.6386,-3.5819,-3.6562,0.0,0.0,0.0,-3.6146,-3.6778,-3.6795,-3.728,0.0,-3.8734,-3.9944,-4.1229,0.0,0.0,-4.2252,-4.2252,-4.2828,-4.3589,-4.4361,-4.5094,-4.5838,-4.6583,-4.7327,-4.7838,-4.7889,-4.8494,-4.8984,-4.9001,-4.9001,-4.9001,-4.9001,-4.9001,-4.9001,-4.9001,-4.9644,-5.0371,0.0,-5.2523,-5.3428,-5.3446,-5.4788,-5.5624,-5.5671,-5.5671,-5.6041,-5.6869,-5.6132,-5.6059,-5.6861,-5.6104,-5.5706,-5.5678,-5.4982,-5.462,-5.462,-5.3881,-5.3551,-5.3534,-5.3534,-5.3517,-5.3467,-5.3467,-5.3435,-5.3446,-5.3446,-5.3474,-5.3486,-5.3433,-5.3812,-5.4231,0.0,0.0,0.0,0.0,0.0,0.0,0.0,0.0,0.0,0.0,0.0,0.0,0.0,0.0,0.0,0.0,0.0,0.0,0.0,-2.8353,-2.8786,-2.922,-3.0058,-3.0612,-3.0823,-3.1271,-3.1615,-3.1839,-3.2538,-3.3623,-3.5059,-3.5722,-3.6688,-3.7905,-3.7905,-3.7905,-3.7905,-3.7905,-3.7905,-3.7872,-3.7364,-3.7161,-3.7077,-3.6299,-3.5857,-3.5662,0.0,0.0,0.0,0.0,-3.6592,-3.6897,-3.7381,-3.8041,-3.887,-4.0104,-4.1508,-4.2625,0.0,0.0,-4.369,-4.3166,-4.3995,-4.501,-4.5263,-4.5889,-4.6633,-4.7394,-4.775,-4.8041,-4.8545,-4.8832,-4.9001,-4.9001,-4.9001,-4.9001,-4.9001,-4.9001,-4.9001,-4.9001,-5.0084,0.0,0.0,0.0,0.0,-5.4173,-5.5151,-5.5706,-5.5706,-5.5706,-5.5819,-5.6104,-5.5836,-5.5836,-5.6104,-5.535,-5.4982,-5.4952,-5.4218,-5.3848,-5.3865,-5.3618,-5.3501,-5.3501,-5.3501,-5.3501,-5.3501,-5.3501,-5.3499,-5.3538,-5.4025,-5.453,-5.4957,-5.4963,-5.5408,-5.5801,0.0,0.0,0.0,0.0,0.0,0.0,0.0,0.0,0.0,0.0,0.0,0.0,0.0,0.0,0.0,0.0,0.0,0.0,0.0,0.0,-2.8338,-2.8592,-2.9385,-2.9939,-3.0163,-3.0821,-3.1137,-3.1137,-3.2121,-3.3076,-3.3969,-3.4886,-3.5809,-3.6736,-3.6959,-3.707,-3.707,-3.707,-3.707,-3.7043,-3.6569,-3.6366,-3.6315,-3.5785,-3.5447,0.0,0.0,0.0,0.0,0.0,-3.6738,-3.7263,-3.7753,-3.8768,-4.002,-4.1238,-4.2455,-4.3341,-4.3166,-4.3853,-4.4547,-4.4299,-4.4976,-4.5838,-4.638,-4.6853,-4.7411,-4.8156,-4.8308,-4.8443,-4.8917,-4.9001,-4.9001,-4.9001,-4.9001,-4.9001,-4.9001,-4.9001,-4.9001,-4.9001,-5.0321,0.0,0.0,0.0,0.0,-5.4947,-5.5695,-5.6132,-5.6132,-5.6132,-5.6022,-5.5706,-5.5419,-5.532,-5.532,-5.4575,-5.4218,-5.4218,-5.3734,-5.3501,-5.3501,-5.3501,-5.3501,-5.3501,-5.3501,-5.3501,-5.3501,-5.3501,-5.3668,-5.3946,-5.4388,-5.5042,-5.5709,-5.5714,-5.5998,-5.6266,0.0,0.0,0.0,0.0,0.0,0.0,0.0,0.0,0.0,0.0,0.0,0.0,0.0,0.0,0.0,0.0,0.0,0.0,0.0,0.0,0.0,-2.8517,-2.8577,-2.8891,-2.9547,-3.0133,-3.0447,-3.0447,-3.1818,-3.2513,-3.2567,-3.3921,-3.4576,-3.4624,-3.5316,-3.56,-3.56,-3.556,-3.5538,-3.5554,-3.5515,-3.5515,-3.5554,-3.5515,0.0,0.0,0.0,0.0,0.0,0.0,0.0,0.0,0.0,-3.9512,-4.139,-4.2083,-4.2861,-4.3639,-4.4384,-4.4632,-4.4835,-4.5534,-4.5771,-4.6194,-4.7567,-4.7922,-4.8142,-4.8866,-4.9001,-4.9001,0.0,0.0,-4.9001,-4.9001,-4.9001,-4.9001,-4.9001,-4.9001,-4.9001,0.0,0.0,0.0,0.0,0.0,0.0,-5.5649,0.0,-5.6912,-5.6843,-5.6843,-5.6465,-5.5592,-5.4909,-5.4527,-5.4527,-5.3865,-5.3501,-5.3501,-5.3501,-5.3501,-5.3501,-5.3501,-5.3501,-5.3501,-5.3501,-5.3501,-5.3501,-5.3501,-5.3913,-5.4527,-5.4527,-5.4982,-5.5649,-5.5649,-5.5678,-5.5689,0.0,0.0,0.0,0.0,0.0,0.0,0.0,0.0,0.0,0.0,0.0,0.0,0.0,0.0,0.0,0.0,0.0,0.0,0.0,0.0,0.0,0.0,0.0,0.0,0.0,0.0,0.0,-2.9846,-3.0626,-3.1329,-3.1869,-3.3214,-3.4112,-3.4624,-3.5316,-3.56,-3.5577,-3.5075,-3.4854,-3.4807,0.0,-3.4423,-3.4783,0.0,0.0,0.0,0.0,0.0,0.0,0.0,0.0,0.0,0.0,-4.0663,-4.2049,-4.2236,-4.3234,-4.4333,-4.4547,-4.4993,-4.5466,-4.5652,-4.6549,-4.7432,-4.7804,-4.8342,-4.8781,-4.8968,-4.9001,-4.9001,0.0,0.0,0.0,-4.9001,-4.9001,0.0,-4.9001,-4.9001,0.0,0.0,0.0,-5.1185,-5.1185,-5.2929,0.0,0.0,-5.6632,-5.7216,-5.6077,-5.6022,-5.5396,-5.4106,-5.3898,-5.3766,-5.3766,-5.3584,-5.3501,-5.3501,-5.3501,-5.3501,-5.3501,-5.3501,-5.3501,-5.3501,-5.3501,-5.3501,-5.3501,-5.3501,-5.3618,-5.3766,-5.3766,-5.4249,-5.4878,-5.4878,-5.5232,-5.5709,0.0,0.0,0.0,0.0,0.0,0.0,0.0,0.0,0.0,0.0,0.0,0.0,0.0,0.0,0.0,0.0,0.0,0.0,0.0,0.0,0.0,0.0,0.0,0.0,0.0,0.0,0.0,0.0,0.0,0.0,-3.0739,-3.2086,-3.2905,-3.3335,-3.4275,-3.4728,-3.4704,-3.4309,0.0,0.0,0.0,0.0,0.0,0.0,0.0,0.0,0.0,0.0,0.0,0.0,0.0,-3.7126,-3.9017,-4.0612,-4.188,-4.2202,0.0,-4.4147,-4.4513,-4.4919,-4.5365,-4.6024,-4.6819,-4.7597,-4.8257,-4.8714,-4.8917,-4.8595,-4.8528,0.0,0.0,0.0,0.0,0.0,0.0,0.0,-4.9001,-4.9001,-4.9001,0.0,-5.0321,0.0,-5.1185,-5.2897,-5.4154,0.0,-5.6087,-5.6483,-5.5291,-5.5506,-5.5029,-5.3568,-5.3501,-5.3501,-5.3501,-5.3501,-5.3501,-5.3501,-5.3501,-5.3501,-5.3501,-5.3501,-5.3501,-5.3501,0.0,-5.3501,-5.3501,-5.3501,-5.3501,-5.3501,-5.3501,-5.375,-5.4154,-5.4482,-5.4878,-5.532,0.0,0.0,0.0,0.0,0.0,0.0,0.0,0.0,0.0,0.0,0.0,0.0,0.0,0.0,0.0,0.0,0.0,0.0,0.0,0.0,0.0,0.0,0.0,0.0,0.0,0.0,0.0,0.0,0.0,0.0,0.0,0.0,0.0,0.0,0.0,0.0,0.0,0.0,0.0,0.0,0.0,0.0,0.0,0.0,0.0,0.0,0.0,0.0,0.0,0.0,-3.6569,-3.706,-3.8521,-4.0003,-4.1339,-4.2066,-4.2828,-4.3589,-4.4395,-4.4682,-4.5055,-4.6329,-4.6718,-4.7141,-4.8426,-4.8714,-4.8528,-4.7902,0.0,-4.7736,-4.7736,0.0,-4.8003,-4.8731,0.0,-4.89,-4.8984,-4.9001,-4.9001,-4.9001,-5.0219,-5.1099,-5.12,-5.3063,-5.433,-5.4451,-5.5131,-5.5262,-5.462,-5.5203,-5.4909,-5.3517,-5.3501,-5.3501,-5.3501,-5.3501,-5.3501,-5.3501,-5.3501,-5.3501,-5.3501,-5.3501,-5.3501,-5.3501,0.0,0.0,-5.3501,-5.3501,-5.3501,-5.3501,-5.3501,-5.3501,-5.3584,-5.4328,-5.4589,-5.4805,0.0,0.0,0.0,0.0,0.0,0.0,0.0,0.0,0.0,0.0,-2.1782,0.0,0.0,0.0,0.0,0.0,0.0,0.0,0.0,0.0,0.0,0.0,0.0,0.0,0.0,0.0,0.0,0.0,0.0,0.0,0.0,0.0,0.0,0.0,0.0,0.0,0.0,0.0,0.0,0.0,0.0,0.0,0.0,0.0,0.0,0.0,0.0,0.0,0.0,0.0,-3.5346,-3.706,-3.8521,-4.0003,-4.1339,-4.2066,-4.2828,-4.3589,-4.4395,-4.5026,-4.5568,-4.5838,-4.6346,-4.6853,-4.7107,-4.7175,0.0,0.0,0.0,-4.6989,-4.6989,-4.6989,0.0,-4.7986,0.0,0.0,0.0,0.0,-4.9001,0.0,0.0,0.0,0.0,0.0,0.0,0.0,0.0,0.0,-5.462,-5.4726,-5.4405,-5.3534,-5.3501,-5.3501,-5.3501,-5.3501,-5.3501,-5.3501,-5.3501,-5.3501,-5.3501,-5.3501,-5.3501,-5.3501,0.0,0.0,-5.3501,-5.3501,-5.3501,-5.3501,-5.3501,-5.3501,-5.3584,-5.4328,-5.4589,-5.4743,0.0,0.0,0.0,0.0,0.0,0.0,0.0,0.0,0.0,0.0,-2.0803,-2.0828,0.0,0.0,0.0,0.0,0.0,0.0,0.0,0.0,0.0,0.0,0.0,0.0,0.0,0.0,0.0,0.0,0.0,0.0,0.0,0.0,0.0,0.0,0.0,0.0,0.0,0.0,0.0,0.0,0.0,0.0,0.0,0.0,0.0,0.0,0.0,0.0,0.0,0.0,-3.4836,-3.5948,-3.7411,-3.8875,-4.0273,-4.1407,-4.2252,-4.2997,-4.3775,-4.4536,-4.5213,-4.5602,-4.5974,-4.6329,-4.6701,0.0,0.0,0.0,0.0,-4.6227,-4.6227,0.0,0.0,0.0,0.0,0.0,0.0,0.0,0.0,0.0,0.0,0.0,0.0,0.0,0.0,0.0,0.0,0.0,-5.4027,-5.4027,-5.3865,-5.3501,-5.3501,-5.3501,-5.3501,-5.3501,-5.3501,-5.3501,-5.3501,-5.3501,-5.3501,-5.3501,-5.3501,-5.3501,-5.3501,0.0,-5.3501,-5.3501,-5.3501,-5.3501,-5.3501,-5.3501,-5.3584,-5.4328,-5.4848,-5.5291,0.0,0.0,0.0,0.0,0.0,0.0,0.0,-2.1257,-2.0641,-2.0515,-2.0087,-2.0137,-2.1029,-2.1367,-2.1828,0.0,0.0,0.0,0.0,0.0,0.0,0.0,0.0,0.0,0.0,0.0,0.0,0.0,0.0,0.0,0.0,0.0,0.0,0.0,0.0,0.0,0.0,0.0,0.0,0.0,0.0,0.0,0.0,0.0,0.0,0.0,0.0,0.0,0.0,0.0,-3.461,-3.5087,-3.6213,-3.7586,-3.9084,-4.0713,-4.161,-4.2252,-4.3139,-4.3859,-4.4502,-4.528,-4.5466,-4.5618,-4.6194,-4.6194,0.0,0.0,-4.5077,-4.4976,-4.4976,0.0,0.0,0.0,0.0,0.0,0.0,0.0,0.0,0.0,0.0,0.0,0.0,0.0,0.0,0.0,0.0,0.0,-5.3501,-5.3501,-5.3501,-5.3501,-5.3501,-5.3501,-5.3501,-5.3501,-5.3501,-5.3501,-5.3501,-5.3501,-5.3501,-5.3501,-5.3501,-5.3501,-5.3501,0.0,0.0,-5.3501,-5.3501,-5.3501,-5.3501,-5.3501,-5.3584,-5.4328,-5.4952,-5.5581,0.0,0.0,0.0,0.0,0.0,0.0,0.0,-2.0754,-2.0503,-1.9949,-1.9836,-1.9849,-1.9949,-2.0914,-2.1887,0.0,0.0,0.0,0.0,0.0,0.0,0.0,0.0,0.0,0.0,0.0,0.0,0.0,0.0,0.0,0.0,0.0,0.0,0.0,0.0,0.0,0.0,0.0,0.0,0.0,0.0,0.0,0.0,0.0,0.0,0.0,0.0,0.0,0.0,0.0,0.0,-3.5551,-3.5736,-3.6868,-3.8515,-4.0592,0.0,0.0,-4.3003,-4.3443,-4.3707,-4.4485,-4.4699,-4.4733,-4.4801,0.0,0.0,-4.3612,-4.3081,-4.2608,-4.2608,-4.3166,0.0,0.0,0.0,0.0,0.0,0.0,0.0,0.0,0.0,0.0,0.0,0.0,0.0,0.0,0.0,0.0,0.0,-5.3501,-5.3501,-5.3501,-5.3501,-5.3501,-5.3501,-5.3501,-5.3501,-5.3501,-5.3501,-5.3501,-5.3501,-5.3501,-5.3501,-5.3501,0.0,0.0,0.0,-5.3501,-5.3501,-5.3501,-5.3501,-5.3501,-5.3584,-5.4328,-5.4651,-5.4818,0.0,0.0,0.0,0.0,0.0,0.0,0.0,-2.0402,-2.0062,-1.9823,-1.9798,-1.9798,-1.9798,-2.0578,-2.1239,0.0,0.0,0.0,0.0,0.0,0.0,0.0,0.0,0.0,0.0,0.0,0.0,0.0,0.0,0.0,0.0,0.0,0.0,0.0,0.0,0.0,0.0,0.0,0.0,0.0,0.0,0.0,0.0,0.0,0.0,0.0,0.0,0.0,0.0,0.0,0.0,0.0,-3.5952,-3.6471,0.0,0.0,-4.051,-4.1339,-4.1931,-4.2405,-4.2811,-4.3132,-4.3227,-4.3227,-4.3227,0.0,0.0,-4.2743,-4.2489,-4.2286,-4.2286,-4.2912,-4.3494,0.0,0.0,0.0,0.0,0.0,0.0,0.0,0.0,0.0,0.0,0.0,0.0,0.0,0.0,0.0,0.0,-5.3501,-5.3501,-5.3501,-5.3501,-5.3501,-5.3501,-5.3501,-5.3501,-5.3501,-5.3501,-5.3501,-5.3501,-5.3501,-5.3501,-5.3501,0.0,0.0,0.0,-5.3501,-5.3501,-5.3501,-5.3501,-5.3501,-5.3534,-5.3832,-5.4218,-5.4651,0.0,0.0,0.0,0.0,0.0,0.0,-2.0465,-2.0062,-1.9798,-1.9798,-1.9798,-1.9798,-1.9798,-2.0396,-2.087,-2.1053,0.0,0.0,0.0,0.0,0.0,0.0,0.0,0.0,0.0,0.0,0.0,0.0,0.0,0.0,0.0,0.0,0.0,0.0,0.0,0.0,0.0,0.0,0.0,0.0,0.0,0.0,0.0,0.0,0.0,0.0,0.0,0.0,0.0,0.0,0.0,0.0,0.0,0.0,0.0,0.0,-3.9732,-4.0646,-4.1085,-4.1576,-4.2016,-4.2236,-4.2286,-4.2286,0.0,0.0,0.0,-4.1965,-4.1796,-4.1644,-4.1644,-4.2252,-4.2828,-4.3047,0.0,-4.6295,0.0,0.0,0.0,0.0,0.0,0.0,0.0,0.0,0.0,0.0,0.0,0.0,0.0,-5.3501,-5.3501,-5.3501,-5.3501,-5.3501,-5.3501,-5.3501,-5.3501,-5.3501,-5.3501,-5.3501,-5.3501,-5.3501,-5.3501,-5.3501,0.0,0.0,0.0,-5.3501,-5.3501,-5.3501,-5.3501,-5.3501,-5.3501,-5.3501,-5.3832,-5.4264,0.0,0.0,0.0,0.0,0.0,0.0,0.0,-1.9798,-1.9798,-1.9798,-1.9798,-1.9798,-1.9798,-2.0396,-2.1053,-2.1639,0.0,0.0,0.0,0.0,0.0,0.0,0.0,0.0,0.0,0.0,0.0,-2.76,-2.76,0.0,0.0,0.0,0.0,0.0,0.0,0.0,0.0,0.0,0.0,0.0,0.0,0.0,0.0,0.0,0.0,0.0,0.0,0.0,0.0,0.0,0.0,0.0,0.0,0.0,0.0,0.0,-3.9005,-3.9326,-4.0798,-4.1221,-4.139,-4.2117,-4.2286,-4.2286,0.0,0.0,0.0,-4.1221,-4.0629,-4.013,-4.013,-4.073,-4.1457,-4.2185,-4.3616,0.0,0.0,0.0,0.0,0.0,0.0,0.0,0.0,0.0,0.0,0.0,0.0,0.0,0.0,-5.3501,-5.3501,-5.3501,-5.3501,-5.3501,-5.3501,-5.3501,-5.3501,-5.3501,-5.3501,-5.3501,-5.3501,-5.3501,-5.3501,0.0,0.0,0.0,0.0,-5.3501,-5.3501,-5.3501,-5.3501,-5.3501,-5.3501,-5.3501,-5.3501,-5.3501,0.0,0.0,0.0,0.0,0.0,0.0,0.0,-1.9798,-1.9798,-1.9798,-1.9798,-1.9798,-1.9798,-2.0396,-2.1053,-2.1663,0.0,0.0,0.0,0.0,0.0,0.0,0.0,0.0,0.0,0.0,-2.6692,-2.6926,-2.7375,-2.781,-2.8213,0.0,0.0,0.0,0.0,0.0,0.0,0.0,0.0,0.0,0.0,0.0,0.0,0.0,0.0,0.0,0.0,0.0,0.0,0.0,0.0,0.0,0.0,0.0,0.0,-3.7218,0.0,0.0,-3.9428,-3.9698,-3.9868,-4.062,-4.0807,-4.0807,-4.0807,0.0,0.0,-4.0468,-4.0265,-4.0096,-4.0096,-4.0696,-4.1441,-4.2168,-4.3599,0.0,0.0,0.0,0.0,0.0,0.0,0.0,0.0,0.0,0.0,0.0,0.0,0.0,0.0,-5.3501,-5.3501,-5.3501,-5.3501,-5.3501,-5.3501,-5.3501,-5.3501,-5.3501,-5.3501,-5.3501,-5.3501,-5.3501,0.0,0.0,0.0,0.0,0.0,-5.3501,-5.3501,-5.3501,-5.3501,-5.3501,-5.3501,-5.3501,-5.3501,-5.3501,0.0,0.0,0.0,0.0,0.0,0.0,0.0,-1.9798,-1.9798,-1.9798,-1.9798,-1.9901,-2.0156,-2.0758,-2.139,-2.203,0.0,0.0,0.0,0.0,0.0,0.0,0.0,0.0,0.0,-2.5884,-2.6348,-2.6587,-2.727,-2.7785,-2.8165,-2.8018,-2.8343,0.0,0.0,0.0,0.0,0.0,0.0,0.0,0.0,0.0,-3.2313,0.0,0.0,0.0,0.0,0.0,0.0,0.0,0.0,0.0,0.0,0.0,0.0,0.0,-3.6671,0.0,0.0,-3.8582,-3.87,-3.9165,-3.9486,0.0,0.0,0.0,0.0,-4.0096,-4.0096,-4.0096,-4.0096,-4.0485,-4.1119,-4.2117,-4.3098,0.0,0.0,0.0,0.0,0.0,0.0,0.0,0.0,0.0,0.0,0.0,0.0,0.0,0.0,0.0,-5.3501,-5.3501,-5.3501,-5.3501,-5.3501,-5.3501,-5.3501,-5.3501,-5.3501,-5.3501,-5.3501,-5.3501,0.0,0.0,0.0,0.0,0.0,-5.3501,-5.3501,-5.3501,-5.3501,-5.3501,-5.3501,-5.3501,-5.3501,-5.3501,0.0,0.0,0.0,0.0,0.0,0.0,0.0,0.0,0.0,0.0,-1.9798,-2.0055,-2.0734,-2.1342,-2.1969,0.0,0.0,0.0,0.0,0.0,0.0,0.0,0.0,0.0,0.0,-2.5217,-2.5914,-2.6512,-2.729,-2.7685,-2.7735,-2.8295,-2.8606,-2.8709,-2.918,-2.9739,-3.0351,-3.0898,-3.0838,-3.0414,-3.0975,-3.1616,0.0,0.0,0.0,0.0,0.0,0.0,0.0,0.0,0.0,0.0,0.0,0.0,0.0,0.0,0.0,0.0,0.0,0.0,0.0,0.0,0.0,0.0,0.0,0.0,0.0,0.0,0.0,0.0,-4.0096,-4.0146,-4.0654,-4.2049,0.0,0.0,0.0,0.0,0.0,0.0,0.0,0.0,0.0,0.0,0.0,0.0,0.0,0.0,0.0,0.0,-5.345,-5.3501,-5.3501,-5.3501,-5.3501,-5.3501,-5.3501,-5.3501,-5.3501,-5.3501,-5.3501,-5.3501,0.0,0.0,0.0,0.0,0.0,-5.3501,-5.3501,-5.3501,-5.3501,-5.3501,-5.3501,-5.3501,-5.3501,-5.3501,0.0,0.0,0.0,0.0,0.0,0.0,0.0,0.0,0.0,0.0,-1.9798,-2.0055,-2.0734,-2.1342,-2.1969,0.0,0.0,0.0,0.0,0.0,0.0,0.0,0.0,0.0,0.0,-2.5001,-2.5689,-2.5839,-2.7487,-2.8519,-2.8973,-2.9111,-2.9673,-3.0518,-2.9739,-2.9739,-3.0293,-3.0456,-3.0699,-3.0995,-3.1151,-3.1292,0.0,0.0,0.0,0.0,-3.4104,-3.4607,0.0,0.0,0.0,0.0,0.0,0.0,0.0,0.0,-3.56,-3.5667,-3.6039,0.0,-3.7178,-3.777,-3.8041,0.0,0.0,0.0,0.0,0.0,0.0,0.0,0.0,0.0,0.0,0.0,0.0,0.0,0.0,0.0,0.0,0.0,0.0,0.0,0.0,0.0,0.0,0.0,0.0,0.0,0.0,0.0,-5.2858,-5.3484,-5.3501,-5.3501,-5.3501,-5.3501,-5.3501,-5.3501,-5.3501,-5.3501,-5.3501,-5.3501,0.0,0.0,0.0,0.0,-5.3501,-5.3501,-5.3501,-5.3501,-5.3501,-5.3501,-5.3501,-5.3501,-5.3501,-5.3501,0.0,0.0,0.0,0.0,0.0,0.0,0.0,0.0,0.0,0.0,0.0,0.0,0.0,0.0,0.0,0.0,0.0,0.0,0.0,0.0,0.0,0.0,0.0,0.0,-2.3595,-2.4911,-2.574,-2.5994,-2.7681,-2.8803,-2.9406,-2.9673,-3.0166,-3.076,-3.0377,-3.0414,-3.072,-3.072,-3.0898,-3.119,-3.119,0.0,0.0,0.0,0.0,0.0,-3.3592,-3.4201,0.0,-3.5346,-3.56,-3.56,0.0,0.0,0.0,0.0,-3.56,-3.56,-3.56,-3.5926,-3.6349,-3.6755,-3.7127,-3.7499,0.0,0.0,0.0,0.0,0.0,0.0,0.0,0.0,0.0,0.0,0.0,0.0,0.0,0.0,0.0,0.0,0.0,0.0,0.0,0.0,0.0,0.0,0.0,0.0,0.0,0.0,-5.1995,-5.2435,-5.2452,-5.279,-5.3501,-5.3501,-5.3501,-5.3501,-5.3501,-5.3501,-5.3501,-5.3501,0.0,0.0,0.0,0.0,-5.3501,-5.3501,-5.3501,-5.3501,-5.3501,-5.3281,-5.2959,-5.2959,-5.2739,-5.2452,0.0,0.0,0.0,0.0,0.0,0.0,0.0,0.0,0.0,0.0,0.0,0.0,0.0,0.0,0.0,0.0,0.0,0.0,0.0,0.0,0.0,0.0,0.0,-2.3595,-2.3595,-2.4911,-2.5894,-2.6501,-2.7945,-2.8943,-2.9563,-3.0145,-3.0435,-3.0456,-3.0975,-3.119,-3.119,-3.119,-3.119,-3.119,-3.119,0.0,0.0,0.0,0.0,0.0,0.0,0.0,0.0,-3.5177,-3.5498,-3.56,-3.56,0.0,0.0,0.0,0.0,0.0,-3.56,-3.56,-3.56,-3.56,-3.6113,-3.666,-3.6778,0.0,0.0,0.0,0.0,0.0,0.0,0.0,0.0,0.0,0.0,0.0,0.0,0.0,0.0,0.0,0.0,0.0,0.0,0.0,0.0,0.0,0.0,0.0,0.0,0.0,0.0,-5.1185,-5.1185,-5.1843,-5.3145,-5.3162,-5.3213,-5.3315,-5.3315,-5.3382,-5.3501,-5.3501,-5.3501,0.0,0.0,0.0,-5.3315,-5.3213,-5.3162,-5.3162,-5.3162,-5.2739,-5.2131,-5.2131,-5.1742,-5.1168,0.0,0.0,0.0,0.0,0.0,0.0,0.0,0.0,0.0,0.0,0.0,0.0,0.0,0.0,0.0,0.0,0.0,0.0,0.0,0.0,0.0,0.0,-2.3595,-2.3595,-2.3595,-2.4911,-2.5894,-2.6501,-2.8347,-2.9563,-3.0187,-3.0777,-3.1055,-3.1055,-3.1151,-3.119,-3.119,-3.119,-3.119,-3.119,-3.119,0.0,0.0,0.0,0.0,0.0,0.0,0.0,0.0,-3.4421,-3.5081,-3.56,-3.56,0.0,0.0,0.0,0.0,0.0,-3.56,-3.56,-3.56,-3.56,-3.5684,-3.596,-3.6643,0.0,0.0,0.0,0.0,0.0,0.0,0.0,0.0,0.0,0.0,0.0,0.0,0.0,0.0,0.0,0.0,0.0,0.0,0.0,0.0,0.0,0.0,0.0,0.0,0.0,0.0,-5.1168,-5.1185,-5.1319,-5.154,-5.154,-5.1877,-5.2486,-5.2486,-5.2841,-5.3501,-5.3501,-5.3501,0.0,0.0,-5.2486,-5.2435,-5.1826,-5.154,-5.154,-5.154,-5.1472,-5.1386,-5.1386,-5.1319,-5.1116,0.0,0.0,0.0,0.0,0.0,0.0,0.0,0.0,0.0,0.0,0.0,0.0,0.0,0.0,0.0,0.0,0.0,0.0,0.0,0.0,0.0,-2.3595,-2.4271,-2.4468,-2.4163,-2.5417,-2.6569,-2.7525,-2.9113,-3.0187,-3.0797,-3.1055,-3.119,-3.119,-3.119,-3.119,-3.119,-3.119,-3.119,-3.119,0.0,0.0,0.0,0.0,0.0,0.0,0.0,0.0,0.0,0.0,-3.4996,-3.56,-3.56,0.0,0.0,0.0,0.0,0.0,-3.56,-3.56,-3.56,-3.56,-3.5943,-3.6349,-3.6728,0.0,0.0,0.0,0.0,0.0,0.0,0.0,0.0,0.0,0.0,0.0,0.0,0.0,0.0,0.0,0.0,0.0,0.0,0.0,0.0,0.0,0.0,0.0,0.0,0.0,0.0,0.0,-5.0016,-5.0016,-5.0016,-5.0016,-5.0591,-5.1725,-5.1725,-5.1911,-5.2266,-5.2266,-5.2266,-5.2249,0.0,-5.1725,-5.1691,-5.132,-5.1185,-5.1185,-5.1185,-5.098,-5.0557,-5.0168,-5.0016,-4.9965,0.0,0.0,0.0,0.0,0.0,0.0,0.0,0.0,0.0,0.0,0.0,0.0,0.0,0.0,0.0,0.0,0.0,0.0,0.0,0.0,-2.3719,-2.4021,-2.4979,-2.5278,-2.4821,-2.6205,-2.749,-2.8624,-2.9742,-3.0617,-3.119,-3.119,-3.119,-3.119,-3.119,-3.119,-3.119,-3.119,-3.119,-3.119,0.0,0.0,0.0,0.0,0.0,0.0,0.0,0.0,0.0,0.0,0.0,0.0,0.0,0.0,0.0,-3.56,-3.56,-3.56,-3.56,-3.56,-3.56,-3.56,0.0,-3.6795,-3.6795,0.0,0.0,0.0,0.0,0.0,0.0,0.0,0.0,0.0,0.0,0.0,0.0,0.0,0.0,0.0,0.0,0.0,0.0,0.0,0.0,0.0,0.0,0.0,0.0,0.0,0.0,0.0,-4.9001,-4.9001,-4.9001,-4.9001,-4.9661,-5.0947,-5.0947,-5.1048,-5.1185,-5.1185,-5.1185,-5.12,-5.1031,-5.0947,-5.0947,-5.0777,-5.0661,-5.0661,-5.0661,-5.0355,-4.9763,-4.9204,-4.9001,-4.9001,0.0,0.0,0.0,0.0,0.0,0.0,0.0,0.0,0.0,0.0,0.0,0.0,0.0,0.0,0.0,0.0,0.0,0.0,0.0,0.0,-2.4146,-2.5319,-2.546,-2.5491,-2.5449,-2.7295,-2.8569,-2.9242,-2.9947,-3.0617,-3.119,-3.119,-3.119,-3.119,-3.119,-3.119,-3.119,-3.119,-3.119,-3.119,-3.119,0.0,0.0,0.0,0.0,0.0,0.0,0.0,0.0,0.0,0.0,0.0,0.0,0.0,-3.56,-3.56,-3.56,-3.56,-3.56,-3.56,-3.56,-3.56,-3.6197,0.0,-3.6795,-3.7946,0.0,-3.8988,0.0,0.0,0.0,0.0,0.0,0.0,0.0,0.0,0.0,0.0,0.0,0.0,0.0,0.0,0.0,0.0,0.0,0.0,0.0,0.0,0.0,0.0,0.0,0.0,0.0,-4.9001,-4.9001,-4.9001,-4.9407,-5.0168,-5.0168,-5.0541,-5.1185,-5.1185,-5.1185,-5.1151,-5.0473,-5.0168,-5.0118,-4.9441,-4.9171,-4.9171,-4.9171,-4.9137,-4.9069,-4.9018,-4.9001,-4.9001,0.0,0.0,0.0,0.0,0.0,0.0,0.0,0.0,0.0,0.0,0.0,0.0,0.0,0.0,0.0,0.0,0.0,0.0,0.0,0.0,-2.4527,-2.546,-2.6593,-2.7393,-2.7846,-2.8583,-2.9276,-2.9918,-3.0546,-3.0975,-3.119,-3.119,-3.119,-3.119,-3.119,-3.119,-3.119,-3.119,-3.119,-3.119,-3.119,-3.119,0.0,0.0,0.0,0.0,0.0,0.0,0.0,0.0,-3.3897,-3.4624,0.0,-3.56,-3.56,-3.56,-3.56,-3.56,-3.56,-3.56,-3.5718,-3.6214,-3.6924,0.0,0.0,-3.8616,-3.98,0.0,0.0,0.0,0.0,0.0,0.0,0.0,0.0,0.0,0.0,0.0,0.0,0.0,0.0,0.0,0.0,0.0,0.0,0.0,0.0,0.0,0.0,0.0,0.0,0.0,0.0,-4.9001,-4.9001,-4.9001,-4.9137,-4.9424,-4.9424,-4.956,-4.9847,-4.9847,-4.9847,-4.983,-4.9543,-4.9424,-4.939,-4.912,-4.9001,-4.9001,-4.9001,-4.9001,-4.9001,-4.9001,-4.9001,-4.9001,0.0,0.0,0.0,0.0,0.0,0.0,0.0,0.0,0.0,0.0,0.0,0.0,0.0,0.0,0.0,0.0,0.0,0.0,-2.3837,-2.442,-2.5217,-2.6317,-2.7756,-2.8986,-2.9872,-2.9909,-3.0122,-3.058,-3.0995,-3.119,-3.119,-3.119,-3.119,-3.119,-3.119,-3.119,-3.119,-3.119,-3.119,-3.119,-3.119,-3.119,0.0,0.0,0.0,0.0,0.0,0.0,0.0,0.0,-3.3744,0.0,0.0,0.0,0.0,-3.56,-3.56,-3.56,-3.56,-3.56,-3.5785,-3.6609,0.0,0.0,-3.8193,-3.9191,-4.0316,0.0,0.0,0.0,0.0,0.0,0.0,0.0,0.0,0.0,0.0,0.0,0.0,0.0,0.0,0.0,0.0,0.0,0.0,0.0,0.0,0.0,0.0,0.0,0.0,0.0,0.0,-4.9001,-4.9001,-4.9001,-4.9001,-4.9001,-4.9001,-4.9001,-4.9001,-4.9001,-4.9001,-4.9001,-4.9001,-4.9001,-4.9001,-4.9001,-4.9001,-4.9001,-4.9001,-4.9001,-4.9001,-4.9001,-4.9001,-4.9001,0.0,0.0,0.0,0.0,0.0,0.0,0.0,0.0,0.0,0.0,0.0,0.0,0.0,0.0,0.0,0.0,0.0,0.0,-2.4384,-2.5103,-2.6333,-2.8141,-2.8923,-2.9909,-3.1173,-3.119,-3.119,-3.119,-3.119,-3.119,-3.119,-3.119,-3.119,-3.119,-3.119,-3.119,-3.119,-3.119,-3.119,-3.119,-3.119,-3.119,-3.119,0.0,0.0,0.0,0.0,0.0,0.0,0.0,-3.3406,-3.366,0.0,0.0,0.0,-3.56,-3.56,-3.56,-3.56,-3.56,-3.5785,0.0,0.0,0.0,0.0,-3.9588,-4.0333,0.0,0.0,0.0,0.0,0.0,0.0,0.0,0.0,0.0,0.0,0.0,0.0,0.0,0.0,0.0,0.0,0.0,0.0,0.0,0.0,0.0,0.0,0.0,0.0,0.0,0.0,0.0,-4.9001,-4.9001,-4.9001,-4.9001,-4.9001,-4.9001,-4.9001,-4.9001,-4.9001,-4.9001,-4.9001,-4.9001,-4.9001,-4.9001,-4.9001,-4.9001,-4.9001,-4.9001,-4.9001,-4.9001,-4.9001,-4.9001,0.0,0.0,0.0,0.0,0.0,0.0,0.0,0.0,0.0,0.0,0.0,0.0,0.0,0.0,0.0,0.0,0.0,0.0,-2.516,-2.6574,-2.7882,-2.892,-2.9538,-3.0294,-3.1173,-3.119,-3.119,-3.119,-3.119,-3.119,-3.119,-3.119,-3.119,-3.119,-3.119,-3.119,-3.119,-3.119,-3.119,-3.119,-3.119,-3.119,-3.119,0.0,0.0,0.0,0.0,0.0,0.0,0.0,0.0,0.0,0.0,0.0,0.0,-3.56,-3.56,-3.56,-3.56,-3.56,0.0,0.0,0.0,0.0,0.0,0.0,0.0,0.0,0.0,0.0,0.0,0.0,0.0,0.0,0.0,0.0,0.0,0.0,0.0,0.0,0.0,0.0,0.0,0.0,0.0,0.0,0.0,0.0,0.0,0.0,0.0,0.0,0.0,0.0,-4.9001,-4.9001,-4.9001,-4.9001,-4.9001,-4.9001,-4.9001,-4.9001,-4.9001,-4.9001,-4.9001,-4.9001,-4.9001,-4.9001,-4.9001,-4.9001,-4.9001,-4.9001,-4.9001,-4.9001,-4.9001,-4.9001,0.0,0.0,0.0,0.0,0.0,0.0,0.0,0.0,0.0,0.0,0.0,0.0,0.0,0.0,0.0,0.0,0.0,0.0,0.0,-2.7878,-2.892,-2.9599,-3.0207,-3.0751,-3.119,-3.119,-3.119,-3.119,-3.119,-3.119,-3.119,-3.119,-3.119,-3.119,-3.119,-3.119,-3.121,-3.137,-3.1351,-3.121,-3.1372,-3.1332,-3.119,0.0,0.0,0.0,0.0,0.0,0.0,0.0,0.0,0.0,0.0,0.0,0.0,-3.56,-3.56,-3.56,-3.56,0.0,0.0,0.0,0.0,0.0,0.0,0.0,0.0,0.0,0.0,0.0,0.0,0.0,0.0,0.0,0.0,0.0,0.0,0.0,0.0,0.0,0.0,0.0,0.0,0.0,0.0,0.0,0.0,0.0,0.0,0.0,0.0,0.0,0.0,0.0,-4.9001,-4.9001,-4.9001,-4.9001,-4.9001,-4.9001,-4.9001,-4.9001,-4.9001,-4.9001,-4.9001,-4.9001,-4.9001,-4.9001,-4.9001,-4.9001,-4.9001,-4.9001,-4.9001,-4.9001,-4.9001,-4.9001,0.0,0.0,0.0,0.0,0.0,0.0,0.0,0.0,0.0,0.0,0.0,0.0,0.0,0.0,0.0,0.0,0.0,0.0,0.0,0.0,-2.9696,-3.019,-3.0835,-3.119,-3.119,-3.119,-3.119,-3.119,-3.119,-3.119,-3.119,-3.119,-3.119,-3.119,-3.119,-3.119,-3.123,-3.164,-3.1565,-3.1249,-3.164,-3.1547,-3.119,-3.119,0.0,0.0,0.0,0.0,0.0,0.0,0.0,0.0,-3.5363,-3.56,-3.56,-3.56,-3.56,-3.56,0.0,0.0,0.0,0.0,0.0,0.0,0.0,0.0,0.0,0.0,0.0,0.0,0.0,0.0,0.0,0.0,0.0,0.0,0.0,0.0,0.0,0.0,0.0,0.0,0.0,0.0,0.0,0.0,0.0,0.0,0.0,0.0,0.0,0.0,0.0,0.0,-4.9001,-4.9001,-4.9001,0.0,-4.9001,-4.9001,-4.9001,-4.9001,-4.9001,-4.9001,-4.9001,-4.9001,-4.9001,-4.9001,-4.9001,-4.9001,-4.9001,-4.9001,-4.9001,-4.9001,-4.9001,-4.9001,0.0,0.0,0.0,0.0,0.0,0.0,0.0,0.0,0.0,0.0,0.0,0.0,0.0,0.0,0.0,0.0,0.0,0.0,0.0,0.0,-3.0839,-3.097,-3.1106,-3.119,-3.119,-3.119,-3.119,-3.119,-3.119,-3.119,-3.119,-3.119,-3.119,-3.119,-3.119,-3.119,-3.123,-3.164,-3.1565,-3.1249,-3.164,-3.1547,-3.119,-3.119,-3.1546,0.0,0.0,0.0,0.0,0.0,0.0,0.0,-3.5363,-3.56,-3.56,-3.56,-3.56,-3.56,0.0,0.0,0.0,0.0,0.0,0.0,0.0,0.0,0.0,0.0,0.0,0.0,0.0,0.0,0.0,0.0,0.0,0.0,0.0,0.0,0.0,0.0,0.0,0.0,0.0,0.0,0.0,0.0,0.0,0.0,0.0,0.0,0.0,0.0,0.0,-4.9001,-4.9001,-4.9001,-4.9001,0.0,-4.9001,-4.9001,-4.9001,-4.9001,-4.9001,-4.9001,-4.9001,-4.9001,-4.9001,-4.9001,-4.9001,-4.9001,-4.9001,-4.9001,-4.9001,-4.9001,-4.9001,-4.9001,0.0,0.0,0.0,0.0,0.0,0.0,0.0,0.0,0.0,0.0,0.0,0.0,0.0,0.0,0.0,0.0,0.0,0.0,0.0,0.0,0.0,-3.119,-3.119,-3.119,-3.119,-3.119,-3.119,-3.119,-3.119,-3.119,-3.119,-3.119,-3.119,-3.119,-3.119,-3.131,-3.1507,-3.1715,-3.1678,-3.1542,-3.2147,-3.2115,-3.1769,-3.2121,-3.2493,-3.2831,-3.2831,0.0,0.0,0.0,0.0,0.0,0.0,0.0,-3.56,-3.56,-3.56,-3.56,0.0,0.0,0.0,0.0,0.0,0.0,0.0,0.0,0.0,0.0,0.0,0.0,0.0,0.0,0.0,0.0,0.0,0.0,0.0,0.0,0.0,0.0,0.0,0.0,0.0,0.0,0.0,0.0,0.0,0.0,0.0,0.0,0.0,0.0,-4.9001,-4.9001,-4.9001,-4.9001,-4.9001,-4.9001,-4.9001,-4.9001,-4.9001,-4.9001,-4.9001,-4.9001,-4.9001,-4.9001,-4.9001,-4.9001,-4.9001,-4.9001,-4.9001,-4.9001,-4.9001,-4.9001,-4.9001,-4.9001,0.0,0.0,0.0,0.0,0.0,0.0,0.0,0.0,0.0,0.0,0.0,0.0,0.0,0.0,0.0,0.0,0.0,0.0,0.0,0.0,0.0,-3.119,-3.119,-3.119,-3.119,-3.119,-3.119,-3.119,-3.119,0.0,0.0,0.0,-3.119,-3.121,-3.1271,-3.1449,-3.1715,-3.1861,-3.1894,-3.1956,-3.2706,-3.2801,-3.2564,-3.3169,-3.3491,-3.3592,-3.3592,-3.4066,-3.4692,-3.4692,0.0,0.0,0.0,0.0,-3.56,-3.56,-3.56,-3.56,0.0,0.0,0.0,0.0,0.0,0.0,0.0,0.0,0.0,0.0,0.0,0.0,0.0,0.0,0.0,0.0,0.0,0.0,0.0,0.0,0.0,0.0,0.0,0.0,0.0,0.0,0.0,0.0,0.0,0.0,0.0,0.0,-4.9001,-4.9001,-4.9001,-4.9001,-4.9001,-4.9001,-4.9001,-4.9001,-4.9001,-4.9001,-4.9001,-4.9001,-4.9001,-4.9001,-4.9001,-4.9001,-4.9001,-4.9001,-4.9001,-4.9001,-4.9001,-4.9001,-4.9001,-4.9001,-4.9001,-4.9001,0.0,0.0,0.0,0.0,0.0,0.0,0.0,0.0,0.0,0.0,0.0,0.0,0.0,0.0,0.0,0.0,0.0,0.0,-3.119,0.0,0.0,-3.119,-3.119,-3.119,-3.119,-3.119,-3.119,-3.119,-3.119,0.0,0.0,0.0,0.0,-3.121,0.0,-3.1564,-3.1329,-3.2092,-3.2351,-3.2281,-3.2779,-3.309,-3.3271,-3.3372,-3.3795,-3.4336,-3.4336,-3.4827,-3.5447,-3.5447,-3.5515,0.0,0.0,0.0,0.0,-3.56,-3.56,-3.56,0.0,0.0,0.0,0.0,0.0,0.0,0.0,0.0,0.0,0.0,0.0,0.0,0.0,0.0,0.0,0.0,0.0,0.0,0.0,0.0,0.0,0.0,0.0,0.0,0.0,0.0,0.0,0.0,0.0,0.0,0.0,-4.9001,-4.9001,-4.9001,-4.9001,-4.9001,-4.9001,-4.9001,-4.9001,-4.9001,-4.9001,-4.9001,-4.9001,-4.9001,-4.9001,-4.9001,-4.9001,-4.9001,-4.9001,-4.9001,-4.9001,-4.9001,-4.9001,-4.9001,-4.9001,-4.9001,-4.9001,-4.9001,0.0,0.0,0.0,0.0,0.0,0.0,0.0,0.0,0.0,0.0,0.0,0.0,0.0,0.0,0.0,-3.0764,-3.1055,-3.119,-3.119,-3.119,-3.119,-3.119,-3.119,-3.119,-3.119,-3.119,-3.119,-3.119,0.0,0.0,0.0,-3.143,-3.1411,0.0,0.0,0.0,0.0,-3.2333,-3.2726,-3.3342,-3.3693,-3.3904,-3.4066,-3.4489,-3.4822,-3.5131,-3.5131,-3.5312,-3.56,-3.56,-3.56,-3.56,-3.56,0.0,0.0,0.0,0.0,0.0,0.0,0.0,0.0,0.0,0.0,0.0,0.0,0.0,0.0,0.0,0.0,0.0,0.0,0.0,0.0,0.0,0.0,0.0,0.0,0.0,0.0,0.0,0.0,0.0,0.0,0.0,0.0,0.0,0.0,0.0,-4.9001,-4.9001,-4.9001,-4.9001,-4.9001,-4.9001,-4.9001,-4.9001,-4.9001,-4.9001,-4.9001,-4.9001,-4.9001,-4.9001,-4.9001,-4.9001,-4.9001,-4.9001,-4.9001,-4.9001,-4.9001,-4.9001,-4.9001,-4.9001,-4.9001,-4.9001,-4.9001,-4.9001,0.0,0.0,0.0,0.0,0.0,0.0,0.0,0.0,0.0,0.0,0.0,0.0,0.0,0.0,0.0,0.0,-3.119,-3.119,-3.119,-3.119,-3.119,-3.119,-3.119,-3.119,-3.119,-3.119,-3.1252,0.0,0.0,0.0,-3.1351,-3.1677,-3.1704,0.0,-3.1601,-3.2102,0.0,0.0,0.0,-3.4232,-3.4402,-3.4607,-3.4844,-3.538,-3.56,-3.56,-3.56,-3.56,-3.56,-3.56,-3.56,-3.56,-3.56,-3.56,0.0,0.0,0.0,0.0,0.0,0.0,0.0,0.0,0.0,0.0,0.0,0.0,0.0,0.0,0.0,0.0,0.0,0.0,0.0,0.0,0.0,0.0,0.0,0.0,0.0,0.0,0.0,0.0,0.0,0.0,0.0,0.0,0.0,0.0,-4.9001,-4.9001,-4.9001,-4.9001,-4.9001,-4.9001,-4.9001,-4.9001,-4.9001,-4.9001,-4.9001,-4.9001,-4.9001,-4.9001,-4.9001,-4.9001,-4.9001,-4.9001,-4.9001,-4.9001,-4.9001,-4.9001,-4.9001,-4.9001,-4.9001,-4.9001,-4.9001,-4.9001,0.0,0.0,0.0,0.0,0.0,0.0,0.0,0.0,0.0,0.0,0.0,0.0,-3.0243,-3.0784,-3.1171,-3.119,-3.119,-3.119,-3.119,-3.119,-3.119,-3.119,-3.119,0.0,-3.119,-3.119,-3.1389,0.0,0.0,0.0,-3.1771,-3.1859,-3.2015,-3.2263,-3.2722,-3.27,-3.2425,0.0,0.0,0.0,0.0,0.0,0.0,-3.5583,-3.56,0.0,0.0,0.0,-3.56,-3.56,-3.56,-3.56,-3.56,-3.56,-3.56,0.0,0.0,0.0,0.0,0.0,0.0,0.0,0.0,0.0,0.0,0.0,0.0,0.0,0.0,0.0,0.0,0.0,0.0,0.0,0.0,0.0,0.0,0.0,0.0,0.0,0.0,0.0,0.0,0.0,0.0,0.0,0.0,0.0,-4.9001,-4.9001,-4.9001,-4.9001,-4.9001,-4.9001,-4.9001,-4.9001,-4.9001,-4.9001,-4.9001,-4.9001,-4.9001,-4.9001,-4.9001,-4.9001,-4.9001,-4.9001,-4.9001,-4.9001,-4.9001,-4.9001,-4.9001,-4.9001,-4.9001,-4.9001,-4.9001,-4.9001,0.0,0.0,0.0,0.0,0.0,0.0,0.0,0.0,0.0,0.0,0.0,0.0,0.0,-3.1055,-3.119,-3.119,-3.119,-3.119,-3.119,-3.119,-3.119,-3.119,-3.119,-3.119,-3.119,-3.119,-3.1271,0.0,0.0,-3.1526,-3.1428,-3.2231,-3.2496,-3.2313,-3.2792,-3.3267,-3.3732,-3.4176,0.0,0.0,0.0,0.0,0.0,0.0,0.0,0.0,0.0,0.0,0.0,-3.56,-3.56,-3.56,-3.56,-3.56,-3.56,0.0,0.0,0.0,0.0,0.0,0.0,0.0,0.0,0.0,0.0,0.0,0.0,0.0,0.0,0.0,0.0,0.0,0.0,0.0,0.0,0.0,0.0,0.0,0.0,0.0,0.0,0.0,0.0,0.0,0.0,0.0,0.0,0.0,-4.8308,-4.8748,-4.9001,-4.9001,-4.9001,-4.9001,-4.9001,-4.9001,-4.9001,-4.9001,-4.9001,-4.9001,-4.9001,-4.9001,-4.9001,-4.9001,-4.9001,-4.9001,-4.9001,-4.9001,-4.9001,-4.9001,-4.9001,-4.9001,-4.9001,-4.9001,-4.9001,-4.9001,0.0,0.0,0.0,0.0,0.0,0.0,0.0,0.0,0.0,0.0,0.0,0.0,0.0,0.0,-3.119,-3.119,-3.119,-3.119,-3.119,-3.119,-3.119,-3.119,-3.119,-3.119,-3.119,-3.119,-3.1407,0.0,0.0,0.0,0.0,-3.2988,-3.325,-3.3059,-3.353,-3.402,0.0,0.0,0.0,-3.56,0.0,0.0,-3.56,0.0,0.0,0.0,0.0,0.0,0.0,0.0,0.0,0.0,0.0,0.0,0.0,0.0,0.0,0.0,0.0,0.0,0.0,0.0,0.0,0.0,0.0,0.0,0.0,0.0,0.0,0.0,0.0,0.0,0.0,0.0,0.0,0.0,0.0,0.0,0.0,0.0,0.0,0.0,0.0,0.0,0.0,0.0,0.0,0.0,-4.7547,-4.824,-4.8748,-4.9001,-4.9001,-4.9001,-4.9001,-4.9001,-4.9001,-4.9001,-4.9001,-4.9001,-4.9001,-4.9001,-4.9001,-4.9001,-4.9001,-4.9001,-4.9001,-4.9001,-4.9001,-4.9001,-4.9001,-4.9001,-4.9001,-4.9001,-4.9001,-4.9001,0.0,0.0,0.0,0.0,0.0,0.0,0.0,0.0,0.0,-3.119,0.0,0.0,0.0,0.0,0.0,-3.119,-3.119,-3.1207,-3.1224,-3.1224,-3.1241,-3.1258,-3.1258,-3.1258,-3.1258,-3.1258,-3.1835,0.0,0.0,0.0,0.0,0.0,-3.4257,-3.451,-3.5002,-3.4957,-3.4573,0.0,-3.56,-3.56,0.0,-3.56,-3.56,0.0,0.0,0.0,-3.56,-3.56,0.0,0.0,0.0,0.0,0.0,0.0,0.0,0.0,0.0,0.0,0.0,0.0,0.0,0.0,0.0,0.0,0.0,0.0,0.0,0.0,0.0,0.0,0.0,0.0,0.0,0.0,0.0,0.0,0.0,0.0,0.0,0.0,0.0,0.0,0.0,0.0,0.0,0.0,0.0,-4.6752,-4.6752,-4.7479,-4.8223,-4.8951,-4.8968,-4.8984,-4.9001,-4.9001,-4.9001,-4.9001,-4.9001,-4.9001,-4.9001,-4.9001,-4.9001,-4.9001,-4.9001,-4.9001,-4.9001,-4.9001,-4.9001,-4.9001,-4.9001,-4.9001,-4.9001,-4.9001,-4.9001,-4.9001,0.0,0.0,0.0,0.0,0.0,0.0,0.0,0.0,-3.119,0.0,0.0,0.0,-3.119,-3.119,-3.119,-3.119,-3.119,-3.143,-3.1955,-3.2005,-3.2222,-3.278,-3.2797,-3.2797,-3.2797,-3.2797,-3.2944,-3.3274,0.0,0.0,0.0,0.0,0.0,0.0,-3.52,-3.5433,-3.5318,-3.5498,0.0,0.0,-3.56,-3.56,0.0,0.0,0.0,0.0,0.0,-3.56,0.0,0.0,-3.56,-3.56,0.0,0.0,0.0,0.0,0.0,0.0,-3.56,0.0,0.0,0.0,0.0,0.0,0.0,0.0,0.0,0.0,0.0,0.0,0.0,0.0,0.0,0.0,0.0,0.0,0.0,0.0,0.0,0.0,0.0,0.0,0.0,0.0,0.0,0.0,-4.5686,-4.6007,-4.6007,-4.6701,-4.7445,-4.8189,-4.8193,-4.8477,-4.9001,-4.9001,-4.9001,-4.9001,-4.9001,-4.9001,-4.9001,-4.9001,-4.9001,-4.9001,-4.9001,-4.9001,-4.9001,-4.9001,-4.9001,-4.9001,-4.9001,-4.9001,-4.9001,-4.9001,-4.9001,-4.9001,0.0,0.0,0.0,0.0,0.0,0.0,0.0,0.0,-3.119,0.0,0.0,0.0,-3.119,-3.1461,-3.1667,-3.1667,-3.1935,-3.229,-3.273,-3.2767,-3.2949,-3.3389,-3.3406,-3.3406,-3.3406,-3.3406,-3.3558,-3.3863,0.0,0.0,0.0,0.0,0.0,0.0,0.0,0.0,0.0,0.0,0.0,0.0,-3.56,0.0,0.0,-3.56,-3.56,0.0,0.0,0.0,-3.56,-3.56,-3.56,0.0,0.0,0.0,0.0,0.0,0.0,0.0,0.0,0.0,0.0,0.0,0.0,0.0,0.0,-3.8227,0.0,0.0,0.0,0.0,0.0,0.0,0.0,0.0,0.0,0.0,0.0,0.0,0.0,0.0,0.0,0.0,0.0,0.0,0.0,0.0,-4.4993,-4.5382,-4.5686,-4.6109,-4.6684,-4.7428,-4.772,-4.8122,-4.8545,-4.8849,-4.9001,-4.9001,-4.9001,-4.9001,-4.9001,-4.9001,-4.9001,-4.9001,-4.9001,-4.9001,-4.9001,-4.9001,-4.9001,-4.9001,-4.9001,-4.9001,-4.9001,-4.9001,-4.9001,-4.9001,0.0,0.0,0.0,0.0,0.0,0.0,0.0,0.0,0.0,0.0,-3.1258,-3.1343,-3.1427,-3.2039,-3.2429,-3.2429,-3.3017,-3.344,-3.3525,-3.3525,-3.3558,-3.3643,-3.3643,-3.3643,-3.3643,-3.3643,-3.3981,-3.4624,0.0,0.0,0.0,0.0,0.0,0.0,0.0,0.0,0.0,0.0,0.0,-3.56,-3.56,-3.56,0.0,0.0,-3.56,0.0,-3.56,-3.56,-3.56,-3.56,-3.56,0.0,0.0,0.0,0.0,0.0,-3.56,0.0,0.0,0.0,0.0,0.0,0.0,0.0,-3.7449,-3.7787,-3.8193,0.0,0.0,0.0,0.0,0.0,0.0,0.0,0.0,0.0,0.0,0.0,0.0,0.0,0.0,0.0,0.0,0.0,-4.4615,-4.4615,-4.4615,-4.4902,-4.5551,-4.5585,-4.5923,-4.665,-4.7327,-4.7686,-4.78,-4.8528,-4.8883,-4.8883,-4.8968,-4.9001,-4.9001,-4.9001,-4.9001,-4.9001,-4.9001,-4.9001,-4.9001,-4.9001,-4.9001,-4.9001,-4.9001,-4.9001,-4.9001,-4.9001,-4.9001,-4.9001,-2.76,0.0,0.0,0.0,0.0,0.0,0.0,0.0,-3.119,-3.119,-3.1718,-3.2327,-3.2916,-3.3102,-3.3186,-3.3186,-3.3322,-3.366,-3.4252,-3.4286,-3.4556,-3.5143,-3.516,-3.516,-3.516,-3.516,-3.5228,-3.538,0.0,0.0,0.0,0.0,0.0,0.0,0.0,0.0,0.0,0.0,0.0,-3.56,-3.56,0.0,-3.56,-3.56,-3.56,-3.56,-3.56,-3.56,-3.56,0.0,-3.56,-3.56,0.0,0.0,0.0,0.0,0.0,0.0,0.0,0.0,0.0,0.0,0.0,0.0,-3.6789,-3.7015,-3.7438,0.0,0.0,0.0,0.0,0.0,0.0,0.0,0.0,0.0,0.0,0.0,0.0,0.0,0.0,0.0,0.0,0.0,-4.4615,-4.4615,-4.4615,-4.4666,-4.4818,-4.479,-4.5145,-4.5889,-4.6058,-4.6413,-4.7005,-4.7767,-4.8091,-4.8108,-4.8731,-4.9001,-4.9001,-4.9001,-4.9001,-4.9001,-4.9001,-4.9001,-4.9001,-4.9001,-4.9001,-4.9001,-4.9001,-4.9001,-4.9001,-4.9001,-4.9001,-4.9001,-2.76,0.0,0.0,0.0,0.0,0.0,0.0,0.0,-3.1415,-3.1712,-3.2374,-3.2983,-3.3372,-3.3728,-3.3947,-3.3947,-3.4286,-3.4658,-3.503,-3.5064,-3.5216,-3.5583,-3.56,-3.56,-3.56,-3.56,-3.56,-3.56,0.0,0.0,0.0,0.0,0.0,0.0,0.0,0.0,0.0,0.0,-3.56,-3.56,-3.56,0.0,-3.56,-3.56,-3.56,-3.56,-3.56,-3.56,-3.56,-3.56,-3.56,0.0,0.0,-3.56,-3.56,0.0,-3.56,-3.56,0.0,0.0,0.0,-3.56,0.0,0.0,0.0,-3.6795,-3.7117,0.0,0.0,0.0,0.0,0.0,0.0,0.0,0.0,0.0,0.0,0.0,0.0,0.0,0.0,0.0,0.0,0.0,-4.4164,-4.4581,-4.4615,-4.4615,-4.4615,-4.4615,-4.4784,-4.5128,-4.5517,-4.5889,-4.6244,-4.6989,-4.7547,-4.7889,-4.8291,-4.8646,-4.9001,-4.9001,-4.9001,-4.9001,-4.9001,-4.9001,-4.9001,-4.9001,-4.9001,-4.9001,-4.9001,-4.9001,-4.9001,-4.9001,-4.9001,-4.9001,-2.7824,0.0,0.0,0.0,0.0,0.0,0.0,0.0,-3.1867,-3.2617,-3.3237,-3.3677,-3.3812,-3.4353,-3.4709,-3.4709,-3.5267,-3.56,0.0,0.0,0.0,-3.56,-3.56,-3.56,-3.56,-3.56,-3.56,-3.56,0.0,0.0,0.0,0.0,0.0,0.0,0.0,0.0,0.0,0.0,0.0,-3.56,0.0,-3.56,-3.56,-3.56,-3.56,-3.56,-3.56,-3.56,-3.5616,-3.5769,0.0,-3.5819,-3.5819,-3.5819,0.0,0.0,0.0,0.0,0.0,0.0,0.0,0.0,0.0,-3.5769,0.0,0.0,0.0,-3.7533,0.0,0.0,0.0,0.0,0.0,0.0,0.0,0.0,0.0,0.0,0.0,0.0,0.0,0.0,0.0,0.0,-4.3521,-4.4327,-4.4378,-4.4445,-4.4598,-4.4615,-4.4615,-4.4615,-4.5179,-4.55,-4.55,-4.621,-4.6955,-4.7669,-4.7821,-4.8308,-4.9001,-4.9001,-4.9001,-4.9001,-4.9001,-4.9001,-4.9001,-4.9001,-4.9001,-4.9001,-4.9001,-4.9001,-4.9001,-4.9001,-4.9001,-4.9001,-2.8592,-2.8931,0.0,0.0,0.0,0.0,0.0,0.0,-3.2762,-3.4086,-3.432,-3.4624,0.0,0.0,0.0,0.0,0.0,0.0,-3.56,0.0,0.0,-3.56,-3.56,-3.56,-3.56,-3.56,-3.56,-3.56,0.0,0.0,0.0,0.0,0.0,0.0,-3.56,0.0,0.0,0.0,-3.56,0.0,-3.56,-3.56,0.0,-3.56,-3.56,-3.56,-3.56,-3.56,-3.5701,0.0,-3.666,-3.666,0.0,-3.666,0.0,0.0,0.0,0.0,0.0,0.0,0.0,0.0,-3.56,0.0,0.0,0.0,-3.596,-3.6755,0.0,0.0,0.0,0.0,0.0,0.0,0.0,0.0,0.0,0.0,0.0,0.0,0.0,0.0,0.0,0.0,0.0,-4.3487,-4.3527,-4.3859,-4.4564,-4.4615,-4.4615,-4.4615,-4.4682,-4.4733,-4.4733,-4.5449,-4.6194,-4.6921,-4.7597,-4.8308,-4.9001,-4.9001,-4.9001,-4.9001,-4.9001,-4.9001,-4.9001,-4.9001,-4.9001,-4.9001,-4.9001,-4.9001,-4.9001,-4.9001,-4.9001,-4.9001,-2.922,-2.9384,0.0,0.0,0.0,0.0,0.0,0.0,0.0,-3.4941,-3.4807,0.0,0.0,0.0,0.0,0.0,0.0,-3.56,0.0,0.0,-3.56,0.0,0.0,0.0,0.0,-3.56,-3.56,-3.56,-3.56,0.0,0.0,0.0,0.0,0.0,-3.56,0.0,-3.56,0.0,0.0,0.0,0.0,0.0,0.0,-3.56,-3.5893,-3.6299,-3.6299,-3.6569,-3.6992,0.0,-3.7432,0.0,0.0,0.0,0.0,0.0,0.0,0.0,0.0,0.0,0.0,0.0,0.0,0.0,0.0,0.0,-3.5701,0.0,0.0,0.0,0.0,0.0,0.0,0.0,0.0,0.0,0.0,0.0,0.0,0.0,0.0,0.0,0.0,0.0,0.0,0.0,0.0,-4.3555,-4.3893,-4.4361,-4.4615,-4.4615,-4.4615,-4.4615,-4.4615,-4.4891,-4.5432,-4.6177,-4.6921,-4.7648,-4.8392,-4.8798,-4.9001,-4.9001,-4.9001,-4.9001,-4.9001,-4.9001,-4.9001,-4.9001,-4.9001,-4.9001,-4.9001,-4.9001,-4.9001,-4.9001,-3.0118,0.0,0.0,0.0,0.0,0.0,0.0,0.0,0.0,0.0,0.0,0.0,-3.5538,-3.56,0.0,0.0,0.0,-3.56,0.0,0.0,-3.56,0.0,-3.56,0.0,0.0,0.0,-3.56,-3.56,-3.56,0.0,0.0,0.0,0.0,0.0,0.0,-3.56,-3.56,0.0,0.0,-3.56,-3.56,-3.5718,-3.5943,-3.5943,-3.6282,-3.6829,-3.7032,-3.7449,-3.7939,-3.8142,-3.821,0.0,-3.821,0.0,0.0,0.0,0.0,0.0,-3.7117,0.0,0.0,0.0,0.0,0.0,0.0,0.0,0.0,0.0,0.0,0.0,0.0,0.0,0.0,0.0,0.0,0.0,0.0,0.0,0.0,0.0,0.0,0.0,0.0,0.0,0.0,0.0,-4.2506,-4.2953,-4.3375,-4.3944,-4.435,-4.4598,-4.4615,-4.4615,-4.4615,-4.4615,-4.4959,-4.572,-4.6244,-4.6989,-4.7906,-4.846,-4.8815,-4.9001,-4.9001,-4.9001,-4.9001,-4.9001,-4.9001,-4.9001,-4.9001,-4.9001,-4.9001,-4.9001,-4.9001,-4.9001,-3.1451,-3.0913,0.0,0.0,0.0,0.0,0.0,0.0,0.0,0.0,0.0,0.0,0.0,0.0,0.0,0.0,0.0,-3.56,-3.56,0.0,-3.56,0.0,0.0,-3.56,0.0,0.0,0.0,-3.56,-3.56,-3.56,0.0,0.0,0.0,0.0,0.0,-3.56,-3.56,-3.56,-3.56,-3.56,-3.56,-3.6079,-3.6761,0.0,-3.6778,-3.6897,-3.7601,0.0,0.0,-3.8717,-3.8954,0.0,0.0,0.0,0.0,0.0,0.0,0.0,0.0,0.0,0.0,-3.7838,0.0,0.0,0.0,0.0,-3.6761,0.0,0.0,0.0,0.0,0.0,0.0,-3.688,0.0,0.0,0.0,0.0,0.0,0.0,0.0,0.0,0.0,0.0,0.0,-4.1187,-4.1271,-4.1897,-4.3308,-4.3409,-4.3809,-4.4581,-4.4615,-4.4615,-4.4615,-4.4615,-4.4959,-4.5703,-4.572,-4.6515,-4.7889,-4.7906,-4.8342,-4.9001,-4.9001,-4.9001,-4.9001,-4.9001,-4.9001,-4.9001,-4.9001,-4.9001,-4.9001,-4.9001,-4.9001,-4.9001,0.0,0.0,0.0,0.0,0.0,0.0,0.0,-3.2949,0.0,0.0,0.0,0.0,0.0,0.0,-3.5121,0.0,0.0,-3.56,-3.56,-3.56,0.0,0.0,0.0,-3.56,0.0,0.0,0.0,-3.56,-3.56,-3.56,0.0,0.0,0.0,0.0,0.0,-3.56,0.0,0.0,0.0,0.0,0.0,-3.6575,-3.6795,0.0,0.0,-3.8278,-3.8531,-3.8937,0.0,-3.9656,-3.974,-3.974,-3.974,-3.974,-3.969,-3.9436,-3.9005,0.0,0.0,0.0,-3.7905,-3.7905,0.0,0.0,0.0,0.0,0.0,0.0,0.0,0.0,0.0,0.0,-3.7364,-3.688,-3.7415,0.0,0.0,0.0,0.0,0.0,0.0,0.0,0.0,0.0,0.0,-4.0468,-4.0916,-4.1424,0.0,-4.2868,-4.3511,-4.3809,-4.4316,-4.4615,-4.4615,-4.4615,-4.4733,-4.4976,-4.5466,-4.6227,-4.7192,-4.7699,-4.8308,-4.9001,-4.9001,-4.9001,-4.9001,-4.9001,-4.9001,-4.9001,-4.9001,-4.9001,-4.9001,-4.9001,-4.9001,-4.9001,-3.1511,0.0,0.0,0.0,0.0,0.0,0.0,0.0,0.0,0.0,-3.343,0.0,-3.4511,0.0,-3.5143,0.0,-3.5595,-3.5716,-3.5971,-3.5994,0.0,-3.6022,-3.6028,0.0,0.0,0.0,0.0,0.0,-3.56,-3.56,0.0,0.0,0.0,0.0,0.0,0.0,0.0,0.0,-3.56,0.0,0.0,-3.7117,0.0,0.0,-3.8159,-3.9022,0.0,-3.9706,-4.0096,-4.0096,-4.0096,-4.0096,-4.0096,-4.0096,-4.0096,-4.0096,-3.9774,-3.9402,-3.9402,-3.9039,0.0,-3.8684,-3.8684,0.0,-3.8684,0.0,0.0,0.0,0.0,0.0,0.0,0.0,0.0,-3.6931,-3.7218,-3.7499,0.0,-3.7499,0.0,0.0,0.0,0.0,0.0,0.0,-4.0096,-4.0096,-4.0527,-4.0916,0.0,0.0,-4.3149,-4.3375,-4.4181,-4.4615,-4.4615,-4.4615,-4.4615,-4.4615,-4.5077,-4.5821,-4.6802,-4.7293,-4.8054,-4.9001,-4.9001,-4.9001,-4.9001,-4.9001,-4.9001,-4.9001,-4.9001,-4.9001,-4.9001,-4.9001,-4.9001,-4.9001,0.0,0.0,0.0,0.0,-3.1511,0.0,0.0,0.0,-3.2807,0.0,-3.4123,-3.4553,-3.458,-3.5174,-3.5561,-3.5589,-3.5589,0.0,-3.6596,-3.6673,0.0,0.0,-3.6823,-3.6468,-3.5667,0.0,0.0,0.0,0.0,0.0,-3.56,0.0,0.0,0.0,-3.56,0.0,-3.56,-3.56,-3.5616,-3.5718,-3.6552,-3.776,-3.8988,-3.9039,-3.9039,-3.914,-3.9859,-4.0096,-4.0096,-4.0096,-4.0096,-4.0096,-4.0096,-4.0096,-4.0096,-4.0096,-4.0096,-4.0096,-4.0096,-4.0096,-4.0096,-4.0096,0.0,0.0,0.0,0.0,-3.9039,0.0,0.0,0.0,0.0,0.0,0.0,-3.6981,-3.6829,-3.6795,-3.6745,0.0,0.0,0.0,0.0,0.0,0.0,-4.0045,-4.0062,-4.0096,-4.0096,0.0,0.0,0.0,-4.2574,-4.3308,-4.4113,-4.4564,-4.4615,-4.4615,-4.4615,-4.4615,-4.4615,-4.5331,-4.6735,-4.6769,-4.7581,-4.8951,-4.8984,-4.9001,-4.9001,-4.9001,-4.9001,-4.9001,-4.9001,-4.9001,-4.9001,-4.9001,-4.9001,-4.9001,-3.1511,-3.1511,-3.1511,0.0,-3.1511,-3.1553,0.0,0.0,0.0,0.0,-3.3373,-3.3975,-3.4462,-3.4691,-3.4999,-3.5561,-3.5589,0.0,0.0,0.0,0.0,-3.6721,-3.7304,-3.7263,-3.6502,-3.6485,0.0,-3.56,0.0,0.0,-3.56,0.0,0.0,0.0,0.0,0.0,-3.56,-3.56,-3.596,-3.6626,-3.7905,-3.865,0.0,0.0,-3.9825,-3.9842,-4.0028,-4.0096,-4.0096,-4.0096,-4.0096,-4.0096,-4.0096,-4.0096,-4.0096,-4.0096,-4.0096,-4.0096,-4.0096,-4.0096,-4.0096,-4.0096,-4.0096,-4.0096,0.0,0.0,0.0,0.0,0.0,0.0,0.0,0.0,0.0,0.0,-3.7144,0.0,0.0,0.0,0.0,0.0,0.0,0.0,0.0,0.0,-3.952,-4.0062,-4.0096,0.0,0.0,0.0,0.0,-4.2557,-4.3318,-4.3995,-4.4598,-4.4615,-4.4615,-4.4615,-4.4615,-4.5077,-4.6007,-4.6549,-4.731,-4.8193,-4.8765,-4.9001,-4.9001,-4.9001,-4.9001,-4.9001,-4.9001,-4.9001,-4.9001,-4.9001,-4.9001,-4.9001,-3.1511,0.0,0.0,-3.1929,0.0,0.0,-3.1974,0.0,0.0,-3.2946,-3.3514,0.0,-3.447,-3.476,-3.5095,-3.5515,-3.556,0.0,0.0,0.0,0.0,-3.6702,-3.7131,-3.7177,-3.6783,-3.6766,0.0,-3.6129,0.0,0.0,-3.56,0.0,0.0,0.0,0.0,-3.56,0.0,-3.5994,-3.6755,-3.7845,-3.8667,0.0,0.0,-3.9943,-4.0096,-4.0096,-4.0096,-4.0096,-4.0096,-4.0096,-4.0096,-4.0096,-4.0096,-4.0096,-4.0096,-4.0096,-4.0096,-4.0096,-4.0096,-4.0096,-4.0096,-4.0096,-4.0096,-4.0096,-4.0096,-4.0096,-4.0096,0.0,0.0,0.0,0.0,0.0,0.0,0.0,0.0,0.0,0.0,0.0,0.0,0.0,0.0,0.0,0.0,0.0,0.0,0.0,0.0,0.0,0.0,0.0,0.0,-4.2269,-4.3031,-4.3792,-4.4598,-4.4615,-4.4615,-4.4615,-4.4615,-4.4976,-4.5737,-4.6464,-4.7208,-4.7922,-4.8697,-4.9001,-4.9001,-4.9001,-4.9001,-4.9001,-4.9001,-4.9001,-4.9001,-4.9001,-4.9001,-4.9001,0.0,0.0,0.0,0.0,0.0,0.0,0.0,-3.326,0.0,-3.3619,0.0,-3.4638,-3.4638,-3.522,-3.5624,-3.5624,0.0,-3.6008,-3.6553,-3.6693,-3.6702,-3.6683,-3.6809,-3.6807,-3.6692,-3.6718,0.0,0.0,0.0,0.0,0.0,0.0,0.0,0.0,0.0,0.0,0.0,-3.6705,-3.7845,0.0,-3.9106,-3.9537,-4.0096,-4.0096,-4.0096,-4.0096,-4.0096,-4.0096,-4.0096,-4.0096,-4.0096,-4.0096,-4.0096,-4.0096,-4.0096,-4.0096,-4.0096,-4.0096,-4.0096,-4.0096,-4.0096,-4.0096,-4.0096,-4.0096,-4.0096,-4.0096,-4.0096,-4.0096,-4.0096,-4.0096,0.0,0.0,0.0,0.0,0.0,0.0,0.0,0.0,0.0,0.0,0.0,0.0,0.0,0.0,0.0,0.0,0.0,0.0,0.0,0.0,0.0,-4.2117,-4.2878,0.0,-4.4445,0.0,-4.4615,-4.4615,-4.4615,-4.4953,-4.5585,-4.6413,-4.7141,-4.7817,-4.8646,-4.9001,-4.9001,-4.9001,-4.9001,-4.9001,-4.9001,-4.9001,-4.9001,-4.9001,-4.9001,-4.9001,0.0,0.0,0.0,0.0,0.0,-3.4294,-3.4174,-3.4264,-3.4339,-3.4339,-3.4906,0.0,-3.5325,-3.5908,-3.6312,-3.6312,-3.6776,0.0,0.0,0.0,0.0,-3.6642,-3.7236,-3.7322,-3.6713,-3.6697,-3.6713,0.0,0.0,0.0,0.0,0.0,0.0,0.0,0.0,0.0,-3.6694,-3.8024,0.0,-3.9039,-3.9673,-3.9994,-4.0096,-4.0096,-4.0096,-4.0096,-4.0096,-4.0096,-4.0096,-4.0096,-4.0096,-4.0096,-4.0096,-4.0096,-4.0096,-4.0096,-4.0096,-4.0096,-4.0096,-4.0096,-4.0096,-4.0096,-4.0096,-4.0096,-4.0096,-4.0096,-4.0096,-4.0096,-4.0096,-4.0096,-4.0096,0.0,0.0,0.0,0.0,0.0,0.0,0.0,0.0,0.0,0.0,0.0,0.0,0.0,0.0,0.0,0.0,0.0,0.0,0.0,0.0,0.0,-4.2117,0.0,0.0,0.0,-4.4615,-4.4615,-4.4615,-4.4682,-4.4852,-4.6177,-4.6853,-4.7073,-4.8426,-4.9001,-4.9001,-4.9001,-4.9001,-4.9001,-4.9001,-4.9001,-4.9001,-4.9001,-4.9001,-4.9001,0.0,0.0,0.0,0.0,0.0,0.0,0.0,-3.5552,0.0,-3.5552,-3.5804,-3.6133,-3.6462,-3.6776,-3.6971,-3.6971,-3.724,-3.7285,-3.6985,-3.7313,-3.7225,-3.6571,-3.6922,0.0,-3.6672,-3.6641,-3.6841,-3.7275,0.0,0.0,-3.7347,0.0,0.0,0.0,0.0,-3.6857,0.0,0.0,0.0,-3.9605,-3.996,-4.0096,-4.0096,-4.0096,-4.0096,-4.0096,-4.0096,-4.0096,-4.0096,-4.0096,-4.0096,-4.0096,-4.0096,-4.0096,-4.0096,-4.0096,-4.0096,-4.0096,-4.0096,-4.0096,-4.0096,-4.0096,-4.0096,-4.0096,-4.0096,-4.0096,-4.0096,-4.0096,-4.0096,-4.0096,-4.0096,-4.0096,0.0,0.0,0.0,0.0,0.0,0.0,0.0,0.0,0.0,0.0,0.0,0.0,0.0,0.0,0.0,0.0,0.0,0.0,0.0,0.0,0.0,0.0,0.0,0.0,0.0,-4.4615,-4.4615,-4.4615,-4.4649,-4.6109,-4.6786,-4.687,-4.8359,-4.9001,-4.9001,-4.9001,-4.9001,-4.9001,-4.9001,-4.9001,-4.9001,-4.9001,-4.9001,-4.9001,0.0,-3.4337,0.0,0.0,-3.5355,0.0,-3.6582,-3.6686,-3.6686,-3.6686,-3.6686,-3.6866,-3.736,-3.7539,-3.7614,-3.7614,-3.7749,-3.7778,-3.7629,-3.7614,-3.7345,-3.6716,-3.6552,-3.6522,-3.6583,-3.643,-3.6758,0.0,0.0,0.0,0.0,0.0,0.0,0.0,0.0,0.0,0.0,0.0,-3.9312,-3.9876,-4.002,-4.0096,-4.0096,-4.0096,-4.0096,-4.0096,-4.0096,-4.0096,-4.0096,-4.0096,-4.0096,-4.0096,-4.0096,-4.0096,-4.0096,-4.0096,-4.0096,-4.0096,-4.0096,-4.0096,-4.0096,-4.0096,-4.0096,-4.0096,-4.0096,-4.0096,-4.0096,-4.0096,-4.0096,-4.0096,-4.0096,-4.0096,0.0,0.0,0.0,0.0,0.0,0.0,0.0,0.0,0.0,0.0,0.0,0.0,0.0,0.0,0.0,0.0,0.0,0.0,0.0,0.0,0.0,-4.2574,-4.3139,0.0,-4.4615,0.0,-4.4615,-4.4615,-4.4649,-4.5957,-4.665,-4.6853,-4.8189,-4.8866,-4.9001,-4.9001,-4.9001,-4.9001,-4.9001,-4.9001,-4.9001,-4.9001,-4.9001,-4.9001,0.0,0.0,0.0,0.0,0.0,0.0,0.0,-3.733,-3.733,-3.733,-3.733,-3.7345,-3.7404,-3.7943,-3.8302,-3.8302,-3.8871,-3.896,-3.8347,-3.8302,-3.8003,-3.7345,-3.6791,-3.648,-3.6505,-3.5919,-3.5976,0.0,0.0,0.0,0.0,0.0,0.0,0.0,0.0,0.0,0.0,-3.8341,-3.8939,-3.9086,-3.9808,-4.0096,-4.0096,-4.0096,-4.0096,-4.0096,-4.0096,-4.0096,-4.0096,-4.0096,-4.0096,-4.0096,-4.0096,-4.0096,-4.0096,-4.0096,-4.0096,-4.0096,-4.0096,-4.0096,-4.0096,-4.0096,-4.0096,-4.0096,-4.0096,-4.0096,-4.0096,-4.0096,-4.0096,-4.0096,-4.0096,-4.0096,-4.0096,0.0,0.0,0.0,0.0,0.0,0.0,0.0,0.0,0.0,0.0,0.0,0.0,0.0,0.0,0.0,0.0,0.0,0.0,-4.0197,0.0,-4.232,-4.2388,-4.387,0.0,-4.4615,-4.4615,-4.4615,-4.4632,-4.5432,-4.6177,-4.6836,-4.7665,-4.8392,-4.9001,-4.9001,-4.9001,-4.9001,-4.9001,-4.9001,-4.9001,-4.9001,-4.9001,-4.9001,0.0,0.0,0.0,0.0,0.0,0.0,0.0,-3.8003,-3.8138,-3.8556,-3.8257,-3.8153,-3.8571,-3.8856,-3.9005,-3.9005,-3.926,-3.9305,-3.9035,-3.9005,-3.8706,-3.8033,-3.7764,-3.727,-3.654,-3.6237,-3.6256,0.0,0.0,0.0,0.0,0.0,0.0,0.0,0.0,-3.7898,-3.809,-3.9172,-3.961,-3.9636,-3.9978,-4.0096,-4.0096,-4.0096,-4.0096,-4.0096,-4.0096,-4.0096,-4.0096,-4.0096,-4.0096,-4.0096,-4.0096,-4.0096,-4.0096,-4.0096,-4.0096,-4.0096,-4.0096,-4.0096,-4.0096,-4.0096,-4.0096,-4.0096,-4.0096,-4.0096,-4.0096,-4.0096,-4.0096,-4.0096,-4.0096,-4.0096,-4.0096,0.0,0.0,0.0,0.0,0.0,0.0,0.0,0.0,0.0,0.0,0.0,0.0,0.0,0.0,0.0,0.0,0.0,0.0,-4.0096,0.0,-4.2286,-4.2286,-4.3836,-4.4615,-4.4615,-4.4615,-4.4615,-4.4632,-4.5365,-4.6346,-4.7513,-4.824,-4.8731,-4.9001,-4.9001,-4.9001,-4.9001,-4.9001,-4.9001,-4.9001,-4.9001,-4.9001,-4.9001,-3.6761,0.0,-3.7464,0.0,-3.7704,-3.7913,-3.8586,-3.8691,-3.8871,-3.9349,-3.899,-3.8871,-3.9364,-3.9388,-3.9388,-3.9388,-3.9388,-3.9388,-3.9388,-3.9388,-3.92,-3.8706,-3.8497,0.0,-3.7075,-3.6671,-3.6504,-3.6582,-3.66,0.0,0.0,0.0,0.0,0.0,-3.7207,-3.7621,-3.7975,-3.8995,-3.9428,-3.9454,-3.9901,-4.0096,-4.0096,-4.0096,-4.0096,-4.0096,-4.0096,-4.0096,-4.0096,-4.0096,-4.0096,-4.0096,-4.0096,-4.0096,-4.0096,-4.0096,-4.0096,-4.0096,-4.0096,-4.0096,-4.0096,-4.0096,-4.0096,-4.0096,-4.0096,-4.0096,-4.0096,-4.0096,-4.0096,-4.0096,-4.0096,-4.0096,-4.0096,-4.0096,0.0,0.0,0.0,0.0,0.0,0.0,0.0,-3.9673,-3.9368,0.0,0.0,0.0,0.0,0.0,0.0,0.0,0.0,0.0,0.0,0.0,0.0,-4.3955,-4.4615,-4.4615,-4.4615,-4.4615,-4.4632,-4.5585,-4.6599,-4.7631,-4.8595,-4.9001,-4.9001,-4.9001,-4.9001,-4.9001,-4.9001,-4.9001,-4.9001,-4.9001,-4.9001,-4.9001,-3.7404,-3.7404,-3.7614,-3.8257,-3.8377,-3.8601,-3.9305,-3.9373,-3.9373,-3.9388,-3.9373,-3.9373,-3.9388,-3.9388,-3.9388,-3.9388,-3.9388,-3.9388,-3.9388,-3.9388,-3.9388,0.0,0.0,-3.8377,-3.8362,-3.7135,-3.651,-3.651,0.0,0.0,-3.5579,0.0,-3.6643,-3.66,-3.663,-3.6212,-3.5651,-3.7175,-3.7822,-3.795,-3.948,-4.0096,-4.0096,-4.0096,-4.0096,-4.0096,-4.0096,-4.0096,-4.0096,-4.0096,-4.0096,-4.0096,-4.0096,-4.0096,-4.0096,-4.0096,-4.0096,-4.0096,-4.0096,-4.0096,-4.0096,-4.0096,-4.0096,-4.0096,-4.0096,-4.0096,-4.0096,-4.0096,-4.0096,-4.0096,-4.0096,-4.0096,-4.0096,-4.0096,0.0,0.0,0.0,0.0,0.0,0.0,-3.9469,-3.9317,-4.0028,0.0,0.0,0.0,0.0,0.0,0.0,0.0,0.0,-4.117,-4.1914,0.0,-4.3375,-4.4181,-4.4615,-4.4615,-4.4615,-4.4615,-4.4649,-4.6109,-4.6786,-4.6887,-4.8359,-4.9001,-4.9001,-4.9001,-4.9001,-4.9001,-4.9001,-4.9001,-4.9001,-4.9001,-4.9001,-4.9001,-3.8078,-3.8452,-3.8841,-3.905,-3.9095,-3.917,-3.9394,-3.9388,-3.9388,-3.9388,-3.9388,-3.9388,-3.9388,-3.9388,-3.9388,0.0,-3.9388,-3.9388,0.0,-3.9388,-3.9388,-3.9388,-3.9215,-3.8871,-3.8407,-3.7988,-3.736,-3.6492,0.0,0.0,0.0,-3.6275,-3.6368,-3.5863,-3.6399,-3.6477,-3.6337,-3.7889,-3.8553,-3.8635,-3.9662,-4.0096,-4.0096,-4.0096,-4.0096,-4.0096,-4.0096,-4.0096,-4.018,-4.0679,-4.0849,-4.0933,-4.1424,-4.0925,-4.0096,-4.0096,-4.0096,-4.0096,-4.0096,-4.0096,-4.0096,-4.0096,-4.0096,-4.0096,-4.0096,-4.0096,-4.0096,-4.0096,-4.0096,-4.0096,-4.0096,-4.0096,-4.0096,-4.0096,-4.0096,0.0,0.0,0.0,0.0,0.0,0.0,-3.9842,0.0,-3.9893,0.0,0.0,0.0,0.0,0.0,0.0,0.0,0.0,-4.1914,0.0,-4.3375,-4.4198,-4.4615,-4.4615,-4.4615,-4.484,-4.5382,-4.6346,-4.7073,-4.7614,-4.8578,-4.9001,-4.9001,-4.9001,-4.9001,-4.9001,-4.9001,-4.9001,-4.9001,-4.9001,-4.9001,-4.9001,-3.8781,-3.9125,-3.9388,-3.9388,-3.9388,-3.9388,-3.9388,-3.9388,-3.9388,-3.9388,-3.9388,-3.9388,-3.9388,-3.9388,0.0,-3.9388,-3.9388,-3.9388,-3.9388,-3.9388,-3.9388,-3.9388,-3.9388,-3.9215,-3.8781,0.0,0.0,-3.7195,-3.6716,-3.6148,-3.5504,-3.5975,-3.5943,-3.5537,-3.5975,-3.6196,-3.629,-3.7512,-3.8201,-3.8553,-3.9332,-3.9833,-4.0096,-4.0096,-4.0282,-4.0493,-4.0493,-4.0705,-4.101,-4.1457,-4.161,-4.1694,-4.2151,-4.166,-4.0874,-4.0578,-4.0493,-4.0468,-4.018,-4.0096,-4.0096,-4.0096,-4.0096,-4.0096,-4.0096,-4.0096,-4.0096,-4.0096,-4.0096,-4.0096,-4.0096,-4.0096,-4.0096,-4.0096,-4.0096,-4.0096,-4.0096,0.0,0.0,0.0,0.0,0.0,0.0,-4.0096,0.0,0.0,0.0,0.0,0.0,0.0,0.0,-4.1576,-4.2049,0.0,-4.3842,-4.4361,-4.4615,-4.4615,-4.4615,-4.4976,-4.5737,-4.6464,-4.7208,-4.7922,-4.8697,-4.9001,-4.9001,-4.9001,-4.9001,-4.9001,-4.9001,-4.9001,-4.9001,-4.9001,-4.9001,-4.9001,-3.9388,-3.9388,0.0,0.0,-3.9388,0.0,-3.9388,-3.9388,-3.9388,-3.9388,-3.9388,-3.9388,-3.9388,-3.9388,-3.9388,-3.9388,0.0,0.0,0.0,-3.9388,-3.9388,-3.9388,-3.9388,-3.9388,-3.9388,-3.8796,-3.8437,-3.8392,-3.715,-3.6207,-3.5579,-3.5579,-3.5549,-3.5504,-3.5504,-3.5504,-3.5569,-3.6275,-3.7024,-3.7777,-3.8629,-3.9425,-4.0104,-4.0206,-4.0663,-4.1288,-4.1288,-4.1711,-4.2303,-4.2354,-4.2371,-4.2388,-4.2422,-4.2455,-4.2286,-4.1508,-4.1288,-4.1136,-4.0451,-4.0231,-4.018,-4.018,-4.0146,-4.0096,-4.0096,-4.0096,-4.0096,-4.0096,-4.0096,-4.0096,-4.0096,-4.0096,-4.0096,-4.0096,-4.0096,-4.0096,-4.0096,0.0,0.0,0.0,0.0,0.0,0.0,-4.0096,-4.0096,0.0,0.0,0.0,0.0,0.0,-4.084,-4.2252,-4.2337,-4.3081,-4.4598,-4.4615,-4.4615,-4.4615,-4.4615,-4.4993,-4.5805,-4.6481,-4.7225,-4.799,-4.8714,-4.9001,-4.9001,-4.9001,-4.9001,-4.9001,-4.9001,-4.9001,-4.9001,-4.9001,-4.9001,-4.9001,0.0,0.0,-3.9388,-3.9388,-3.9388,-3.9388,-3.9388,-3.9388,-3.9388,-3.9388,-3.9388,-3.9388,-3.9388,-3.9388,-3.9388,-3.9388,-3.9388,-3.9388,-3.9388,-3.9388,-3.9388,-3.9388,-3.9388,-3.9388,-3.9388,-3.926,-3.8916,-3.8392,-3.7584,-3.6866,-3.6252,-3.6252,-3.5983,-3.5504,-3.5504,-3.5504,-3.5569,-3.6275,-3.6691,-3.7041,-3.8999,-3.9946,-4.0203,-4.1341,-4.188,-4.2033,-4.2033,-4.2151,-4.2388,-4.2963,-4.3149,-4.325,-4.3842,-4.4073,-4.3802,-4.2422,-4.2033,-4.1999,-4.1839,-4.1356,-4.0933,-4.0933,-4.0536,-4.0096,-4.0096,-4.0096,-4.0096,-4.0096,-4.0096,-4.0096,-4.0096,-4.0096,-4.0096,-4.0096,-4.0096,-4.0096,-4.0096,-4.0096,0.0,0.0,-4.0096,-4.0096,-4.0096,-4.0096,-4.0096,0.0,0.0,0.0,0.0,-4.0933,-4.1356,-4.2252,-4.2861,-4.3606,-4.4598,-4.4615,-4.4615,-4.4615,-4.4615,-4.5263,-4.6549,-4.6718,-4.7513,-4.8748,-4.8934,-4.9001,-4.9001,-4.9001,-4.9001,-4.9001,-4.9001,-4.9001,-4.9001,-4.9001,-4.9001,-4.9001,-3.9388,-3.9388,-3.9388,-3.9388,-3.9388,-3.9388,-3.9388,-3.9388,-3.9388,-3.9388,-3.9388,-3.9388,-3.9388,-3.9388,-3.9388,-3.9388,-3.9388,-3.9388,-3.9388,-3.9388,-3.9388,-3.9388,-3.9388,-3.9388,-3.9388,-3.9388,-3.908,-3.8392,-3.8033,-3.7524,-3.6911,-3.6911,-3.6716,-3.6372,-3.6372,-3.6372,-3.6405,-3.6806,-3.7195,-3.7623,-3.8894,-3.9624,-4.0082,-4.1277,-4.1922,-4.2295,-4.2658,-4.3031,-4.343,-4.3809,-4.3944,-4.4012,-4.4479,-4.4615,-4.4445,-4.3616,-4.3081,-4.2726,-4.2388,-4.1999,-4.1627,-4.1288,-4.0899,-4.0493,-4.018,-4.0096,-4.0096,-4.0096,-4.0096,-4.0096,-4.0096,-4.0096,-4.0096,-4.0096,-4.0096,-4.0096,-4.0096,-4.0096,0.0,-4.0096,-4.0096,-4.0096,-4.0096,-4.0096,-4.0096,-4.0096,0.0,0.0,-4.1187,-4.1847,-4.2405,-4.2794,-4.3172,-4.3792,-4.4598,-4.4615,-4.4615,-4.4615,-4.4925,-4.5686,-4.6802,-4.7141,-4.7919,-4.9001,-4.9001,-4.9001,-4.9001,-4.9001,-4.9001,-4.9001,-4.9001,-4.9001,-4.9001,-4.9001,-4.9001,-4.9001,-3.9388,-3.9388,-3.9388,-3.9388,-3.9388,-3.9388,-3.9388,-3.9388,-3.9388,-3.9388,-3.9388,-3.9388,-3.9388,-3.9388,-3.9388,-3.9388,-3.9388,-3.9388,-3.9388,-3.9388,-3.9388,-3.9388,-3.9388,-3.9388,-3.9388,-3.9388,-3.9125,-3.8542,-3.8542,-3.8212,-3.7554,-3.7554,-3.7509,-3.7404,-3.7404,-3.7404,-3.7404,-3.7404,-3.7782,-3.8446,-3.867,-3.917,-3.9877,-4.0807,-4.1573,-4.2262,-4.2934,-4.3698,-4.4412,-4.4412,-4.4485,-4.4615,-4.4615,-4.4615,-4.4615,-4.4615,-4.4113,-4.3453,-4.2811,-4.2557,-4.2286,-4.1542,-4.1288,-4.1035,-4.0417,-4.018,-4.0096,-4.0096,-4.0096,-4.0096,-4.0096,-4.0096,-4.0096,-4.0096,-4.0096,-4.0096,-4.0096,0.0,-4.0096,-4.0096,-4.0096,-4.0096,-4.0096,-4.0096,-4.0146,-4.0265,-4.0849,-4.1305,0.0,-4.2716,-4.3443,-4.3589,-4.3589,-4.391,-4.4598,-4.4615,-4.4615,-4.4615,-4.5348,-4.6092,-4.6819,-4.7581,-4.8308,-4.9001,-4.9001,-4.9001,-4.9001,-4.9001,-4.9001,-4.9001,-4.9001,-4.9001,-4.9001,-4.9001,-4.9001,-4.9001,-3.9388,-3.9388,-3.9388,-3.9388,-3.9388,-3.9388,-3.9388,-3.9388,-3.9388,-3.9388,-3.9388,-3.9388,-3.9388,-3.9388,-3.9388,-3.9388,-3.9388,-3.9388,-3.9388,-3.9388,-3.9388,-3.9388,-3.9388,-3.9388,-3.9388,-3.9388,-3.9364,-3.926,-3.926,-3.8916,-3.8242,-3.8242,-3.7943,-3.7404,-3.7404,-3.7404,-3.7404,-3.7404,-3.7473,-3.7707,-3.8998,-3.9612,-3.9855,-4.131,-4.1932,-4.206,-4.2186,-4.278,-4.3502,-4.3502,-4.4006,-4.4615,-4.4615,-4.4615,-4.4615,-4.4615,-4.4513,-4.4395,-4.4276,-4.3741,-4.3064,-4.2303,-4.166,-4.117,-4.1068,-4.057,-4.0096,-4.0096,-4.0096,-4.0096,-4.0096,-4.0096,-4.0096,-4.0096,-4.0096,-4.0096,-4.0096,0.0,-4.0096,-4.0096,-4.0096,-4.0096,-4.0096,-4.0096,-4.0367,-4.0984,-4.1136,-4.1745,-4.2987,-4.3274,-4.3724,-4.4384,-4.4401,-4.4479,-4.4615,-4.4615,-4.4615,-4.4615,-4.5348,-4.6092,-4.6819,-4.7581,-4.8308,-4.9001,-4.9001,-4.9001,-4.9001,-4.9001,-4.9001,-4.9001,-4.9001,-4.9001,-4.9001,-4.9001,-4.9001,-4.9001,-3.9388,-3.9388,-3.9388,-3.9388,-3.9388,-3.9388,-3.9388,-3.9388,-3.9388,-3.9388,-3.9388,-3.9388,-3.9388,-3.9388,-3.9388,-3.9388,-3.9388,-3.9388,-3.9388,-3.9388,-3.9388,-3.9388,-3.9388,-3.9388,-3.9388,-3.9388,-3.9388,-3.9388,-3.9388,-3.926,-3.8945,-3.8945,-3.8781,-3.8497,-3.8497,-3.8497,-3.8497,-3.8497,-3.8497,-3.8547,-3.9238,-3.9534,-3.9669,-4.0836,-4.1313,-4.1363,-4.1836,-4.2252,-4.2583,-4.2583,-4.2878,-4.329,-4.3739,-4.3902,-4.4006,-4.444,-4.4615,-4.4615,-4.4615,-4.4344,-4.3859,-4.3098,-4.2642,-4.2185,-4.139,-4.0933,-4.0578,-4.018,-4.0096,-4.0096,-4.0096,-4.0096,-4.0096,-4.0096,-4.0096,0.0,0.0,-4.0096,-4.0096,-4.0096,-4.0096,-4.0096,-4.0096,-4.0468,-4.0832,-4.117,-4.1948,-4.2665,-4.3358,-4.3809,-4.4215,-4.4598,-4.4615,-4.4615,-4.4615,-4.4615,-4.4818,-4.5196,-4.594,-4.6684,-4.7428,-4.8173,-4.868,-4.9001,-4.9001,-4.9001,-4.9001,-4.9001,-4.9001,-4.9001,-4.9001,-4.9001,-4.9001,-4.9001,-4.9001,-4.9001,-3.977,-3.9753,-3.9649,-3.9649,-3.9514,-3.9388,-3.9388,-3.9388,-3.9388,-3.9388,-3.9388,-3.9388,-3.9388,-3.9388,-3.9388,-3.9388,-3.9388,-3.9388,-3.9388,-3.9388,-3.9388,-3.9388,-3.9388,-3.9388,-3.9388,-3.9388,-3.9388,-3.9388,-3.9388,-3.9388,-3.9388,-3.9388,-3.9388,-3.9388,-3.9388,-3.9388,-3.9388,-3.9388,-3.9388,-3.9388,-3.9388,-3.9388,-3.9481,-4.015,-4.0397,-4.05,-4.1162,-4.1511,-4.1707,-4.1707,-4.1836,-4.2157,-4.3017,-4.3306,-4.3472,-4.4355,-4.4615,-4.4615,-4.4615,-4.4615,-4.4462,-4.3842,-4.3527,-4.3088,-4.1982,-4.1457,-4.1035,-4.046,-4.0231,-4.0096,-4.0096,-4.0096,-4.0096,-4.0096,0.0,0.0,0.0,-4.0096,-4.0096,-4.0096,-4.0265,-4.0367,-4.0367,-4.1018,-4.1525,-4.1711,-4.275,-4.3477,-4.3673,-4.4248,-4.4615,-4.4615,-4.4615,-4.4615,-4.4615,-4.4615,-4.4959,-4.572,-4.6447,-4.7192,-4.7922,-4.8663,-4.9001,-4.9001,-4.9001,-4.9001,-4.9001,-4.9001,-4.9001,-4.9001,-4.9001,-4.9001,-4.9001,-4.9001,-4.9001,-4.9001,-4.0949,-4.0741,-4.0337,-4.0337,-3.9828,-3.9388,-3.9388,-3.9388,-3.9388,-3.9388,-3.9388,-3.9388,-3.9388,-3.9388,-3.9388,-3.9388,-3.9388,-3.9388,-3.9388,-3.9388,-3.9388,-3.9388,-3.9388,-3.9388,-3.9388,-3.9388,-3.9388,-3.9388,-3.9388,-3.9388,-3.9388,-3.9388,-3.9388,-3.9388,-3.9388,-3.9388,-3.9388,-3.9388,-3.9388,-3.9388,-3.9388,-3.9388,-3.9424,-3.9481,-3.9517,-3.9517,-3.9574,-4.0115,-4.0792,-4.0792,-4.133,-4.2157,-4.3017,-4.3306,-4.3472,-4.4355,-4.4615,-4.4615,-4.4615,-4.4615,-4.4598,-4.453,-4.3944,-4.3358,-4.3257,-4.2185,-4.1187,-4.1136,-4.0561,-4.0096,-4.0096,-4.0096,-4.0096,-4.0096,0.0,0.0,-4.0096,-4.0096,-4.0096,-4.0096,-4.0696,-4.1119,-4.1119,-4.1779,-4.2506,-4.3172,-4.3325,-4.3741,-4.4479,-4.4581,-4.4615,-4.4615,-4.4615,-4.4615,-4.4615,-4.4615,-4.4959,-4.572,-4.6447,-4.7192,-4.7922,-4.8663,-4.9001,-4.9001,-4.9001,-4.9001,-4.9001,-4.9001,-4.9001,-4.9001,-4.9001,-4.9001,-4.9001,-4.9001,-4.9001,-4.9001,-4.0159,-4.0675,-4.0876,-4.0472,-4.0187,-3.9888,-3.9448,-3.9388,-3.9388,-3.9388,-3.9388,-3.9388,-3.9388,-3.9388,-3.9388,-3.9388,-3.9388,-3.9388,-3.9388,-3.9388,-3.9388,-3.9388,-3.9388,-3.9388,-3.9388,-3.9388,-3.9388,-3.9388,-3.9388,-3.9388,-3.9388,-3.9388,-3.9388,-3.9388,-3.9388,-3.9388,-3.9388,-3.9388,-3.9388,-3.9388,-3.9388,-3.9388,-3.9388,-3.9388,-3.9388,-3.9388,-3.9388,-3.961,-3.99,-3.99,-4.0115,-4.055,-4.1412,-4.2062,-4.2769,-4.4196,-4.4615,-4.4615,-4.4615,-4.4615,-4.4615,-4.4615,-4.435,-4.4012,-4.3494,-4.298,-4.2439,-4.1982,-4.1288,-4.0781,-4.0781,-4.0417,-4.0096,-4.0096,0.0,-4.0096,-4.0096,-4.0476,-4.0781,-4.0781,-4.1424,-4.188,-4.188,-4.2557,-4.3115,-4.3375,-4.3859,-4.4265,-4.4581,-4.4615,-4.4615,-4.4615,-4.4615,-4.4615,-4.4615,-4.5043,-4.5652,-4.6397,-4.7141,-4.7885,-4.8595,-4.8883,-4.9001,-4.9001,-4.9001,-4.9001,-4.9001,-4.9001,-4.9001,-4.9001,-4.9001,-4.9001,-4.9001,-4.9001,-4.9001,-4.9001,-4.0141,-4.0861,-4.1235,-4.0786,-4.0367,-3.9933,-3.9448,-3.9388,-3.9388,-3.9388,-3.9388,-3.9388,-3.9388,-3.9388,-3.9388,-3.9388,-3.9388,-3.9388,-3.9388,-3.9388,-3.9388,-3.9388,-3.9388,-3.9388,-3.9388,-3.9388,-3.9388,-3.9388,-3.9388,-3.9388,-3.9388,-3.9388,-3.9388,-3.9388,-3.9388,-3.9388,-3.9388,-3.9388,-3.9388,-3.9388,-3.9388,-3.9388,-3.9388,-3.9388,-3.9388,-3.9388,-3.9388,-3.9388,-3.9388,-3.9388,-3.9388,-3.9538,-4.0432,-4.1478,-4.2583,-4.3515,-4.396,-4.4121,-4.3873,-4.396,-4.4253,-4.4542,-4.4615,-4.4479,-4.391,-4.3589,-4.324,-4.276,-4.2066,-4.1542,-4.1542,-4.1119,-4.0807,-4.0807,-4.0807,-4.0807,-4.0807,-4.1221,-4.1542,-4.1542,-4.2202,-4.2642,-4.2642,-4.3335,-4.3792,-4.3792,-4.4282,-4.4615,-4.4615,-4.4615,-4.4615,-4.4615,-4.4615,-4.4716,-4.4925,-4.5449,-4.6075,-4.6802,-4.7564,-4.8308,-4.9001,-4.9001,-4.9001,-4.9001,-4.9001,-4.9001,-4.9001,-4.9001,-4.9001,-4.9001,-4.9001,-4.9001,-4.9001,-4.9001,-4.9001,-4.9001,-4.125,-4.1479,-4.1422,-4.1422,-4.0307,-3.9424,-3.9388,-3.9388,-3.9388,-3.9388,-3.9388,-3.9388,-3.9388,-3.9388,-3.9388,-3.9388,-3.9388,-3.9388,-3.9388,-3.9388,-3.9388,-3.9388,-3.9388,-3.9388,-3.9388,-3.9388,-3.9388,-3.9388,-3.9388,-3.9388,-3.9388,-3.9388,-3.9388,-3.9388,-3.9388,-3.9388,-3.9388,-3.9388,-3.9388,-3.9388,-3.9388,-3.9388,-3.9388,-3.9388,-3.9388,-3.9388,-3.9388,-3.9388,-3.9388,-3.9388,-3.9388,-3.9538,-4.0432,-4.1901,-4.3108,-4.2252,-4.2614,-4.3108,-4.2221,-4.2614,-4.3502,-4.4384,-4.4598,-4.4615,-4.4615,-4.3978,-4.3392,-4.3392,-4.2828,-4.2303,-4.2303,-4.2286,-4.2286,-4.2286,-4.2286,-4.2286,-4.2286,-4.2286,-4.2303,-4.2303,-4.2963,-4.3392,-4.3392,-4.413,-4.4615,-4.4615,-4.4615,-4.4615,-4.4615,-4.4615,-4.4615,-4.4615,-4.4615,-4.4942,-4.5703,-4.572,-4.6075,-4.6802,-4.7564,-4.8308,-4.9001,-4.9001,-4.9001,-4.9001,-4.9001,-4.9001,-4.9001,-4.9001,-4.9001,-4.9001,-4.9001,-4.9001,-4.9001,-4.9001,-4.9001,-4.9001,-4.0333,-4.1334,-4.1961,-4.1459,-4.0666,-3.9948,-3.9448,-3.9388,-3.9388,-3.9388,-3.9388,-3.9388,-3.9388,-3.9388,-3.9388,-3.9388,-3.9388,-3.9388,-3.9388,-3.9388,-3.9388,-3.9388,-3.9388,-3.9388,-3.9388,-3.9388,-3.9388,-3.9388,-3.9388,-3.9388,-3.9388,-3.9388,-3.9388,-3.9388,-3.9388,-3.9388,-3.9388,-3.9388,-3.9388,-3.9388,-3.9388,-3.9388,-3.9388,-3.9388,-3.9388,-3.9388,-3.9388,-3.9388,-3.9388,-3.9388,-3.9388,-3.9538,-4.0432,-4.1046,-4.1528,-4.1901,-4.2189,-4.2316,-4.2062,-4.2189,-4.2583,-4.3456,-4.4167,-4.4615,-4.4615,-4.4401,-4.4231,-4.4231,-4.3623,-4.3081,-4.3081,-4.2642,-4.2286,-4.2286,-4.2286,-4.2286,-4.2286,-4.2743,-4.3081,-4.3081,-4.3758,-4.4231,-4.4231,-4.4479,-4.4615,-4.4615,-4.4615,-4.4615,-4.4615,-4.4615,-4.4615,-4.4615,-4.4615,-4.4942,-4.5703,-4.621,-4.6836,-4.7597,-4.8325,-4.8798,-4.9001,-4.9001,-4.9001,-4.9001,-4.9001,-4.9001,-4.9001,-4.9001,-4.9001,-4.9001,-4.9001,-4.9001,-4.9001,-4.9001,-4.9001,-4.9001,-3.9438,-4.0464,-4.1213,-4.1025,-4.0442,-3.9873,-3.9448,-3.9388,-3.9388,-3.9388,-3.9388,-3.9388,-3.9388,-3.9388,-3.9388,-3.9388,-3.9388,-3.9388,-3.9388,-3.9388,-3.9388,-3.9388,-3.9388,-3.9388,-3.9388,-3.9388,-3.9388,-3.9388,-3.9388,-3.9388,-3.9388,-3.9388,-3.9388,-3.9388,-3.9388,-3.9388,-3.9388,-3.9388,-3.9388,-3.9388,-3.9388,-3.9388,-3.9388,-3.9388,-3.9388,-3.9388,-3.9388,-3.9388,-3.9388,-3.9388,-3.9388,-3.9481,-4.0025,-4.0432,-4.0724,-4.0927,-4.1229,-4.1412,-4.1062,-4.1213,-4.1609,-4.2125,-4.2939,-4.3575,-4.3575,-4.3844,-4.4093,-4.4093,-4.3985,-4.3876,-4.3876,-4.3504,-4.3227,-4.3227,-4.3227,-4.3227,-4.3227,-4.3589,-4.3876,-4.3876,-4.4282,-4.4615,-4.4615,-4.4615,-4.4615,-4.4615,-4.4615,-4.4615,-4.4615,-4.4615,-4.4615,-4.4615,-4.4615,-4.5077,-4.6126,-4.6583,-4.7175,-4.7889,-4.8663,-4.9001,-4.9001,-4.9001,-4.9001,-4.9001,-4.9001,-4.9001,-4.9001,-4.9001,-4.9001,-4.9001,-4.9001,-4.9001,-4.9001,-4.9001,-4.9001,-4.9001,-3.8671,-3.91,-3.9574,-4.0136,-3.9697,-3.9301,-3.9388,-3.9388,-3.9388,-3.9388,-3.9388,-3.9388,-3.9388,-3.9388,-3.9388,-3.9388,-3.9388,-3.9388,-3.9388,-3.9388,-3.9388,-3.9388,-3.9388,-3.9388,-3.9388,-3.9388,-3.9388,-3.9388,-3.9388,-3.9388,-3.9388,-3.9388,-3.9388,-3.9388,-3.9388,-3.9388,-3.9388,-3.9388,-3.9388,-3.9388,-3.9388,-3.9388,-3.9388,-3.9388,-3.9388,-3.9388,-3.9388,-3.9388,-3.9388,-3.9388,-3.9388,-3.9388,-3.9388,-3.9955,-4.0432,-3.9646,-3.9955,-4.0397,-3.961,-3.999,-4.0588,-4.0588,-4.118,-4.1804,-4.1965,-4.2614,-4.3169,-4.3169,-4.3814,-4.4384,-4.4485,-4.4485,-4.4514,-4.4587,-4.4615,-4.4615,-4.4615,-4.4615,-4.4615,-4.4615,-4.4615,-4.4615,-4.4615,-4.4615,-4.4615,-4.4615,-4.4615,-4.4615,-4.4615,-4.4615,-4.4615,-4.4615,-4.4615,-4.5326,-4.6786,-4.6786,-4.7192,-4.799,-4.868,-4.9001,-4.9001,-4.9001,-4.9001,-4.9001,-4.9001,-4.9001,-4.9001,-4.9001,-4.9001,-4.9001,-4.9001,-4.9001,-4.9001,-4.9001,-4.9001,-4.9001,-3.7616,-3.7672,-3.8042,-3.8963,-3.8565,-3.8435,-3.9265,-3.9388,-3.9388,-3.9388,-3.9388,-3.9388,-3.9388,-3.9388,-3.9388,-3.9388,-3.9388,-3.9388,-3.9388,-3.9388,-3.9388,-3.9388,-3.9388,-3.9388,-3.9388,-3.9388,-3.9388,-3.9388,-3.9388,-3.9388,-3.9388,-3.9388,-3.9388,-3.9388,-3.9388,-3.9388,-3.9388,-3.9388,-3.9388,-3.9388,-3.9388,-3.9388,-3.9388,-3.9388,-3.9388,-3.9388,-3.9388,-3.9388,-3.9388,-3.9388,-3.9388,-3.9388,-3.9388,-3.9553,-3.9631,-3.9445,-3.9538,-3.9646,-3.9445,-3.9553,-3.9666,-3.9666,-3.9829,-4.0324,-4.1707,-4.2157,-4.2284,-4.2284,-4.241,-4.2769,-4.3456,-4.3591,-4.3814,-4.4485,-4.4615,-4.4615,-4.4615,-4.4615,-4.4615,-4.4615,-4.4615,-4.4615,-4.4615,-4.4615,-4.4615,-4.4615,-4.4615,-4.4615,-4.4615,-4.4615,-4.4615,-4.4615,-4.4615,-4.5326,-4.6786,-4.6786,-4.7462,-4.8765,-4.8934,-4.9001,-4.9001,-4.9001,-4.9001,-4.9001,-4.9001,-4.9001,-4.9001,-4.9001,-4.9001,-4.9001,-4.9001,-4.9001,-4.9001,-4.9001,-4.9001,-4.9001,-3.6397,-3.6385,-3.6648,-3.7425,-3.7272,-3.742,-3.8457,-3.862,-3.8819,-3.9337,-3.9388,-3.9388,-3.9388,-3.9388,-3.9388,-3.9388,-3.9388,-3.9388,-3.9388,-3.9388,-3.9388,-3.9388,-3.9388,-3.9388,-3.9388,-3.9388,-3.9388,-3.9388,-3.9388,-3.9388,-3.9388,-3.9388,-3.9388,-3.9388,-3.9388,-3.9388,-3.9388,-3.9388,-3.9388,-3.9388,-3.9388,-3.9388,-3.9388,-3.9388,-3.9388,-3.9388,-3.9388,-3.9388,-3.9388,-3.9388,-3.9388,-3.9388,-3.9388,-3.9388,-3.9388,-3.9388,-3.9388,-3.9388,-3.9388,-3.9388,-3.9388,-3.9388,-3.9388,-3.9646,-4.055,-4.108,-4.1379,-4.1379,-4.2029,-4.2614,-4.2676,-4.3366,-4.3814,-4.341,-4.371,-4.3844,-4.341,-4.335,-4.3515,-4.3931,-4.3977,-4.4138,-4.4542,-4.4615,-4.4615,-4.4615,-4.4615,-4.4615,-4.4615,-4.4615,-4.4615,-4.4615,-4.4925,-4.5652,-4.6786,-4.7141,-4.7902,-4.9001,-4.9001,-4.9001,-4.9001,-4.9001,-4.9001,-4.9001,-4.9001,-4.9001,-4.9001,-4.9001,-4.9001,-4.9001,-4.9001,-4.9001,-4.9001,-4.9001,-4.9001,-4.9001,-3.5141,-3.5159,-3.526,-3.583,-3.5934,-3.6369,-3.7625,-3.7791,-3.8196,-3.9265,-3.9388,-3.9388,-3.9388,-3.9388,-3.9388,-3.9388,-3.9388,-3.9388,-3.9388,-3.9388,-3.9388,-3.9388,-3.9388,-3.9388,-3.9388,-3.9388,-3.9388,-3.9388,-3.9388,-3.9388,-3.9388,-3.9388,-3.9388,-3.9388,-3.9388,-3.9388,-3.9388,-3.9388,-3.9388,-3.9388,-3.9388,-3.9388,-3.9388,-3.9388,-3.9388,-3.9388,-3.9388,-3.9388,-3.9388,-3.9388,-3.9388,-3.9388,-3.9388,-3.9388,-3.9388,-3.9388,-3.9388,-3.9388,-3.9388,-3.9388,-3.9388,-3.9388,-3.9388,-3.9388,-3.9388,-3.9955,-4.0466,-4.0466,-4.1642,-4.2458,-4.1901,-4.2953,-4.3515,-4.2221,-4.2614,-4.2816,-4.2093,-4.1997,-4.2252,-4.2986,-4.3078,-4.3366,-4.4093,-4.415,-4.415,-4.415,-4.415,-4.4224,-4.4355,-4.4384,-4.4457,-4.4615,-4.5314,-4.6058,-4.6786,-4.7547,-4.8291,-4.9001,-4.9001,-4.9001,-4.9001,-4.9001,-4.9001,-4.9001,-4.9001,-4.9001,-4.9001,-4.9001,-4.9001,-4.9001,-4.9001,-4.9001,-4.9001,-4.9001,-4.9001,-4.9001,-3.4117,-3.3756,-3.3717,-3.4718,-3.4897,-3.5574,-3.751,-3.7791,-3.8196,-3.9265,-3.9388,-3.9388,-3.9388,-3.9388,-3.9388,-3.9388,-3.9388,-3.9388,-3.9388,-3.9388,-3.9388,-3.9388,-3.9388,-3.9388,-3.9388,-3.9388,-3.9388,-3.9388,-3.9388,-3.9388,-3.9388,-3.9388,-3.9388,-3.9388,-3.9388,-3.9388,-3.9388,-3.9388,-3.9388,-3.9388,-3.9388,-3.9388,-3.9388,-3.9388,-3.9388,-3.9388,-3.9388,-3.9388,-3.9388,-3.9388,-3.9388,-3.9388,-3.9388,-3.9388,-3.9388,-3.9388,-3.9388,-3.9388,-3.9388,-3.9388,-3.9388,-3.9388,-3.9388,-3.9388,-3.9388,-3.9481,-3.9574,-3.9574,-3.9773,-4.013,-4.0758,-4.108,-4.1396,-4.1933,-4.2093,-4.2125,-4.2029,-4.1997,-4.2029,-4.2157,-4.2157,-4.2221,-4.2347,-4.2347,-4.2347,-4.2347,-4.2347,-4.2676,-4.3443,-4.3472,-4.3814,-4.457,-4.5314,-4.6058,-4.6786,-4.7547,-4.8291,-4.9001,-4.9001,-4.9001,-4.9001,-4.9001,-4.9001,-4.9001,-4.9001,-4.9001,-4.9001,-4.9001,-4.9001,-4.9001,-4.9001,-4.9001,-4.9001,-4.9001,-4.9001,-4.9001,-3.3432,-3.3244,-3.324,-3.3713,-3.3797,-3.4498,-3.6579,-3.6891,-3.7496,-3.9177,-3.9388,-3.9388,-3.9388,-3.9388,-3.9388,-3.9388,-3.9388,-3.9388,-3.9388,-3.9388,-3.9388,-3.9388,-3.9388,-3.9388,-3.9388,-3.9388,-3.9388,-3.9388,-3.9388,-3.9388,-3.9388,-3.9388,-3.9388,-3.9388,-3.9388,-3.9388,-3.9388,-3.9388,-3.9388,-3.9388,-3.9388,-3.9388,-3.9388,-3.9388,-3.9388,-3.9388,-3.9388,-3.9388,-3.9388,-3.9388,-3.9388,-3.9388,-3.9388,-3.9388,-3.9388,-3.9388,-3.9388,-3.9388,-3.9388,-3.9388,-3.9388,-3.9388,-3.9388,-3.9388,-3.9388,-3.9388,-3.9388,-3.9388,-3.9793,-4.008,-3.999,-4.0758,-4.1247,-4.0638,-4.0961,-4.1113,-4.0619,-4.055,-4.074,-4.1213,-4.1691,-4.1997,-4.1997,-4.1997,-4.1997,-4.1997,-4.1997,-4.2157,-4.2552,-4.2583,-4.297,-4.3844,-4.5003,-4.5982,-4.6786,-4.7953,-4.868,-4.9001,-4.9001,-4.9001,-4.9001,-4.9001,-4.9001,-4.9001,-4.9001,-4.9001,-4.9001,-4.9001,-4.9001,-4.9001,-4.9001,-4.9001,-4.9001,-4.9001,-4.9001,-4.9001]}]]